[[{"header":{"parameterUnit":"m.s-1","parameterCategory":1,"la1":30.6,"la2":28.766,"lo1":-90.7593,"lo2":-88.6598,"dy":0.0162,"dx":0.0183,"nx":116,"ny":114,"refTime":"2024-02-24T06:00:00:Z","depth":0,"parameterNumber":2,"parameterNumberName":"U-component_of_WINDS"},"data":[0.0,0.0,0.0,0.0,0.0,0.0,0.0,0.0,0.0,0.0,0.0,0.0,0.0,0.0,0.0,0.0,0.0,0.0,0.0,0.0,0.0,0.0,0.0,0.0,0.0,0.0,0.0,0.0,0.0,0.0,0.0,0.0,0.0,0.0,0.0,0.0,0.0,0.0,0.0,0.0,0.0,0.0,0.0,0.0,0.0,0.0,0.0,0.0,0.0,0.0,0.0,0.0,0.0,0.0,0.0,0.0,0.0,0.0,0.0,0.0,0.0,0.0,0.0,0.0,0.0,0.0,0.0,0.0,0.0,0.0,0.0,0.0,0.0,0.0,0.0,0.0,0.0,0.0,0.0,0.0,0.0,0.0,0.0,0.0,0.0,0.0,0.0,0.0,0.0,0.0,0.0,0.0,0.0,0.0,0.0,0.0,0.0,0.0,0.0,0.0,0.0,0.0,0.0,0.0,0.0,0.0,0.0,0.0,0.0,0.0,0.0,0.0,0.0,0.0,0.0,0.0,0.0,0.0,0.0,0.0,0.0,0.0,0.0,0.0,0.0,0.0,0.0,0.0,0.0,0.0,0.0,0.0,0.0,0.0,0.0,0.0,0.0,0.0,0.0,0.0,0.0,0.0,0.0,0.0,0.0,0.0,0.0,0.0,0.0,0.0,0.0,0.0,0.0,0.0,0.0,0.0,0.0,0.0,0.0,0.0,0.0,0.0,0.0,0.0,0.0,0.0,0.0,0.0,0.0,0.0,0.0,0.0,0.0,0.0,0.0,0.0,0.0,0.0,0.0,0.0,0.0,0.0,0.0,0.0,0.0,0.0,0.0,0.0,0.0,0.0,0.0,0.0,0.0,0.0,0.0,0.0,0.0,0.0,0.0,0.0,0.0,0.0,0.0,0.0,0.0,0.0,0.0,0.0,0.0,0.0,0.0,0.0,0.0,0.0,0.0,0.0,0.0,0.0,0.0,0.0,0.0,0.0,0.0,0.0,0.0,0.0,0.0,0.0,0.0,0.0,0.0,0.0,0.0,0.0,0.0,0.0,0.0,0.0,0.0,0.0,0.0,0.0,0.0,0.0,0.0,0.0,0.0,0.0,0.0,0.0,0.0,0.0,0.0,0.0,0.0,0.0,0.0,0.0,0.0,0.0,0.0,0.0,0.0,0.0,0.0,0.0,0.0,0.0,0.0,0.0,0.0,0.0,0.0,0.0,0.0,0.0,0.0,0.0,0.0,0.0,0.0,0.0,0.0,0.0,0.0,0.0,0.0,0.0,0.0,0.0,0.0,0.0,0.0,0.0,0.0,0.0,0.0,0.0,0.0,0.0,0.0,0.0,0.0,0.0,0.0,0.0,0.0,0.0,0.0,0.0,0.0,0.0,0.0,0.0,0.0,0.0,0.0,0.0,0.0,0.0,0.0,0.0,0.0,0.0,0.0,0.0,0.0,0.0,0.0,0.0,0.0,0.0,0.0,0.0,0.0,0.0,0.0,0.0,0.0,0.0,0.0,0.0,0.0,0.0,0.0,0.0,0.0,0.0,0.0,0.0,0.0,0.0,0.0,0.0,0.0,0.0,0.0,0.0,0.0,0.0,0.0,0.0,0.0,0.0,0.0,0.0,0.0,0.0,0.0,0.0,0.0,0.0,0.0,0.0,0.0,0.0,0.0,0.0,0.0,0.0,0.0,0.0,0.0,0.0,0.0,0.0,0.0,0.0,0.0,0.0,0.0,0.0,0.0,0.0,0.0,0.0,0.0,0.0,0.0,0.0,0.0,0.0,0.0,0.0,0.0,0.0,0.0,0.0,0.0,0.0,0.0,0.0,0.0,0.0,0.0,0.0,0.0,0.0,0.0,0.0,0.0,0.0,0.0,0.0,0.0,0.0,0.0,0.0,0.0,0.0,0.0,0.0,0.0,0.0,0.0,0.0,0.0,0.0,0.0,0.0,0.0,0.0,0.0,0.0,0.0,0.0,0.0,0.0,0.0,0.0,0.0,0.0,0.0,0.0,0.0,0.0,0.0,0.0,0.0,0.0,0.0,0.0,0.0,0.0,0.0,0.0,0.0,0.0,0.0,0.0,0.0,0.0,0.0,0.0,0.0,0.0,0.0,0.0,0.0,0.0,0.0,0.0,0.0,0.0,0.0,0.0,0.0,0.0,0.0,0.0,0.0,0.0,0.0,0.0,0.0,0.0,0.0,0.0,0.0,0.0,0.0,0.0,0.0,0.0,0.0,0.0,0.0,0.0,0.0,0.0,0.0,0.0,0.0,0.0,0.0,0.0,0.0,0.0,0.0,0.0,0.0,0.0,0.0,0.0,0.0,0.0,0.0,0.0,0.0,0.0,0.0,0.0,0.0,0.0,0.0,0.0,0.0,0.0,0.0,0.0,0.0,0.0,0.0,0.0,0.0,0.0,0.0,0.0,0.0,0.0,0.0,0.0,0.0,0.0,0.0,0.0,0.0,0.0,0.0,0.0,0.0,0.0,0.0,0.0,0.0,0.0,0.0,0.0,0.0,0.0,0.0,0.0,0.0,0.0,0.0,0.0,0.0,0.0,0.0,0.0,0.0,0.0,0.0,0.0,0.0,0.0,0.0,0.0,0.0,0.0,0.0,0.0,0.0,0.0,0.0,0.0,0.0,0.0,0.0,0.0,0.0,0.0,0.0,0.0,0.0,0.0,0.0,0.0,0.0,0.0,0.0,0.0,0.0,0.0,0.0,0.0,0.0,0.0,0.0,0.0,0.0,0.0,0.0,0.0,0.0,0.0,0.0,0.0,0.0,0.0,0.0,0.0,0.0,0.0,0.0,0.0,0.0,0.0,0.0,0.0,0.0,0.0,0.0,0.0,0.0,0.0,0.0,0.0,0.0,0.0,0.0,0.0,0.0,0.0,0.0,0.0,0.0,0.0,0.0,0.0,0.0,0.0,0.0,0.0,0.0,0.0,0.0,0.0,0.0,0.0,0.0,0.0,0.0,0.0,0.0,0.0,0.0,0.0,0.0,0.0,0.0,0.0,0.0,0.0,0.0,0.0,0.0,0.0,0.0,0.0,0.0,0.0,0.0,0.0,0.0,0.0,0.0,0.0,0.0,0.0,0.0,0.0,0.0,0.0,0.0,0.0,0.0,0.0,0.0,0.0,0.0,0.0,0.0,0.0,0.0,0.0,0.0,0.0,0.0,0.0,0.0,0.0,0.0,0.0,0.0,0.0,0.0,0.0,0.0,0.0,0.0,0.0,0.0,0.0,0.0,0.0,0.0,0.0,0.0,0.0,0.0,0.0,0.0,0.0,0.0,0.0,0.0,0.0,0.0,0.0,0.0,0.0,0.0,0.0,0.0,0.0,0.0,0.0,0.0,0.0,0.0,0.0,0.0,0.0,0.0,0.0,0.0,0.0,0.0,0.0,0.0,0.0,0.0,0.0,0.0,0.0,0.0,0.0,0.0,0.0,0.0,0.0,0.0,0.0,0.0,0.0,0.0,0.0,0.0,0.0,0.0,0.0,0.0,0.0,0.0,0.0,0.0,0.0,0.0,0.0,0.0,0.0,0.0,0.0,0.0,0.0,0.0,0.0,0.0,0.0,0.0,0.0,0.0,0.0,0.0,0.0,0.0,0.0,0.0,0.0,0.0,0.0,0.0,0.0,0.0,0.0,0.0,0.0,0.0,0.0,0.0,0.0,0.0,0.0,0.0,0.0,0.0,0.0,0.0,0.0,0.0,0.0,0.0,0.0,0.0,0.0,0.0,0.0,0.0,0.0,0.0,0.0,0.0,0.0,0.0,0.0,0.0,0.0,0.0,0.0,0.0,0.0,0.0,0.0,0.0,0.0,0.0,0.0,0.0,0.0,0.0,0.0,0.0,0.0,0.0,0.0,0.0,0.0,0.0,0.0,0.0,0.0,0.0,0.0,0.0,0.0,0.0,0.0,0.0,0.0,0.0,0.0,0.0,0.0,0.0,0.0,0.0,0.0,0.0,0.0,0.0,0.0,0.0,0.0,0.0,0.0,0.0,0.0,0.0,0.0,0.0,0.0,0.0,0.0,0.0,0.0,0.0,0.0,0.0,0.0,0.0,0.0,0.0,0.0,0.0,0.0,0.0,0.0,0.0,0.0,0.0,0.0,0.0,0.0,0.0,0.0,0.0,0.0,0.0,0.0,0.0,0.0,0.0,0.0,0.0,0.0,0.0,0.0,0.0,0.0,0.0,0.0,0.0,0.0,0.0,0.0,0.0,0.0,0.0,0.0,0.0,0.0,0.0,0.0,0.0,0.0,0.0,0.0,0.0,0.0,0.0,0.0,0.0,0.0,0.0,0.0,0.0,0.0,0.0,0.0,0.0,0.0,0.0,0.0,0.0,0.0,0.0,0.0,0.0,0.0,0.0,0.0,0.0,0.0,0.0,0.0,0.0,0.0,0.0,0.0,0.0,0.0,0.0,0.0,0.0,0.0,0.0,0.0,0.0,0.0,0.0,0.0,0.0,0.0,0.0,0.0,0.0,0.0,0.0,0.0,0.0,0.0,0.0,0.0,0.0,0.0,0.0,0.0,0.0,0.0,0.0,0.0,0.0,0.0,0.0,0.0,0.0,0.0,0.0,0.0,0.0,0.0,0.0,0.0,0.0,0.0,0.0,0.0,0.0,0.0,0.0,0.0,0.0,0.0,0.0,0.0,0.0,0.0,0.0,0.0,0.0,0.0,0.0,0.0,0.0,0.0,0.0,0.0,0.0,0.0,0.0,0.0,0.0,0.0,0.0,0.0,0.0,0.0,0.0,0.0,0.0,0.0,0.0,0.0,0.0,0.0,0.0,0.0,0.0,0.0,0.0,0.0,0.0,0.0,0.0,0.0,0.0,0.0,0.0,0.0,0.0,0.0,0.0,0.0,0.0,0.0,0.0,0.0,0.0,0.0,0.0,0.0,0.0,0.0,0.0,0.0,0.0,0.0,0.0,0.0,0.0,0.0,0.0,0.0,0.0,0.0,0.0,0.0,0.0,0.0,0.0,0.0,0.0,0.0,0.0,0.0,0.0,0.0,0.0,0.0,0.0,0.0,0.0,0.0,0.0,0.0,0.0,0.0,0.0,0.0,0.0,0.0,0.0,0.0,0.0,0.0,0.0,0.0,0.0,0.0,0.0,0.0,0.0,0.0,0.0,0.0,0.0,0.0,0.0,0.0,0.0,0.0,0.0,0.0,0.0,0.0,0.0,0.0,0.0,0.0,0.0,0.0,0.0,0.0,0.0,0.0,0.0,0.0,0.0,0.0,0.0,0.0,0.0,0.0,0.0,0.0,0.0,0.0,0.0,0.0,0.0,0.0,0.0,0.0,0.0,0.0,0.0,0.0,0.0,0.0,0.0,0.0,0.0,0.0,0.0,0.0,0.0,0.0,0.0,0.0,0.0,0.0,0.0,0.0,0.0,0.0,0.0,0.0,0.0,0.0,0.0,0.0,0.0,0.0,0.0,0.0,0.0,0.0,0.0,0.0,0.0,0.0,0.0,0.0,0.0,0.0,0.0,0.0,0.0,0.0,0.0,0.0,0.0,0.0,0.0,0.0,0.0,0.0,0.0,0.0,0.0,0.0,0.0,0.0,0.0,0.0,0.0,0.0,0.0,0.0,0.0,0.0,0.0,0.0,0.0,0.0,0.0,0.0,0.0,0.0,0.0,0.0,0.0,0.0,0.0,0.0,0.0,0.0,0.0,0.0,0.0,0.0,0.0,0.0,0.0,0.0,0.0,0.0,0.0,0.0,0.0,0.0,0.0,0.0,0.0,0.0,0.0,0.0,0.0,0.0,0.0,0.0,0.0,0.0,0.0,0.0,0.0,0.0,0.0,0.0,0.0,0.0,0.0,0.0,0.0,0.0,0.0,0.0,0.0,0.0,0.0,0.0,0.0,0.0,0.0,0.0,0.0,0.0,0.0,0.0,0.0,0.0,0.0,0.0,0.0,0.0,0.0,0.0,0.0,0.0,0.0,0.0,0.0,0.0,0.0,0.0,0.0,0.0,0.0,0.0,0.0,0.0,0.0,0.0,0.0,0.0,0.0,0.0,0.0,0.0,0.0,0.0,0.0,0.0,0.0,0.0,0.0,0.0,0.0,0.0,5.6116,0.0,0.0,0.0,0.0,0.0,0.0,0.0,0.0,0.0,0.0,0.0,0.0,0.0,0.0,0.0,0.0,0.0,0.0,0.0,0.0,0.0,0.0,0.0,0.0,0.0,0.0,0.0,4.3398,4.4033,4.4714,4.5139,4.5503,4.5796,4.6134,4.6298,4.6298,4.6884,4.731,4.7495,4.7621,4.7787,4.8001,4.8001,4.8001,4.8001,0.0,0.0,0.0,0.0,0.0,0.0,0.0,0.0,0.0,0.0,0.0,0.0,0.0,0.0,0.0,0.0,0.0,0.0,0.0,0.0,0.0,0.0,0.0,0.0,0.0,0.0,0.0,0.0,0.0,0.0,0.0,0.0,0.0,0.0,0.0,0.0,0.0,0.0,0.0,0.0,0.0,0.0,0.0,0.0,0.0,0.0,0.0,0.0,0.0,0.0,0.0,0.0,0.0,0.0,0.0,0.0,0.0,0.0,0.0,0.0,0.0,0.0,0.0,0.0,0.0,0.0,0.0,0.0,0.0,0.0,0.0,5.6814,0.0,0.0,0.0,0.0,0.0,0.0,0.0,0.0,0.0,0.0,0.0,0.0,0.0,0.0,0.0,0.0,0.0,0.0,0.0,0.0,0.0,0.0,0.0,4.23,4.2545,4.2739,4.3359,4.3996,4.461,4.5036,4.5439,4.5796,4.6134,4.6298,4.6298,4.6858,4.7276,4.7495,4.7654,4.7853,4.8001,4.8001,4.8067,4.8199,4.8067,0.0,0.0,0.0,0.0,0.0,0.0,0.0,0.0,0.0,0.0,0.0,0.0,0.0,0.0,0.0,0.0,0.0,0.0,0.0,0.0,0.0,0.0,0.0,0.0,0.0,0.0,0.0,0.0,0.0,0.0,0.0,0.0,0.0,0.0,0.0,0.0,0.0,0.0,0.0,0.0,0.0,0.0,0.0,0.0,0.0,0.0,0.0,0.0,0.0,0.0,0.0,0.0,0.0,0.0,0.0,0.0,0.0,0.0,0.0,0.0,0.0,0.0,0.0,5.669,5.669,5.669,5.669,5.669,5.6709,5.6872,5.7015,5.7168,5.7368,0.0,0.0,0.0,0.0,0.0,0.0,0.0,0.0,0.0,0.0,0.0,0.0,0.0,0.0,0.0,0.0,0.0,0.0,0.0,0.0,0.0,4.2443,4.2749,4.2931,4.3733,4.4391,4.4827,4.5241,4.5577,4.5805,4.6134,4.6298,4.6298,4.6728,4.7115,4.7495,4.7812,4.7976,4.8001,4.8001,4.8324,4.892,4.8299,0.0,0.0,0.0,0.0,0.0,0.0,0.0,0.0,0.0,0.0,0.0,0.0,0.0,0.0,0.0,0.0,0.0,0.0,0.0,0.0,0.0,0.0,0.0,0.0,0.0,0.0,0.0,0.0,0.0,0.0,0.0,0.0,0.0,0.0,0.0,0.0,0.0,0.0,0.0,0.0,0.0,0.0,0.0,5.3524,5.4144,0.0,0.0,0.0,0.0,0.0,0.0,0.0,0.0,0.0,0.0,0.0,0.0,0.0,5.6557,5.6557,5.6656,5.669,5.669,5.669,5.669,5.669,5.669,5.669,5.669,5.6728,0.0,5.7699,5.7914,0.0,0.0,0.0,0.0,0.0,0.0,0.0,0.0,0.0,0.0,0.0,0.0,0.0,0.0,0.0,0.0,0.0,0.0,0.0,0.0,0.0,4.2351,4.2586,4.2648,4.3319,4.3909,4.4303,4.4855,4.5306,4.5632,4.6071,4.6298,4.6298,4.6806,4.7439,4.8221,4.8902,4.9251,4.9251,4.9251,4.9417,4.9715,4.9384,4.9315,4.9417,4.9088,0.0,0.0,0.0,0.0,0.0,0.0,0.0,0.0,0.0,0.0,0.0,0.0,0.0,0.0,0.0,0.0,0.0,0.0,0.0,0.0,0.0,0.0,0.0,0.0,0.0,0.0,0.0,0.0,0.0,0.0,0.0,0.0,0.0,0.0,0.0,0.0,0.0,0.0,0.0,5.3822,5.4144,5.4475,5.4872,5.5137,0.0,0.0,0.0,0.0,0.0,0.0,0.0,0.0,0.0,5.669,5.669,5.669,5.669,5.669,5.669,5.669,5.669,5.669,5.669,5.669,5.669,5.669,5.669,5.712,5.7783,5.745,5.7489,5.7787,0.0,0.0,0.0,0.0,5.7914,5.7914,0.0,0.0,0.0,0.0,0.0,0.0,0.0,0.0,0.0,0.0,0.0,0.0,4.2092,4.2269,4.2402,4.2402,4.294,4.3478,4.3869,4.4543,4.507,4.5472,4.6194,4.6594,4.6594,4.7389,4.8222,4.9079,4.982,5.0203,5.0203,5.016,5.0234,5.0399,5.0356,5.0227,5.0105,4.9908,4.9766,0.0,0.0,0.0,0.0,0.0,0.0,0.0,0.0,0.0,0.0,0.0,0.0,0.0,0.0,0.0,0.0,0.0,0.0,0.0,0.0,0.0,0.0,0.0,0.0,0.0,0.0,0.0,0.0,0.0,0.0,0.0,0.0,0.0,0.0,0.0,0.0,0.0,0.0,5.4773,5.4839,5.5047,5.5544,5.5866,0.0,0.0,0.0,0.0,0.0,0.0,5.669,5.669,5.669,5.669,5.669,5.669,5.669,5.669,5.6789,5.6988,5.6988,5.7087,5.7253,5.7253,5.7253,5.7253,5.7253,5.7584,5.8015,5.7286,5.7187,5.7551,5.7551,5.765,5.7816,5.7816,5.7816,5.7816,0.0,0.0,0.0,0.0,0.0,0.0,0.0,0.0,0.0,0.0,0.0,4.2092,4.2092,4.2269,4.2402,4.2402,4.294,4.3478,4.3869,4.4543,4.507,4.5472,4.6689,4.7348,4.7348,4.8754,4.9589,4.9846,5.0084,5.0203,5.0203,4.9998,5.0283,5.0966,5.0764,5.0684,5.06,4.9912,4.9689,4.9747,0.0,0.0,0.0,0.0,0.0,0.0,0.0,0.0,0.0,0.0,0.0,0.0,0.0,0.0,0.0,0.0,0.0,0.0,0.0,0.0,0.0,0.0,0.0,0.0,0.0,0.0,0.0,0.0,0.0,0.0,0.0,0.0,0.0,0.0,0.0,0.0,0.0,0.0,0.0,5.6524,5.6623,0.0,0.0,0.0,0.0,5.669,5.669,5.669,5.669,5.669,5.669,5.669,5.669,5.669,5.669,5.669,5.7054,5.775,5.775,5.8114,5.88,5.88,5.88,5.88,5.88,5.88,5.88,5.8048,5.8568,5.9827,5.9827,6.0247,6.0877,6.0877,6.0877,6.0877,0.0,0.0,0.0,0.0,0.0,0.0,0.0,0.0,4.2092,4.2092,4.2092,4.2248,4.2654,4.2746,4.2973,4.338,4.3872,4.433,4.4779,4.5431,4.6051,4.6581,4.7396,4.8144,4.8793,4.9803,5.0456,5.0796,5.1221,5.1417,5.1417,5.1206,5.1175,5.1301,5.1075,5.0802,5.0577,5.0621,5.0487,5.0204,4.9882,4.9617,0.0,0.0,0.0,0.0,0.0,0.0,0.0,0.0,0.0,0.0,0.0,0.0,0.0,0.0,0.0,0.0,0.0,0.0,0.0,0.0,0.0,0.0,0.0,0.0,0.0,0.0,0.0,0.0,0.0,0.0,0.0,0.0,0.0,0.0,0.0,0.0,0.0,5.6656,5.669,0.0,5.669,5.669,5.669,5.669,5.669,5.6922,5.7385,5.7419,5.7617,5.8114,5.8114,5.8114,5.8114,5.8114,5.8247,5.8512,5.8512,5.8634,5.8899,5.8899,5.8899,5.8899,5.8899,5.8899,5.8866,5.8601,5.8833,5.9297,5.9297,5.9463,5.9694,5.9694,5.9694,5.9694,0.0,0.0,0.0,0.0,0.0,0.0,0.0,0.0,4.2741,4.2741,4.2741,4.2876,4.3293,4.3351,4.3525,4.3961,4.4368,4.4752,4.518,4.589,4.6514,4.6988,4.7952,4.8977,5.0114,5.0685,5.1146,5.1477,5.1828,5.1995,5.1986,5.1624,5.1401,5.1242,5.0794,5.0457,5.0214,5.036,5.0302,5.0087,4.9959,4.9721,4.9411,0.0,0.0,0.0,0.0,0.0,0.0,0.0,0.0,0.0,0.0,0.0,0.0,0.0,0.0,0.0,0.0,0.0,0.0,0.0,0.0,0.0,0.0,0.0,0.0,0.0,0.0,0.0,0.0,0.0,0.0,0.0,0.0,0.0,0.0,0.0,5.669,5.669,5.669,5.669,5.669,5.6931,5.7054,5.7054,5.7286,5.765,5.8147,5.8171,5.8413,5.8866,5.8899,5.8899,5.8899,5.8899,5.9032,5.9264,5.9264,5.9396,5.9628,5.9628,5.9628,5.9628,5.9628,5.9628,5.9628,5.9628,5.9628,5.9628,5.9363,5.9429,5.9628,5.9628,5.9628,5.9628,0.0,0.0,0.0,0.0,0.0,0.0,0.0,4.3708,4.399,4.399,4.399,4.4019,4.4019,4.4019,4.4048,4.4048,4.4416,4.4767,4.502,4.5848,4.6415,4.6655,4.8299,4.9834,5.1158,5.1396,5.1601,5.1804,5.1762,5.1785,5.1725,5.1097,5.0771,5.0723,4.9929,4.9583,4.9511,4.9066,4.9005,4.926,4.9249,4.8975,4.8552,0.0,0.0,0.0,0.0,0.0,0.0,0.0,0.0,0.0,0.0,0.0,0.0,0.0,0.0,0.0,0.0,0.0,0.0,0.0,0.0,0.0,0.0,0.0,0.0,0.0,0.0,0.0,0.0,0.0,0.0,0.0,0.0,0.0,5.6583,5.667,5.667,5.668,5.6713,5.6723,5.6723,5.7385,5.7816,5.7816,5.8512,5.8899,5.8933,5.8933,5.8933,5.8966,5.8966,5.8966,5.8966,5.8966,5.933,6.0026,6.0026,6.0413,6.1109,6.1109,6.1109,6.1109,6.1109,6.1109,6.1109,6.1109,6.1109,6.1042,6.0314,6.0479,6.1109,6.1109,6.1109,6.1109,0.0,0.0,0.0,0.0,0.0,0.0,0.0,4.3806,4.399,4.399,4.399,4.4164,4.46,4.4658,4.4861,4.5337,4.561,4.5885,4.6136,4.6526,4.7125,4.7999,4.9105,5.0082,5.0876,5.1289,5.1527,5.1582,5.1443,5.1186,5.0841,5.037,4.9998,4.9691,4.9128,4.878,4.8656,4.8355,4.8166,4.8102,4.8448,4.8417,4.8144,0.0,0.0,0.0,0.0,0.0,0.0,0.0,0.0,0.0,0.0,0.0,0.0,0.0,0.0,0.0,0.0,0.0,0.0,0.0,0.0,0.0,0.0,0.0,0.0,0.0,0.0,0.0,0.0,0.0,0.0,0.0,5.4987,5.5275,5.6132,5.6274,5.6333,5.649,5.6961,5.7351,5.7465,5.8181,5.8601,5.8601,5.88,5.9131,5.9661,5.9694,5.9926,6.049,6.0512,6.0512,6.0512,6.0512,6.0612,6.081,6.081,6.091,6.1109,6.1109,6.1109,6.1109,6.1109,6.1109,6.1109,6.1109,6.1109,6.1075,6.0877,6.091,6.1109,6.1109,6.1109,6.1109,0.0,0.0,0.0,0.0,0.0,0.0,0.0,4.462,4.4803,4.4803,4.4803,4.4919,4.5267,4.5325,4.5471,4.5877,4.6079,4.628,4.6414,4.6822,4.7452,4.8281,4.9168,4.9811,5.0163,5.0679,5.104,5.1247,5.1141,5.1035,5.0933,5.0532,5.0008,4.9399,4.8846,4.8367,4.7996,4.7784,4.7602,4.7514,4.7762,4.7805,4.7677,4.7516,4.7452,4.7471,4.7352,4.7309,4.7363,4.7698,0.0,0.0,0.0,0.0,0.0,0.0,0.0,0.0,0.0,0.0,0.0,0.0,0.0,0.0,0.0,0.0,0.0,0.0,0.0,0.0,0.0,0.0,0.0,0.0,5.4157,5.4539,5.5686,5.6149,5.6462,5.6681,5.7349,5.789,5.8121,5.8769,5.9229,5.9353,5.9661,6.0016,6.0446,6.0456,6.0645,6.1075,6.1109,6.1109,6.1109,6.1109,6.1109,6.1109,6.1109,6.1109,6.1109,6.1109,6.1109,6.1109,6.1109,6.1109,6.1109,6.1109,6.1109,6.1109,0.0,0.0,0.0,0.0,6.1109,6.1109,0.0,0.0,0.0,0.0,0.0,0.0,0.0,4.5742,4.5906,4.5906,4.5906,4.5906,4.5906,4.5906,4.5906,4.5906,4.6057,4.6169,4.6169,4.6822,4.7387,4.7766,4.8718,4.9271,4.9323,4.9915,5.0452,5.0897,5.0897,5.1088,5.1434,5.1,5.0351,4.9573,4.8938,4.8323,4.7669,4.7475,4.7358,4.7309,4.7309,4.7309,4.7309,4.7309,4.7309,4.7309,4.7309,4.7309,4.7331,4.7516,0.0,0.0,0.0,0.0,0.0,0.0,0.0,0.0,0.0,0.0,0.0,0.0,0.0,0.0,0.0,0.0,0.0,0.0,0.0,0.0,0.0,0.0,0.0,0.0,5.339,5.3862,5.5297,5.6252,5.689,5.7111,5.7785,5.8379,5.8657,5.9293,5.9804,6.0064,6.068,6.1088,6.1109,6.1109,0.0,0.0,0.0,6.1109,6.1109,6.1109,6.1142,6.1208,6.1208,6.1274,6.134,6.134,6.1307,6.1208,6.1208,6.1185,6.1109,6.1175,6.1274,6.134,6.1175,6.1109,6.1109,6.1109,6.1109,6.1109,0.0,0.0,0.0,0.0,0.0,0.0,0.0,4.5884,4.5906,4.5906,4.5906,4.5906,4.5906,4.5906,4.5906,4.5906,4.5951,4.5945,4.5945,4.6465,4.6833,4.7076,4.8145,4.8996,4.952,5.0194,5.0641,5.0889,5.0889,5.078,5.0537,5.0223,4.9921,4.9579,4.9298,4.8793,4.8153,4.812,4.7788,4.7309,4.7309,4.7309,4.7309,4.7309,4.7309,4.7309,4.7309,4.7309,4.7331,4.7516,4.7591,4.7766,4.86,0.0,0.0,0.0,0.0,0.0,0.0,0.0,0.0,0.0,0.0,0.0,0.0,0.0,0.0,0.0,0.0,0.0,0.0,0.0,0.0,5.3521,5.3363,5.3576,5.5181,5.6228,5.6958,5.7385,5.8074,5.8677,5.9131,5.9829,6.034,6.0562,6.0704,6.0877,6.1098,6.1109,6.1109,6.1109,6.1109,6.1109,6.1109,6.1109,6.1384,6.2001,6.2001,0.0,6.2852,6.2852,6.2565,6.2001,6.2001,6.1659,6.1142,6.1726,6.2333,6.2764,6.155,6.1109,6.1109,6.1109,6.1109,6.1109,0.0,0.0,0.0,0.0,0.0,0.0,0.0,4.5906,4.5906,4.5906,4.5906,4.5906,4.5906,4.5906,4.5906,4.5906,4.5906,4.5906,4.5906,4.6354,4.6635,4.6745,4.8033,4.8858,4.9087,4.998,5.0611,5.094,5.094,5.0947,5.0947,5.0793,5.0461,4.9881,4.9808,4.9415,4.8798,4.8798,4.8618,4.8308,4.8308,4.8308,4.8218,4.7549,4.7309,4.7309,4.7309,4.7519,4.781,4.7919,4.8162,4.8525,4.9007,4.9142,4.9169,0.0,0.0,0.0,0.0,0.0,0.0,0.0,0.0,0.0,0.0,0.0,0.0,0.0,0.0,5.0521,5.1277,0.0,5.1469,5.266,5.2822,5.3344,5.4915,5.5669,5.6414,5.7372,5.8376,5.909,5.9469,5.9956,6.0313,6.0527,6.0644,6.0749,6.0898,6.1398,6.1659,6.1659,6.2024,6.219,6.219,6.219,6.2399,6.2741,6.2741,6.2929,6.3294,6.3294,6.3095,6.2741,6.2741,6.2532,6.2223,6.2598,6.2962,6.3227,6.2488,6.219,6.219,6.219,6.219,6.219,0.0,0.0,0.0,0.0,0.0,0.0,0.0,4.5906,4.5906,4.5906,4.5906,4.5906,4.5906,4.5906,4.5906,4.5906,4.5906,4.5906,4.5906,4.6416,4.6719,4.6719,4.8142,4.8925,4.8856,4.9852,5.0592,5.1035,5.1035,5.1216,5.1503,5.1503,5.1116,5.0387,5.0387,5.0051,4.9486,4.9486,4.9396,4.9288,4.9288,4.9288,4.9187,4.8098,4.7698,4.7698,4.7698,4.8038,4.8487,4.8487,4.8858,4.9307,4.9381,4.9418,4.9391,4.9237,4.9151,0.0,0.0,0.0,0.0,0.0,0.0,0.0,0.0,0.0,4.9896,5.0564,5.0346,5.0247,5.097,5.1184,5.1459,5.2117,5.2539,5.3255,5.4757,5.5189,5.5833,5.7176,5.8364,5.9219,5.954,5.9771,6.0033,6.0467,6.0639,6.0822,6.1124,6.1898,6.2356,6.2399,6.3006,6.3294,6.3294,6.3294,6.336,6.3526,6.3526,6.3592,6.3725,6.3725,6.3625,6.3493,6.336,6.3393,6.3526,6.3526,6.3592,6.3725,6.3725,6.3725,6.3681,6.3393,6.3294,6.3294,0.0,0.0,0.0,0.0,0.0,0.0,0.0,0.0,4.5906,4.5906,4.5906,4.5906,4.5906,4.5906,4.5906,4.5906,4.5906,4.5906,4.5906,4.6667,4.7125,4.7125,4.8446,4.9354,4.9756,5.0286,5.0773,5.118,5.118,5.1186,5.1223,5.1223,5.1181,5.1086,5.1086,5.0727,5.0088,5.0088,4.9793,4.9288,4.9288,4.9288,4.9288,4.9127,4.9078,4.9078,4.9078,4.9127,4.9198,4.9198,4.9228,4.9363,4.9731,4.9841,4.9902,5.0224,0.0,4.9966,5.003,4.9861,4.9691,4.9778,4.9754,4.9904,0.0,0.0,4.9896,5.0564,5.0182,5.0107,5.1319,5.1125,5.1395,5.3343,5.3264,5.347,5.4944,5.5343,5.5797,5.6685,5.7695,5.851,5.9038,5.9117,5.9587,6.0679,6.0767,6.1337,6.2585,6.2771,6.2924,6.3161,6.3261,6.3294,6.3294,6.3294,6.3625,6.4288,6.4288,6.4608,6.5182,6.5182,6.4829,6.4255,6.3592,6.3658,6.4288,6.4288,6.4641,6.5182,6.5182,6.5182,6.5017,6.3747,6.3294,6.3294,0.0,0.0,0.0,0.0,0.0,0.0,0.0,0.0,0.0,4.5906,4.5906,4.5906,4.5906,4.6214,4.6592,4.6951,4.7021,4.7021,4.7021,4.7461,4.7723,4.7723,4.8778,4.9547,4.9872,5.0438,5.0883,5.1206,5.1206,5.1206,5.1206,5.1206,5.1206,5.1206,5.1206,5.1056,5.0775,5.0775,5.0649,5.0391,5.0391,5.0391,5.0391,5.0391,5.0391,5.0313,4.9576,4.9455,0.0,0.0,4.9793,5.0039,5.02,5.0242,5.0254,5.0268,5.0183,0.0,4.9917,4.9778,4.9693,4.9693,4.9693,4.978,5.0042,4.9896,4.9983,5.1004,5.0726,5.0681,5.1946,5.1987,5.2113,0.0,5.3247,5.3549,5.4329,5.4637,5.5107,5.5906,5.6856,5.7686,5.8286,5.881,5.941,6.0129,6.0756,6.1464,6.2206,6.2922,6.3352,6.3463,6.3902,6.4099,6.4099,6.4255,6.4486,6.4816,6.5358,6.5779,6.6032,6.6315,6.598,6.5186,6.4596,6.4519,6.4828,6.4939,6.516,6.5414,6.5414,6.5414,6.5315,6.473,6.4531,6.4531,0.0,0.0,0.0,0.0,0.0,0.0,0.0,0.0,0.0,0.0,4.6156,4.6226,4.64,4.6812,4.7277,4.7764,4.7805,4.7805,4.7805,4.8091,4.8261,4.8261,4.9163,4.9752,4.994,5.0514,5.0905,5.1082,5.117,5.1206,5.1206,5.1206,5.1206,5.1206,5.1206,5.1206,5.1206,5.1206,5.1206,5.1206,5.1206,5.1206,5.1206,5.1206,5.1141,5.0962,5.003,4.9885,0.0,0.0,5.0271,5.0489,5.0417,5.0393,5.0357,5.0074,5.0002,4.9953,4.9742,4.9838,4.9925,4.9751,4.9838,4.9983,4.9983,4.9983,5.0291,5.1369,5.1265,5.1278,5.2394,5.2597,5.2655,5.283,5.321,5.3592,5.3867,5.4058,5.4517,5.5464,5.6151,5.6861,5.7619,5.853,5.9277,5.9771,6.063,6.1404,6.2005,6.295,6.3639,6.3994,6.4495,6.4922,6.5155,6.5349,6.5509,6.5566,6.6346,6.6691,6.6713,6.7056,6.6781,6.6057,6.5796,6.5669,6.5692,6.5909,6.5999,6.601,6.5779,6.5845,6.5966,6.5779,6.5569,6.5414,0.0,0.0,0.0,0.0,0.0,0.0,0.0,0.0,0.0,0.0,0.0,0.0,0.0,4.7776,4.7776,4.7805,4.7805,4.7805,4.7805,4.8362,4.867,4.867,4.9574,5.0081,5.0093,5.0573,5.0781,5.0793,5.1058,5.1206,5.1206,5.1206,5.1206,5.1206,5.1206,5.1206,5.1206,5.1206,5.1206,5.1206,5.1206,5.1206,5.1206,5.1206,5.1035,5.0804,5.0763,0.0,0.0,5.0537,5.0471,5.0453,5.0183,5.011,0.0,4.9778,4.9705,4.9705,4.9693,5.0187,5.0506,4.9867,5.0187,5.0681,5.0681,5.0681,5.0842,5.1456,5.1601,5.1775,5.2481,5.2597,5.2801,5.3371,5.3487,5.3592,5.3867,5.3919,5.4374,5.5553,5.5707,5.6104,0.0,5.81,5.9109,6.0016,6.0347,6.1149,6.2585,6.3028,6.3742,6.4906,6.4995,6.5439,6.634,6.6352,6.6505,6.6763,6.7055,6.7184,6.7184,6.7205,6.702,6.6796,6.7023,6.714,6.7151,6.7419,6.7523,6.7456,6.6761,6.6893,6.7456,6.6728,6.5999,6.5414,0.0,0.0,0.0,0.0,0.0,0.0,0.0,0.0,0.0,0.0,0.0,0.0,0.0,0.0,0.0,0.0,4.9054,4.9054,4.9054,4.9245,4.9361,4.9361,4.9679,4.9929,5.0098,5.0267,5.0489,5.0781,5.0893,5.1023,5.1206,5.1206,5.1206,5.1206,5.1206,5.1206,5.1206,5.1206,5.1206,5.1206,5.1206,5.1082,5.0941,5.0941,5.0787,5.0579,0.0,0.0,5.0339,5.0255,5.0123,4.9953,4.9868,4.9815,4.9803,4.9717,4.9693,4.9809,5.0245,5.0187,5.01,5.0303,5.0187,5.0158,5.0593,5.071,5.1,5.2033,5.2265,5.2468,5.3065,5.321,5.3268,5.3458,5.3487,5.3514,5.3619,5.3632,5.4038,5.505,5.5544,0.0,0.0,0.0,5.8516,5.901,5.9847,6.0941,6.229,6.2821,6.3469,6.4304,6.4512,6.4671,6.4805,6.5331,6.566,6.5746,6.6878,6.7573,6.7859,6.7383,6.6943,6.646,6.6473,6.6471,6.6495,6.6911,6.7077,6.7044,6.6814,6.6846,6.7044,6.6781,6.6551,6.6367,0.0,0.0,0.0,0.0,0.0,0.0,0.0,0.0,0.0,0.0,0.0,0.0,0.0,0.0,0.0,0.0,0.0,4.9693,4.9693,4.9693,4.9693,4.9693,4.9693,4.9766,4.9953,5.005,5.0255,5.0549,5.0644,5.0793,5.0947,5.0947,5.0947,5.0947,5.0947,5.0947,5.0947,5.0947,5.0947,5.0947,5.0947,5.0852,5.068,5.068,5.0555,0.0,0.0,0.0,4.9965,4.9965,4.9827,4.9693,4.9693,4.9693,4.9751,4.9983,5.0071,5.0158,5.0564,5.0523,5.0378,5.0361,5.0349,5.0436,5.0651,5.1058,5.161,5.2423,5.2772,5.3049,5.3429,5.3487,5.3487,5.3487,5.3487,5.3487,5.3487,5.372,5.4163,5.499,5.5672,5.6382,0.0,0.0,0.0,5.8732,5.958,6.0549,6.1714,6.2302,6.2953,6.3747,6.4024,6.4254,6.4412,6.5053,6.5529,6.5835,6.6826,6.744,6.7707,6.7289,6.6843,6.6422,6.64,6.6375,6.6413,6.6821,6.6992,6.696,6.6676,6.6802,6.7126,6.6866,6.6992,6.7312,0.0,0.0,0.0,0.0,0.0,0.0,0.0,0.0,0.0,0.0,0.0,0.0,0.0,0.0,0.0,0.0,0.0,0.0,4.9693,4.9693,4.9693,4.9693,4.9693,4.9693,4.9693,4.9953,5.0086,5.0098,5.0357,5.0489,5.0501,5.0501,5.0501,5.0501,5.0501,5.0501,5.0501,5.0501,5.0501,5.0501,5.0501,5.0489,5.0477,5.0477,0.0,0.0,0.0,0.0,4.9693,4.9693,4.9693,4.9722,4.9751,4.9751,4.9867,5.0564,5.071,5.071,5.0739,5.112,5.1224,5.0087,5.0685,5.1427,5.0913,5.1726,5.2597,5.2626,5.3094,5.3487,0.0,0.0,5.3487,5.3487,5.3487,5.3516,5.3545,5.4097,5.4735,0.0,0.0,0.0,0.0,0.0,0.0,5.9203,5.9482,6.0013,6.0962,6.1577,6.2348,6.3276,6.364,6.4234,6.5112,6.547,6.6031,6.68,6.68,6.68,6.68,6.68,6.6707,6.6506,6.6701,6.68,6.6826,6.7099,6.7215,6.7151,6.6429,6.6786,6.7599,6.6899,6.7268,6.7969,0.0,0.0,0.0,0.0,0.0,0.0,0.0,0.0,0.0,0.0,0.0,0.0,0.0,0.0,0.0,0.0,0.0,0.0,4.9693,4.9693,4.9693,4.9693,4.9693,4.9693,4.9693,4.9754,4.9917,5.0098,5.0159,5.0309,5.0501,5.0501,5.0501,5.0501,5.0501,5.0501,5.0501,5.0501,5.0501,5.0501,0.0,5.0393,5.0195,0.0,0.0,0.0,0.0,0.0,4.9693,4.9693,4.9693,4.978,5.0303,5.0448,5.0564,5.1178,5.1046,5.0797,5.1265,5.0801,5.032,5.0975,5.1004,5.1133,5.1929,5.2365,5.2743,5.3181,5.3371,5.3487,0.0,5.3487,5.3487,5.3487,5.3487,0.0,5.4184,5.4387,0.0,5.6012,0.0,5.6825,5.7942,5.8203,0.0,5.9874,5.9769,6.007,6.102,6.1665,6.2318,6.3034,6.3633,6.3921,6.3948,6.4451,6.5029,6.5624,6.5624,6.5624,6.5624,6.5624,6.5507,6.5262,6.5503,6.5624,6.5638,6.5902,6.6022,6.6022,6.582,6.5923,6.6129,6.5958,6.6188,6.6591,0.0,0.0,0.0,0.0,0.0,0.0,0.0,0.0,0.0,0.0,0.0,0.0,0.0,0.0,0.0,0.0,0.0,0.0,0.0,4.9693,4.9693,4.9693,4.9693,4.9693,4.9693,4.9693,4.9754,4.9929,4.9929,5.0002,5.0147,5.0147,5.0147,5.0147,5.0147,5.0147,5.0147,5.0147,5.0147,0.0,0.0,0.0,0.0,0.0,0.0,0.0,0.0,0.0,0.0,0.0,0.0,5.0187,5.0564,5.0871,5.1149,5.1514,5.1369,5.1091,5.1178,5.0888,5.0627,5.1091,5.1365,5.1726,5.2436,5.2801,5.3094,5.3429,5.3487,5.3487,5.3487,5.3487,5.3487,5.3487,0.0,0.0,5.4445,5.4967,5.5606,0.0,5.6883,0.0,5.8232,5.8813,5.9422,6.0148,6.0034,6.0297,6.1101,6.1731,6.2228,6.2599,6.325,6.3581,6.351,6.3835,6.4214,6.4674,6.4674,6.4674,6.4674,6.4674,6.4591,6.4451,6.4604,6.4674,6.4688,6.4854,6.4892,6.4892,6.4892,6.4974,6.5084,6.5084,6.5357,6.5741,0.0,0.0,0.0,0.0,0.0,0.0,0.0,0.0,0.0,0.0,0.0,0.0,0.0,0.0,0.0,0.0,0.0,0.0,0.0,0.0,4.9693,4.9693,4.9693,4.9693,4.9693,4.9693,4.9693,4.9693,4.9693,4.9693,4.9693,4.9693,4.9693,4.9693,4.9693,4.9693,4.9693,4.9693,4.9693,4.9693,4.9693,0.0,0.0,0.0,0.0,0.0,0.0,0.0,0.0,0.0,5.0826,5.0813,5.0913,5.1236,5.163,5.1717,5.1601,5.1369,5.0929,5.1149,5.141,5.1046,5.1784,5.2626,5.2714,5.3123,5.3487,5.3487,5.3487,5.3487,5.3487,5.3487,5.3487,5.3487,5.4068,5.4532,5.4619,5.5635,5.6419,5.6506,5.7565,5.8348,5.8435,5.951,6.0235,6.0322,6.0322,6.0584,6.1164,6.1761,6.2145,6.2234,6.2788,6.3223,6.3453,6.3453,6.3595,6.388,6.388,6.388,6.388,6.388,6.388,6.388,6.388,6.388,6.388,6.388,6.388,6.388,6.388,6.4019,6.4214,6.4214,6.4563,6.5022,0.0,0.0,0.0,0.0,0.0,0.0,0.0,0.0,0.0,0.0,4.9693,4.9693,0.0,0.0,0.0,0.0,0.0,0.0,0.0,0.0,0.0,4.9693,4.9693,4.9693,4.9693,4.9693,4.9693,4.9693,4.9693,4.9693,4.9693,4.9693,4.9693,4.9693,4.9693,4.9693,4.9693,4.9693,4.9693,4.9693,4.9693,0.0,0.0,0.0,0.0,0.0,0.0,0.0,0.0,0.0,5.1427,5.1543,5.2104,5.1975,5.1717,5.2265,5.1697,5.0929,5.134,5.1149,5.1075,5.2046,5.2436,5.2743,5.3239,5.3429,0.0,0.0,5.3487,5.3487,5.3487,5.3487,5.3487,5.3487,5.4068,5.4677,5.5171,5.5896,5.6607,0.0,5.7826,5.8523,5.9074,5.9771,0.0,6.099,6.1019,6.1077,6.1193,6.1761,6.2351,6.292,6.305,6.3122,6.318,6.318,6.3209,6.3266,6.3266,6.3266,6.3266,6.3266,6.3266,6.3266,6.3266,6.3266,6.3266,6.3266,6.3266,6.3266,6.3266,6.3295,6.3338,6.3338,6.3522,6.3793,0.0,0.0,0.0,0.0,0.0,0.0,0.0,4.9693,4.9693,4.9693,4.9693,4.9693,4.9693,4.9693,0.0,0.0,0.0,0.0,0.0,0.0,0.0,0.0,0.0,0.0,4.9693,4.9693,4.9693,4.9693,0.0,4.9693,4.9693,4.9693,4.9693,4.9693,4.9693,4.9693,4.9693,4.9693,4.9693,4.9693,4.9693,4.9693,0.0,0.0,0.0,0.0,0.0,0.0,0.0,0.0,5.2107,5.212,5.2078,5.2107,5.2062,5.1697,5.1174,5.0768,5.1046,5.1149,5.1381,5.2365,5.2846,5.3123,5.3429,0.0,0.0,0.0,5.3487,5.3487,5.3487,5.3487,5.3603,5.3952,5.4561,5.52,5.5838,5.6477,5.71,5.7739,5.8406,5.9074,5.9713,6.0351,6.0845,6.1164,6.1193,6.1193,6.1193,6.1761,6.241,6.3079,6.3108,6.3108,6.3108,6.3108,6.3108,6.3108,6.3422,6.3572,6.3572,6.3917,6.4096,6.4096,6.4096,6.4096,6.4096,6.4096,6.4096,6.4096,6.4096,6.4096,6.4096,6.4096,6.4286,6.4534,0.0,0.0,0.0,0.0,0.0,0.0,0.0,4.9693,4.9693,4.9693,4.9693,4.9693,4.9693,4.9693,4.9693,0.0,0.0,0.0,0.0,0.0,0.0,0.0,0.0,0.0,0.0,0.0,0.0,4.9693,4.9693,0.0,0.0,0.0,0.0,0.0,4.9693,4.9693,4.9693,4.9693,4.9693,0.0,0.0,4.9693,0.0,0.0,0.0,0.0,0.0,0.0,0.0,0.0,5.2597,5.2452,5.1672,5.1771,5.1987,5.1,5.071,5.0739,5.0842,5.1323,5.1962,5.2643,5.3152,5.3487,5.3487,5.3487,0.0,5.3487,5.3487,5.3487,5.3487,5.3487,5.372,5.4387,5.4996,5.5635,5.6302,5.6926,5.7565,5.8232,5.89,0.0,6.0148,6.0816,0.0,6.1193,6.1193,6.1253,6.1388,6.1997,6.2617,6.3258,6.3422,6.3512,6.3512,6.3512,6.3512,6.3512,6.3977,6.4216,6.4246,6.477,6.4994,6.4994,6.4994,6.4994,6.4994,6.4994,6.4994,6.4994,6.4994,6.4994,6.4994,6.4994,6.5158,6.535,0.0,0.0,0.0,0.0,0.0,0.0,0.0,4.9693,4.9693,4.9693,4.9693,4.9693,4.9693,4.9693,4.9693,0.0,0.0,0.0,0.0,0.0,0.0,0.0,0.0,0.0,0.0,0.0,0.0,4.9693,4.9693,0.0,0.0,0.0,0.0,0.0,0.0,4.9693,4.9693,4.9693,0.0,0.0,0.0,0.0,0.0,0.0,0.0,0.0,0.0,0.0,0.0,0.0,0.0,5.2394,5.1174,5.0826,5.0855,5.0739,0.0,0.0,5.1369,5.1991,5.2643,5.3255,5.3458,5.3487,5.3487,0.0,5.3487,5.3487,5.3487,5.3487,5.3487,5.3487,5.372,5.4387,0.0,5.5635,5.6302,5.6926,5.7565,5.8232,0.0,0.0,6.0148,6.0816,6.1193,6.1193,6.1193,6.1448,6.1983,6.2661,6.3283,6.3902,6.45,6.4829,6.4829,6.4829,6.4829,6.4829,6.4874,6.4904,6.4904,6.4964,6.4994,6.4994,6.4994,6.4994,6.4994,6.4994,6.4994,6.4994,6.4994,6.4994,6.4994,6.4994,6.5009,6.5039,0.0,0.0,0.0,0.0,0.0,0.0,4.9693,4.9693,4.9693,4.9693,4.9693,4.9693,4.9693,4.9693,4.9693,0.0,0.0,0.0,0.0,0.0,0.0,0.0,0.0,0.0,0.0,0.0,4.9693,4.9693,4.9693,0.0,0.0,0.0,0.0,0.0,0.0,4.9693,4.9693,4.9693,0.0,0.0,0.0,0.0,0.0,0.0,0.0,0.0,0.0,0.0,5.2597,5.2597,0.0,0.0,5.0855,5.0419,0.0,0.0,5.071,5.0913,5.1917,5.2394,5.2743,5.3342,5.3487,5.3487,5.3487,0.0,5.3487,5.3487,5.3487,5.3487,5.3487,5.3836,5.43,0.0,0.0,0.0,5.6868,5.7507,5.8145,5.8813,5.9451,6.009,6.0729,6.1048,6.1193,6.1193,6.1542,6.2032,6.2661,6.2956,6.358,6.4575,6.4845,6.4994,6.4994,6.4994,6.4994,6.4994,6.5428,6.5607,6.5607,6.6026,6.6191,6.6191,6.6191,6.6191,6.6191,6.6191,6.6191,6.6191,6.6191,6.6191,6.6191,6.6191,6.6191,6.6191,0.0,0.0,0.0,0.0,0.0,4.9693,4.9693,4.9693,4.9693,4.9693,4.9693,4.9693,4.9693,4.9693,4.9693,4.9693,4.9693,0.0,0.0,0.0,0.0,0.0,0.0,0.0,0.0,0.0,4.9693,4.9693,4.9693,4.9693,0.0,0.0,4.9693,4.9693,0.0,0.0,0.0,0.0,0.0,0.0,0.0,0.0,0.0,0.0,0.0,0.0,0.0,0.0,0.0,0.0,0.0,0.0,0.0,0.0,0.0,0.0,5.0813,5.122,5.2307,5.2743,5.2962,5.3371,5.3487,5.3487,0.0,0.0,5.3487,5.3487,5.3487,5.3487,5.3487,5.4039,5.4706,0.0,0.0,5.6593,5.7216,5.7884,5.8552,5.9219,5.9829,6.0467,6.1135,6.1193,6.128,6.1454,6.1861,6.2557,6.3604,6.3664,6.4157,6.5248,6.5488,6.5577,6.5577,6.5577,6.5577,6.5607,6.6056,6.6311,6.6311,6.6789,6.7014,6.7014,6.7014,6.7014,6.7014,6.7014,6.7014,6.7014,6.7014,6.7014,6.7014,6.7014,6.7014,6.7014,0.0,0.0,0.0,0.0,0.0,0.0,4.9693,4.9693,4.9693,4.9693,4.9693,4.9693,4.9693,4.9693,4.9693,4.9693,4.9693,0.0,0.0,0.0,0.0,0.0,0.0,0.0,0.0,0.0,4.9693,4.9693,4.9693,4.9693,4.9693,4.9693,4.9693,4.9693,0.0,0.0,0.0,0.0,0.0,0.0,0.0,0.0,0.0,0.0,0.0,0.0,0.0,0.0,0.0,0.0,0.0,0.0,0.0,4.9722,4.9838,5.0506,5.112,5.1746,5.2423,5.3049,5.3487,5.3487,5.3487,5.3487,0.0,5.3487,5.3487,5.3487,5.3487,5.3487,5.3487,5.4039,5.4706,0.0,0.0,0.0,5.7216,5.7884,5.8552,5.9219,5.9829,6.0467,6.1135,6.1193,6.1454,6.205,6.2093,6.2936,6.4886,6.4976,6.5297,6.5981,6.664,6.6984,6.6984,6.6984,6.6984,6.6984,6.6984,6.6984,6.6984,6.7014,6.7014,6.7014,6.7014,6.7014,6.7014,6.7014,6.7014,6.7014,6.7014,6.7014,6.7014,6.7014,6.7014,6.7014,0.0,0.0,0.0,0.0,0.0,0.0,0.0,4.9693,4.9693,4.9693,4.9693,4.9693,4.9693,4.9693,4.9693,4.9693,4.9693,0.0,0.0,0.0,0.0,0.0,0.0,0.0,0.0,0.0,4.9693,4.9693,4.9693,4.9693,4.9693,4.9693,4.9693,4.9693,4.9693,4.9693,0.0,0.0,0.0,0.0,0.0,0.0,0.0,0.0,0.0,0.0,0.0,0.0,0.0,0.0,0.0,0.0,0.0,0.0,0.0,5.112,5.1456,5.1833,5.292,5.3342,5.3487,5.3487,5.3487,5.3487,5.3487,5.3487,5.3487,5.3487,5.3487,5.3632,5.4097,5.4677,5.5316,5.5983,0.0,0.0,5.7884,5.8552,5.9219,5.9829,6.0496,6.0961,6.1164,6.1571,6.189,6.2108,6.289,6.3774,6.4605,6.5307,6.5978,6.6654,6.6894,6.7014,6.7014,6.7014,6.7014,6.7014,6.7014,6.7014,6.7014,6.7014,6.7014,6.7014,6.7014,6.7014,6.7014,6.7014,6.7014,6.7014,6.7014,6.7014,6.7014,6.7014,6.7014,6.7014,0.0,0.0,0.0,0.0,0.0,0.0,0.0,4.9693,4.9693,4.9693,4.9693,4.9693,4.9693,4.9693,4.9693,4.9693,4.9693,0.0,0.0,0.0,0.0,0.0,0.0,0.0,0.0,4.9693,4.9693,4.9693,4.9693,4.9693,4.9693,4.9693,4.9693,4.9693,4.9693,4.9693,0.0,0.0,0.0,0.0,0.0,0.0,4.9838,0.0,0.0,0.0,0.0,0.0,0.0,0.0,0.0,0.0,0.0,0.0,0.0,0.0,5.1775,5.2194,5.3226,5.3487,5.3487,5.3487,5.3487,5.3487,5.3487,5.3487,5.3487,5.3487,5.3691,5.401,5.4416,5.52,5.5896,5.6332,5.6926,5.7536,5.8203,5.8871,5.9626,6.0467,6.0932,6.1193,6.1193,6.1745,6.218,6.2457,6.3413,6.4298,6.5046,6.5647,6.6304,6.6983,6.7014,6.7014,6.7014,6.7014,6.7014,6.7014,6.7014,6.7014,6.7014,6.7014,6.7014,6.7014,6.7014,6.7014,0.0,6.7014,6.7014,6.7014,6.7014,6.7014,6.7014,6.7014,6.7014,6.7014,0.0,0.0,0.0,0.0,0.0,0.0,0.0,4.9693,4.9693,4.9693,4.9693,4.9693,4.9693,4.9693,4.9693,4.9693,0.0,0.0,0.0,0.0,0.0,0.0,0.0,0.0,4.9693,4.9693,4.9693,4.9693,4.9693,4.9693,4.9693,4.9693,4.9693,4.9693,4.9693,4.9693,4.9693,0.0,0.0,0.0,4.9693,4.9722,0.0,0.0,0.0,0.0,0.0,0.0,0.0,0.0,0.0,0.0,0.0,0.0,0.0,0.0,0.0,0.0,0.0,5.3487,5.3487,5.3487,5.3487,5.3487,5.3487,5.3487,0.0,5.3574,5.4068,5.4532,5.4619,5.5606,5.6419,5.6461,5.6984,5.7623,5.829,5.8987,5.9858,6.1048,6.1193,6.1222,6.1251,6.1803,6.2457,6.3109,6.3732,6.4625,6.59,6.5992,6.6304,6.6953,6.6999,6.7014,6.7014,6.7014,6.7014,6.7014,6.7014,6.7014,6.7014,6.7014,6.7014,6.7014,6.7014,6.7014,6.7014,6.7014,6.7014,6.7014,6.7014,6.7014,6.7014,6.7014,6.7014,6.7014,0.0,0.0,0.0,0.0,0.0,0.0,0.0,0.0,0.0,0.0,4.9693,4.9693,4.9693,4.9693,4.9693,0.0,0.0,0.0,0.0,0.0,0.0,0.0,0.0,0.0,4.9693,4.9693,4.9693,4.9693,4.9693,4.9693,4.9693,4.9693,4.9693,4.9693,4.9693,4.9693,4.9693,4.9693,0.0,0.0,4.9693,5.0013,0.0,0.0,0.0,0.0,5.1775,5.1439,0.0,0.0,0.0,0.0,0.0,0.0,0.0,0.0,5.2804,5.3326,5.3458,0.0,5.3487,5.3487,5.3487,5.3487,0.0,5.3487,5.3661,0.0,0.0,5.4793,5.578,5.6186,5.6549,5.6999,5.7652,5.829,5.8958,6.0032,6.0874,6.1164,6.1193,6.1367,6.1832,6.2486,6.3109,6.3745,6.44,6.5012,6.5585,6.5866,6.6195,6.6614,6.6876,6.7014,6.7014,6.7014,6.7014,6.7014,6.7014,6.7014,6.7014,6.7014,6.7014,6.7014,6.7014,6.7014,6.7014,6.7014,6.7014,6.7014,6.7014,6.7014,6.7014,6.7014,6.7014,6.7014,0.0,0.0,0.0,0.0,0.0,0.0,0.0,0.0,0.0,0.0,0.0,0.0,0.0,0.0,0.0,0.0,0.0,0.0,0.0,0.0,0.0,0.0,0.0,4.9693,4.9693,4.9693,4.9693,4.9693,4.9693,4.9693,4.9693,4.9693,4.9693,4.9693,4.9693,4.9693,4.9693,4.9693,4.9693,4.9693,4.9693,0.0,0.0,0.0,0.0,0.0,5.1588,5.1207,0.0,4.9925,4.9693,4.9809,0.0,0.0,0.0,0.0,5.302,5.3487,5.3487,5.3487,5.3487,5.3487,5.3487,5.3487,5.3487,5.3749,0.0,0.0,0.0,5.5577,5.6273,5.6636,5.6926,5.7245,5.7855,5.8639,5.9568,6.0816,6.1513,6.1222,6.1425,6.1745,6.2079,6.2703,6.3341,6.3949,6.4619,6.5219,6.568,6.5898,6.6226,6.6722,6.6922,6.7014,6.7014,6.7014,6.7014,6.7014,6.7014,6.7014,6.7014,6.7014,6.7014,6.7014,6.7014,6.7014,6.7014,6.7014,6.7014,6.7014,6.7014,6.7014,6.7014,6.7014,6.7014,6.7014,0.0,0.0,0.0,0.0,0.0,0.0,0.0,0.0,0.0,0.0,0.0,0.0,0.0,0.0,0.0,0.0,0.0,0.0,0.0,0.0,0.0,0.0,4.9693,4.9693,4.9693,4.9693,4.9693,4.9693,4.9693,4.9693,4.9693,4.9693,4.9693,4.9693,4.9693,4.9693,4.9693,4.9693,4.9693,4.9693,4.9693,0.0,0.0,0.0,0.0,0.0,0.0,0.0,0.0,4.9896,4.9693,4.9838,5.0593,0.0,0.0,0.0,0.0,0.0,5.3487,5.3487,5.3487,5.3487,5.3487,5.3487,5.3487,5.401,0.0,0.0,0.0,5.6419,5.6506,5.6955,0.0,5.7448,5.8087,5.9016,6.0177,6.128,6.1774,6.1251,6.1716,6.2122,6.2238,6.2848,6.3486,6.4094,6.4677,6.5298,6.596,6.5992,6.6304,6.6983,6.7014,6.7014,6.7014,6.7014,6.7014,6.7014,6.7014,6.7014,6.7014,6.7014,6.7014,6.7014,6.7014,6.7014,6.7014,6.7014,6.7014,6.7014,6.7014,6.7014,6.7014,6.7014,6.7014,6.7014,0.0,0.0,0.0,0.0,0.0,0.0,0.0,0.0,0.0,0.0,0.0,0.0,0.0,0.0,0.0,0.0,0.0,0.0,0.0,0.0,0.0,4.9693,4.9693,4.9693,4.9693,4.9693,4.9693,4.9693,4.9693,4.9693,4.9693,4.9693,4.9693,4.9693,4.9693,4.9693,4.9693,4.9693,4.9693,4.9693,4.9693,0.0,0.0,0.0,0.0,0.0,0.0,0.0,0.0,4.9722,4.9693,4.9896,5.1091,0.0,0.0,0.0,0.0,0.0,5.3487,5.3487,5.3487,5.3487,5.3487,5.3487,5.3487,5.401,5.4648,0.0,0.0,5.6578,5.7071,5.7245,5.7507,5.8058,5.9132,6.0177,6.0932,6.1222,6.1309,6.1222,6.1716,6.2325,6.2892,6.35,6.4138,6.4793,6.4954,6.5298,6.596,6.5992,6.6304,6.6983,6.7014,6.7014,6.7014,6.7014,6.7014,6.7014,6.7014,6.7014,6.7014,6.7014,6.7014,6.7014,6.7014,6.7014,6.7014,6.7014,6.7014,6.7014,6.7014,6.7014,6.7014,6.7014,6.7014,6.7014,0.0,0.0,0.0,0.0,0.0,0.0,0.0,0.0,0.0,0.0,0.0,0.0,0.0,0.0,0.0,0.0,0.0,0.0,0.0,0.0,4.9693,4.9693,4.9693,4.9693,4.9693,4.9693,4.9693,4.9693,4.9693,4.9693,4.9693,4.9693,4.9693,4.9693,4.9693,4.9693,4.9693,4.9693,4.9693,4.9693,0.0,0.0,0.0,0.0,0.0,0.0,0.0,0.0,0.0,0.0,4.9693,4.9925,5.1195,0.0,0.0,0.0,0.0,0.0,5.3487,5.3487,5.3487,5.3487,5.3487,5.3603,5.3952,5.4532,0.0,0.0,0.0,5.6984,5.7245,5.7594,5.8174,5.9161,5.9829,6.0438,6.1106,6.1483,6.1586,6.1222,6.2035,6.2761,6.3067,6.3645,6.4284,6.4954,6.5012,6.5298,6.596,6.5992,6.6304,6.6983,6.7014,6.7014,6.7014,6.7014,6.7014,6.7014,6.7014,6.7014,6.7014,6.7014,6.7014,6.7014,6.7014,6.7014,6.7014,6.7014,6.7014,6.7014,6.7014,6.7014,6.7014,6.7014,6.7014,6.7014,0.0,0.0,0.0,0.0,0.0,0.0,0.0,0.0,0.0,0.0,0.0,0.0,0.0,0.0,0.0,0.0,0.0,0.0,0.0,0.0,4.9693,4.9693,4.9693,4.9693,4.9693,4.9693,4.9693,4.9693,4.9693,4.9693,4.9693,4.9693,4.9693,4.9693,4.9693,4.9693,4.9693,4.9693,4.9693,4.9693,0.0,0.0,0.0,0.0,0.0,0.0,0.0,0.0,0.0,0.0,0.0,0.0,0.0,0.0,0.0,5.3168,5.3603,5.3691,5.3545,5.3603,5.372,5.372,5.372,5.3865,5.4387,5.5084,0.0,0.0,0.0,0.0,5.7303,5.7971,5.89,6.0032,6.0322,6.0613,6.1135,6.16,6.1716,6.1251,6.2325,6.308,6.308,6.379,6.4458,6.4954,6.5012,6.5298,6.596,6.5992,6.6304,6.6983,6.7014,6.7014,6.7014,6.7014,6.7014,6.7014,6.7014,6.7014,6.7014,6.7014,6.7014,6.7014,6.7014,6.7014,6.7014,6.7014,6.7014,6.7014,6.7014,6.7014,6.7014,6.7014,6.7014,6.7014,0.0,0.0,0.0,0.0,0.0,0.0,0.0,0.0,0.0,0.0,0.0,0.0,0.0,0.0,0.0,0.0,0.0,0.0,0.0,0.0,4.9693,4.9693,4.9693,4.9693,4.9693,4.9693,4.9693,4.9693,4.9693,4.9693,4.9693,4.9693,4.9693,4.9693,4.9693,4.9693,4.9693,4.9693,4.9693,4.9693,4.9693,0.0,0.0,0.0,0.0,0.0,0.0,0.0,0.0,0.0,0.0,0.0,0.0,0.0,5.2655,5.3326,5.3952,5.43,5.3661,5.3952,5.4445,5.4445,5.4445,0.0,5.4503,5.5461,0.0,5.639,0.0,0.0,0.0,5.8348,5.9451,6.009,6.0729,6.1135,6.1193,6.1222,6.1251,6.1193,6.2325,6.308,6.308,6.4212,6.4954,6.5012,6.5012,6.5298,6.596,6.5992,6.6304,6.6983,6.7014,6.7014,6.7014,6.7014,6.7014,6.7014,6.7014,6.7014,6.7014,6.7014,6.7014,6.7014,6.7014,6.7014,6.7014,6.7014,6.7014,6.7014,6.7014,6.7014,6.7014,6.7014,6.7014,6.7014,0.0,0.0,0.0,0.0,0.0,0.0,0.0,0.0,0.0,0.0,0.0,0.0,0.0,0.0,0.0,0.0,0.0,0.0,0.0,4.9693,4.9693,4.9693,4.9693,4.9693,4.9693,4.9693,4.9693,4.9693,4.9693,4.9693,4.9693,4.9693,4.9693,4.9693,4.9693,4.9693,4.9693,4.9693,4.9693,4.9693,4.9693,4.9693,0.0,0.0,0.0,0.0,0.0,0.0,0.0,0.0,5.0477,5.0884,5.1888,5.2394,5.2801,5.382,5.401,5.3923,5.4068,5.43,5.4503,5.4503,5.5084,0.0,0.0,5.6041,5.652,5.6883,5.7158,0.0,0.0,5.9248,6.0061,6.0729,6.1019,6.1193,6.1193,6.1193,6.1338,6.1716,6.2558,6.3254,6.3616,6.4473,6.5012,6.5012,6.5012,6.5298,6.596,6.5992,6.6304,6.6983,6.7014,6.7014,6.7014,6.7014,6.7014,6.7014,6.7014,6.7014,6.7014,6.7014,6.7014,6.7014,6.7014,6.7014,6.7014,6.7014,6.7014,6.7014,6.7014,6.7014,6.7014,6.7014,6.7014,6.7014,0.0,0.0,0.0,0.0,0.0,0.0,0.0,0.0,0.0,0.0,0.0,0.0,0.0,0.0,0.0,0.0,0.0,0.0,4.9693,4.9693,4.9693,4.9693,4.9693,4.9693,4.9693,4.9693,4.9693,4.9693,4.9693,4.9693,4.9693,4.9693,4.9693,4.9693,4.9693,4.9693,4.9693,4.9693,4.9693,4.9693,4.9693,4.9693,0.0,0.0,0.0,0.0,0.0,0.0,0.0,0.0,5.0971,5.1436,5.2349,5.2888,5.3339,5.3981,5.4155,5.4097,5.4155,5.4474,5.4793,5.4793,0.0,0.0,5.6636,5.668,5.6796,5.7216,5.7477,0.0,5.9335,0.0,0.0,6.1077,6.1193,6.1193,6.1193,6.1193,6.1425,6.2035,6.2689,6.3341,6.3949,6.4619,6.5012,6.5012,6.5012,6.5298,6.596,6.5992,6.6304,6.6983,6.7014,6.7014,6.7014,6.7014,6.7014,6.7014,6.7014,6.7014,6.7014,6.7014,6.7014,6.7014,6.7014,6.7014,6.7014,6.7014,6.7014,6.7014,6.7014,6.7014,6.7014,6.7014,6.7014,6.7014,0.0,0.0,0.0,0.0,0.0,0.0,0.0,0.0,0.0,0.0,0.0,0.0,0.0,0.0,0.0,0.0,0.0,0.0,4.9693,4.9693,4.9693,4.9693,4.9693,4.9693,4.9693,4.9693,4.9693,4.9693,4.9693,4.9693,4.9693,4.9693,4.9693,4.9693,4.9693,4.9693,4.9693,4.9693,4.9693,4.9693,4.9693,4.9693,4.9693,0.0,0.0,0.0,0.0,0.0,0.0,0.0,5.1552,5.2597,5.2597,5.3485,5.4358,5.372,5.4387,5.5113,5.3865,5.4445,5.5403,5.5403,0.0,0.0,5.7158,5.7303,5.7303,5.7303,5.7855,5.8697,5.9974,6.0206,0.0,6.1077,6.1193,6.1193,6.1193,6.1193,6.1425,6.205,6.2703,6.3341,6.3949,6.4619,6.5012,6.5012,6.5012,6.5298,6.596,6.5992,6.6304,6.6983,6.7014,6.7014,6.7014,6.7014,6.7014,6.7014,6.7014,6.7014,6.7014,6.7014,6.7014,6.7014,6.7014,6.7014,6.7014,6.7014,6.7014,6.7014,6.7014,6.7014,6.7014,6.7014,6.7014,6.7014,0.0,0.0,0.0,0.0,0.0,0.0,0.0,0.0,0.0,0.0,0.0,0.0,0.0,0.0,0.0,0.0,0.0,0.0,4.9693,4.9693,4.9693,4.9693,4.9693,4.9693,4.9693,4.9693,4.9693,4.9693,4.9693,4.9693,4.9693,4.9693,4.9693,4.9693,4.9693,4.9693,4.9693,4.9693,4.9693,4.9693,4.9693,4.9693,4.9693,0.0,0.0,0.0,0.0,0.0,0.0,0.0,0.0,0.0,5.3646,5.3865,5.3923,5.4619,5.4474,5.4184,5.4706,5.5113,5.5519,5.5983,5.6564,5.7071,0.0,5.7303,0.0,0.0,5.8871,5.9742,6.0119,6.0584,0.0,6.1164,6.1193,6.1193,6.1193,6.1586,6.2064,6.2747,6.3355,6.3993,6.4648,6.488,6.5012,6.5012,6.5012,6.5298,6.596,6.5992,6.6304,6.6983,6.7014,6.7014,6.7014,6.7014,6.7014,6.7014,6.7014,6.7014,6.7014,6.7014,6.7014,6.7014,6.7014,6.7014,6.7014,6.7014,6.7014,6.7014,6.7014,6.7014,6.7014,6.7014,6.7014,6.7014,0.0,0.0,0.0,0.0,0.0,0.0,0.0,0.0,0.0,0.0,4.9693,4.9693,0.0,0.0,0.0,0.0,0.0,0.0,0.0,4.9693,4.9693,4.9693,4.9693,4.9693,4.9693,4.9693,4.9693,4.9693,4.9693,4.9693,4.9693,4.9693,4.9693,4.9693,4.9693,4.9693,4.9693,4.9693,4.9693,4.9693,4.9693,4.9867,5.01,0.0,0.0,0.0,0.0,0.0,0.0,0.0,0.0,0.0,5.3865,5.401,5.401,5.4503,5.4445,5.4358,5.4909,5.5403,5.5896,5.6302,5.6868,5.7361,5.7652,5.771,0.0,0.0,5.951,6.0264,6.0555,6.0932,6.1193,6.1193,6.1193,6.1193,6.1193,6.1716,6.2341,6.3022,6.3645,6.4239,6.4909,6.5012,6.5012,6.5012,6.5012,6.5298,6.596,6.5992,6.6304,6.6983,6.7014,6.7014,6.7014,6.7014,6.7014,6.7014,6.7014,6.7014,6.7014,6.7014,6.7014,6.7014,6.7014,6.7014,6.7014,6.7014,6.7014,6.7014,6.7014,6.7014,6.7014,6.7014,6.7014,6.7014,0.0,0.0,4.9693,4.9693,0.0,0.0,0.0,0.0,0.0,0.0,4.9693,4.9693,0.0,0.0,0.0,0.0,0.0,0.0,0.0,4.9693,4.9693,4.9693,4.9693,4.9693,4.9693,4.9693,4.9693,4.9693,4.9693,4.9693,4.9693,4.9693,4.9693,4.9693,4.9693,4.9693,4.9693,4.978,4.978,4.9809,4.9838,5.0245,5.0797,5.0797,0.0,0.0,0.0,0.0,0.0,0.0,0.0,0.0,5.3574,5.3981,5.43,5.3836,5.4445,5.5229,5.4793,5.5519,5.6419,5.6477,5.6883,5.7477,5.8145,5.8348,5.8581,5.9248,5.9858,6.0467,6.1077,6.1193,6.1193,6.1193,6.1193,6.1193,6.1193,6.1774,6.2412,6.3037,6.3703,6.4342,6.4954,6.5012,6.5012,6.5012,6.5044,6.533,6.596,6.6023,6.6335,6.6983,6.7014,6.7014,6.7014,6.7014,6.7014,6.7014,6.7014,6.7014,6.7014,6.7014,6.7014,6.7014,6.7014,6.7014,6.7014,6.7014,6.7014,6.7014,6.7014,6.7014,6.7014,6.7014,6.7014,6.7014,0.0,0.0,4.9693,4.9693,0.0,0.0,0.0,0.0,0.0,0.0,0.0,0.0,0.0,0.0,0.0,0.0,0.0,0.0,0.0,4.9693,4.9693,4.9693,4.9693,4.9693,4.9693,4.9693,4.9693,4.9693,4.9693,4.9693,4.9693,4.9693,4.9693,4.9693,4.9693,4.9693,4.9722,5.0274,5.0477,5.0535,5.1004,5.1282,5.1398,5.1398,5.1817,0.0,0.0,0.0,0.0,0.0,0.0,0.0,5.4126,5.401,5.3894,5.4735,5.4851,5.488,5.5765,5.6186,5.6506,5.6984,5.7216,5.7477,5.8145,5.8726,5.9248,5.9887,6.0526,6.1019,6.1164,6.1193,6.1193,6.1193,6.1193,6.1193,6.1193,6.218,6.295,6.3096,6.4112,6.4822,6.4983,6.5012,6.5012,6.5012,6.5237,6.5554,6.5976,6.6257,6.6583,6.6999,6.7014,6.7014,6.7014,6.7014,6.7014,6.7014,6.7014,6.7014,6.7014,6.7014,6.7014,6.7014,6.7014,6.7014,6.7014,6.7014,6.7014,6.7014,6.7014,6.7014,6.7014,6.7014,6.7014,6.7014,0.0,0.0,0.0,0.0,0.0,0.0,0.0,0.0,0.0,0.0,0.0,0.0,0.0,0.0,0.0,0.0,0.0,0.0,0.0,0.0,4.9693,4.9693,4.9693,4.9693,4.9693,4.9693,4.9693,4.9693,4.9693,4.9693,4.9693,4.9693,4.9693,4.9722,5.0042,5.0187,5.0216,5.0871,5.112,5.1149,5.1456,5.1775,5.2091,5.2091,5.2497,5.302,5.302,0.0,0.0,0.0,0.0,0.0,0.0,0.0,5.4097,5.4764,5.5171,5.5548,5.6215,5.6593,5.6926,5.7216,5.7536,5.7942,5.8639,5.9277,5.9916,6.0555,6.0961,6.1193,6.1193,6.1193,6.1193,6.1193,6.1193,6.1309,6.16,6.2486,6.3196,6.35,6.4386,6.5012,6.5012,6.5012,6.5012,6.5012,6.5301,6.5633,6.5976,6.6319,6.666,6.6999,6.7014,6.7014,6.7014,6.7014,6.7014,6.7014,6.7014,6.7014,6.7014,6.7014,6.7014,6.7014,6.7014,6.7014,6.7014,6.7014,6.7014,6.7014,6.7014,6.7014,6.7014,6.7014,6.7014,6.7014,0.0,0.0,0.0,0.0,0.0,0.0,0.0,0.0,0.0,0.0,0.0,0.0,0.0,0.0,0.0,0.0,0.0,0.0,0.0,0.0,0.0,4.9693,4.9693,4.9693,4.9693,4.9809,4.9867,4.9867,4.9983,5.0042,0.0,4.9925,4.9925,5.0058,5.0622,5.0842,5.0913,5.1527,5.1775,5.1775,5.1891,5.2252,5.2772,5.2772,5.3078,5.3487,5.3487,5.3487,5.3487,5.3487,0.0,0.0,0.0,0.0,5.4677,5.4793,5.5577,5.6419,5.6549,5.6926,5.7332,5.7448,5.7884,5.8493,5.9277,5.9829,6.038,6.1048,6.1193,6.1193,6.1193,6.1193,6.1193,6.1193,6.1193,6.1396,6.2021,6.2689,6.3312,6.392,6.459,6.5012,6.5012,6.5012,6.5028,6.5063,6.5396,6.5711,6.607,6.6413,6.6722,6.6999,6.7014,6.7014,6.7014,6.7014,6.7014,6.7014,6.7014,6.7014,6.7014,6.7014,6.7014,6.7014,6.7014,6.7014,6.7014,6.7014,6.7014,6.7014,6.7014,6.7014,6.7014,6.7014,6.7014,6.7014,0.0,0.0,0.0,0.0,0.0,0.0,0.0,0.0,0.0,0.0,4.9693,4.9693,0.0,4.9693,4.9693,4.9693,4.9693,4.9693,4.9693,0.0,0.0,4.9693,4.9693,4.9693,4.9693,5.0274,5.0564,5.0564,5.1091,0.0,0.0,0.0,0.0,5.134,5.1427,5.1485,5.1514,5.2178,5.2481,5.251,5.3036,5.3313,5.3371,5.3371,5.3429,5.3487,5.3487,5.3487,5.3487,5.3487,5.3894,0.0,0.0,0.0,5.5403,5.5983,5.6273,5.6506,5.7042,5.7245,5.7448,5.8029,5.8232,5.861,5.98,6.0148,6.038,6.1048,6.1193,6.1193,6.1193,6.1193,6.1193,6.1193,6.1193,6.1396,6.2021,6.2689,6.3312,6.392,6.459,6.5012,6.5012,6.5012,6.5139,6.5412,6.5756,6.6086,6.6428,6.6753,6.6953,6.7014,6.7014,6.7014,6.7014,6.7014,6.7014,6.7014,6.7014,6.7014,6.7014,6.7014,6.7014,6.7014,6.7014,6.7014,6.7014,6.7014,6.7014,6.7014,6.7014,6.7014,6.7014,6.7014,6.7014,6.7014,0.0,0.0,0.0,0.0,0.0,0.0,0.0,0.0,0.0,0.0,0.0,4.9693,4.9693,4.9693,4.9693,4.9693,4.9693,4.9693,4.9693,4.9693,4.9693,4.9693,5.0071,5.0245,5.0245,5.0888,5.1207,5.1207,0.0,0.0,0.0,5.19,5.1713,0.0,0.0,0.0,5.2194,5.2846,5.3094,5.3123,5.3371,5.3487,5.3487,5.3487,0.0,0.0,0.0,0.0,0.0,0.0,0.0,5.4996,5.4996,0.0,0.0,0.0,5.6636,5.6955,5.7245,5.7303,5.7448,5.8145,5.8581,5.9103,6.0003,6.0496,6.0845,6.1135,6.1193,6.1309,6.1629,6.1425,6.1309,6.1658,6.1425,6.1542,6.2499,6.2906,6.3457,6.4429,6.4822,6.5012,6.5012,6.5012,6.5126,6.5475,6.5819,6.6148,6.649,6.683,6.7014,6.7014,6.7014,6.7014,6.7014,6.7014,6.7014,6.7014,6.7014,6.7014,6.7014,6.7014,6.7014,6.7014,6.7014,6.7014,6.7014,6.7014,6.7014,6.7014,6.7014,6.7014,6.7014,6.7014,6.7014,6.7014,0.0,0.0,0.0,0.0,0.0,0.0,0.0,0.0,0.0,0.0,0.0,4.9693,4.9693,0.0,0.0,0.0,4.9693,4.978,4.9954,4.9954,5.0013,5.0174,5.0668,5.0929,5.0929,5.1527,5.1833,5.1833,0.0,0.0,5.2817,5.2817,5.2572,0.0,5.2614,0.0,0.0,0.0,0.0,0.0,5.3487,5.3603,5.3749,0.0,0.0,0.0,0.0,0.0,0.0,0.0,0.0,0.0,0.0,5.6099,0.0,0.0,0.0,5.7303,5.7303,5.7419,5.771,5.8406,5.9045,5.9684,6.0322,6.0845,6.1193,6.1193,6.1309,6.16,6.2238,6.1716,6.1396,6.2006,6.16,6.1629,6.2906,6.308,6.3589,6.4838,6.5012,6.5012,6.5012,6.5012,6.5187,6.5585,6.5866,6.6179,6.6614,6.6876,6.7014,6.7014,6.7014,6.7014,6.7014,6.7014,6.7014,6.7014,6.7014,6.7014,6.7014,6.7014,6.7014,6.7014,6.7014,6.7014,6.7014,6.7014,6.7014,6.7014,6.7014,6.7014,6.7014,6.7014,6.7014,6.7014,0.0,0.0,0.0,0.0,0.0,0.0,0.0,0.0,0.0,0.0,0.0,4.9693,4.9693,4.9693,4.9693,4.9693,4.9693,4.9954,5.0622,5.0651,5.09,5.1485,5.153,0.0,5.1543,5.2207,5.2539,0.0,0.0,0.0,5.3458,5.3458,5.3429,5.34,5.3429,5.3458,5.3458,0.0,0.0,0.0,0.0,0.0,0.0,0.0,0.0,0.0,0.0,0.0,0.0,0.0,0.0,0.0,0.0,0.0,0.0,0.0,0.0,0.0,5.7303,5.7768,5.8406,5.9074,5.9713,6.0322,6.099,6.1164,6.1193,6.1193,6.1673,6.2254,6.2921,6.2035,6.1396,6.2006,6.16,6.1629,6.2906,6.308,6.3589,6.4838,6.5012,6.5012,6.5012,6.5012,6.5282,6.5913,6.5992,6.6288,6.6953,6.6999,6.7014,6.7014,6.7014,6.7014,6.7014,6.7014,6.7014,6.7014,6.7014,6.7014,6.7014,6.7014,6.7014,6.7014,6.7014,6.7014,6.7014,6.7014,6.7014,6.7014,6.7014,6.7014,6.7014,6.7014,6.7014,6.7014,0.0,0.0,0.0,0.0,0.0,0.0,0.0,0.0,0.0,0.0,0.0,0.0,0.0,4.9693,4.9693,4.9693,5.01,5.0622,5.1236,5.1294,5.1369,5.1601,5.202,5.2236,5.2236,5.2875,0.0,0.0,0.0,5.3487,5.3487,5.3487,5.372,5.4126,5.3691,5.3749,5.4155,5.4155,0.0,0.0,0.0,0.0,0.0,0.0,0.0,0.0,0.0,0.0,0.0,0.0,0.0,0.0,0.0,0.0,0.0,0.0,5.7303,5.7303,5.7303,5.7797,5.8464,5.9132,5.9742,6.038,6.1048,6.1193,6.1193,6.1193,6.1687,6.2296,6.2979,6.2399,6.1992,6.2631,6.1861,6.1629,6.2906,6.308,6.3589,6.4838,6.5012,6.5012,6.5012,6.5012,6.5282,6.5945,6.5992,6.6288,6.6968,6.7014,6.7014,6.7014,6.7014,6.7014,6.7014,6.7014,6.7014,6.7014,6.7014,6.7014,6.7014,6.7014,6.7014,6.7014,6.7014,6.7014,6.7014,6.7014,6.7014,6.7014,6.7014,6.7014,6.7014,6.7014,6.7014,6.7014,0.0,0.0,0.0,0.0,0.0,4.9693,0.0,0.0,0.0,0.0,0.0,0.0,0.0,0.0,5.0129,5.032,5.0755,5.1278,5.1904,5.1933,5.2049,5.2239,5.2659,5.2904,5.2904,5.3297,0.0,0.0,0.0,0.0,0.0,5.372,5.4068,5.4503,5.4242,5.4387,0.0,0.0,0.0,5.5403,0.0,0.0,5.5736,0.0,0.0,0.0,0.0,0.0,0.0,0.0,0.0,0.0,0.0,0.0,0.0,0.0,0.0,0.0,5.7565,5.8116,5.8784,5.9451,6.0061,6.0642,6.1106,6.1193,6.1251,6.1454,6.2006,6.2616,6.3283,6.2877,6.2573,6.3037,6.2035,6.1629,6.2906,6.308,6.3589,6.4838,6.5012,6.5012,6.5012,6.5012,6.5282,6.5945,6.5992,6.6288,6.6968,6.7014,6.7014,6.7014,6.7014,6.7014,6.7014,6.7014,6.7014,6.7014,6.7014,6.7014,6.7014,6.7014,6.7014,6.7014,6.7014,6.7014,6.7014,6.7014,6.7014,6.7014,6.7014,6.7014,6.7014,6.7014,6.7014,6.7014,0.0,4.9693,4.9693,4.9693,4.9693,4.9693,4.9693,0.0,0.0,0.0,0.0,0.0,0.0,0.0,0.0,5.1572,5.163,5.1904,5.2568,5.2626,5.2875,5.3458,5.3487,5.3487,5.3487,0.0,0.0,0.0,0.0,0.0,0.0,0.0,5.4532,5.459,5.5171,5.5432,5.5461,0.0,5.5432,5.5474,0.0,5.5852,5.6432,0.0,0.0,0.0,5.7303,5.7303,0.0,0.0,0.0,0.0,0.0,0.0,0.0,0.0,0.0,0.0,0.0,0.0,0.0,6.0061,6.07,6.1193,6.1193,6.1193,6.1367,6.1992,6.2616,6.3283,6.3891,6.35,6.308,6.308,6.2035,6.1629,6.2906,6.308,6.3589,6.4838,6.5012,6.5012,6.5012,6.5012,6.5282,6.5945,6.5992,6.6288,6.6968,6.7014,6.7014,6.7014,6.7014,6.7014,6.7014,6.7014,6.7014,6.7014,6.7014,6.7014,6.7014,6.7014,6.7014,6.7014,6.7014,6.7014,6.7014,6.7014,6.7014,6.7014,6.7014,6.7014,6.7014,6.7014,6.7014,6.7014,4.9693,4.9693,4.9693,4.9693,4.9693,4.9693,4.9693,0.0,0.0,0.0,0.0,0.0,0.0,5.134,5.1614,5.2265,5.2323,5.2584,5.321,5.3239,5.3326,5.3487,5.3487,5.3487,5.3487,0.0,0.0,0.0,0.0,5.4213,5.4242,5.4851,0.0,0.0,5.6055,5.6361,5.6752,5.6302,0.0,0.0,5.6767,5.6897,0.0,0.0,0.0,0.0,0.0,5.7303,0.0,0.0,5.7303,5.7303,0.0,0.0,0.0,0.0,0.0,0.0,5.8842,0.0,0.0,0.0,0.0,0.0,6.1193,6.1193,6.1367,6.1992,6.2616,6.3283,6.3891,6.35,6.308,6.308,6.2035,6.1629,6.2906,6.308,6.3589,6.4838,6.5012,6.5012,6.5012,6.5012,6.5282,6.5945,6.5992,6.6288,6.6968,6.7014,6.7014,6.7014,6.7014,6.7014,6.7014,6.7014,6.7014,6.7014,6.7014,6.7014,6.7014,6.7014,6.7014,6.7014,6.7014,6.7014,6.7014,6.7014,6.7014,6.7014,6.7014,6.7014,6.7014,6.7014,6.7014,6.7014,4.9693,4.9693,4.978,5.0071,5.0129,5.0216,0.0,0.0,0.0,0.0,0.0,0.0,5.1991,5.2239,5.2559,5.2933,5.2991,5.3123,5.3487,5.3487,5.3487,5.3487,5.3487,5.3487,5.3487,0.0,0.0,0.0,0.0,0.0,0.0,0.0,0.0,0.0,5.6665,5.6984,0.0,0.0,0.0,0.0,5.7303,0.0,0.0,5.7303,5.7303,0.0,0.0,0.0,5.7303,5.7303,5.7507,0.0,0.0,0.0,0.0,0.0,0.0,0.0,0.0,0.0,0.0,0.0,0.0,0.0,6.1193,6.1193,6.1454,6.2341,6.2819,6.337,6.4254,6.369,6.308,6.308,6.2035,6.1629,6.2906,6.308,6.3589,6.4838,6.5012,6.5012,6.5012,6.5012,6.5399,6.6343,6.642,6.6718,6.7372,6.7164,6.7014,6.7014,6.7014,6.7014,6.7014,6.7014,6.7014,6.7014,6.7014,6.7014,6.7014,6.7014,6.7014,6.7014,6.7014,6.7014,6.7014,6.7014,6.7014,6.7014,6.7014,6.7164,6.7373,6.7104,6.7358,6.7777,0.0,4.9809,5.0013,5.0681,5.0797,5.0987,0.0,0.0,0.0,0.0,5.1775,5.2036,5.2614,5.3181,5.3487,5.3487,5.3487,5.3487,5.3487,5.3487,5.3487,5.3487,0.0,0.0,0.0,0.0,0.0,0.0,0.0,0.0,0.0,0.0,0.0,0.0,5.7071,5.7303,0.0,0.0,0.0,5.7303,5.7303,5.7303,0.0,0.0,5.7303,0.0,5.7303,5.7303,5.7303,5.739,5.7855,0.0,0.0,0.0,0.0,0.0,5.9393,0.0,0.0,0.0,0.0,0.0,0.0,0.0,6.1193,6.1251,6.1629,6.2848,6.3138,6.3574,6.478,6.4009,6.3167,6.3109,6.2108,6.1716,6.2935,6.308,6.3589,6.4838,6.5012,6.5012,6.5012,6.5044,6.5609,6.689,6.7075,6.7376,6.7986,6.7373,6.7014,6.7014,6.7014,6.7014,6.7014,6.7014,6.7014,6.7014,6.7014,6.7014,6.7014,6.7014,6.7014,6.7014,6.7014,6.7044,6.7104,6.7104,6.7104,6.7104,6.7104,6.7523,6.8047,6.7433,6.7986,6.8914,5.039,5.0506,5.071,5.1323,5.1427,0.0,0.0,0.0,0.0,0.0,5.2833,5.3168,5.3326,5.3429,5.3487,5.3487,5.3487,5.3487,5.3487,5.3487,5.3487,0.0,0.0,0.0,0.0,0.0,0.0,0.0,0.0,0.0,0.0,0.0,0.0,0.0,5.7245,5.7303,0.0,0.0,0.0,5.7303,5.7303,0.0,5.7303,5.7303,5.7303,5.7303,5.7303,5.7303,5.739,0.0,5.8552,5.9103,0.0,0.0,0.0,0.0,0.0,0.0,0.0,0.0,0.0,0.0,0.0,0.0,6.1193,6.1586,6.2166,6.295,6.35,6.408,6.4851,6.4342,6.3674,6.3167,6.2441,6.218,6.3008,6.308,6.3589,6.4838,6.5012,6.5012,6.5012,6.5237,6.5863,6.6905,6.7517,6.7877,6.7972,6.7373,6.7014,6.7014,6.7014,6.7014,6.7014,6.7014,6.7014,6.7014,6.7014,6.7014,6.7014,6.7014,6.7014,6.7014,6.7014,6.7313,6.7808,6.7808,6.7808,6.7808,6.7808,6.8211,6.8794,6.8645,6.8764,6.8974,5.0564,5.071,5.1,5.1946,0.0,0.0,0.0,0.0,0.0,5.3049,5.3326,5.3487,5.3487,0.0,0.0,5.3487,5.3487,5.3487,0.0,0.0,0.0,0.0,0.0,0.0,0.0,0.0,0.0,0.0,0.0,0.0,0.0,0.0,0.0,0.0,0.0,0.0,0.0,0.0,5.7303,5.7303,5.7303,0.0,5.7303,5.7303,5.7507,5.7797,5.7797,5.8,5.8348,5.8697,5.9219,0.0,0.0,5.9974,6.0322,0.0,6.07,6.0758,0.0,0.0,0.0,6.1193,0.0,0.0,0.0,6.189,6.2383,6.3355,6.3774,6.421,6.4896,6.4212,6.3442,6.3138,6.2267,6.1861,6.2499,6.2892,6.3589,6.4838,6.5012,6.5076,6.5222,6.5688,6.6622,6.8089,6.8705,6.884,6.8511,6.7852,6.7343,6.7014,6.7014,6.7014,6.7014,6.7014,6.7014,6.7014,6.7014,6.7014,6.7014,6.7014,6.7194,6.7493,6.7493,6.7882,6.8511,6.8511,6.869,6.896,6.863,6.89,6.9453,6.9123,6.9393,6.9901,5.0929,5.1058,5.1436,5.2568,0.0,0.0,0.0,0.0,5.3487,5.3487,5.3487,5.3487,0.0,0.0,0.0,0.0,0.0,5.3749,0.0,0.0,0.0,0.0,0.0,5.4967,0.0,0.0,0.0,0.0,0.0,0.0,0.0,0.0,0.0,0.0,0.0,0.0,0.0,0.0,0.0,5.7507,0.0,5.7507,5.7507,5.7507,5.7913,5.8493,5.8493,5.8929,5.948,5.948,0.0,6.038,6.038,6.0758,0.0,0.0,0.0,0.0,0.0,0.0,0.0,0.0,0.0,6.1483,0.0,0.0,0.0,6.3803,6.4094,6.4371,6.4896,6.4038,6.3225,6.3109,6.2122,6.1542,6.2035,6.2689,6.3516,6.4677,6.4909,6.511,6.5459,6.635,6.7626,6.9376,6.9817,6.9768,6.9213,6.8421,6.7748,6.7224,6.7074,6.7014,6.7014,6.7014,6.7014,6.7014,6.7014,6.7014,6.7014,6.7134,6.7493,6.8017,6.8137,6.8571,6.9183,6.9183,6.9572,7.0097,6.9453,6.9572,7.0097,6.9572,7.0021,7.0829,5.2198,5.2365,5.2597,5.3297,0.0,0.0,0.0,0.0,5.3487,5.3487,5.3487,0.0,0.0,0.0,0.0,0.0,0.0,0.0,5.5142,0.0,0.0,0.0,0.0,0.0,5.6273,0.0,0.0,0.0,0.0,0.0,0.0,0.0,0.0,0.0,5.7303,0.0,0.0,0.0,5.7652,0.0,5.8203,5.8203,0.0,5.8203,5.861,5.919,5.919,5.9568,6.009,0.0,6.0526,6.1077,0.0,6.1135,0.0,0.0,0.0,0.0,0.0,0.0,0.0,0.0,6.16,0.0,0.0,0.0,6.3832,6.3978,0.0,6.4909,6.4983,0.0,0.0,6.3196,6.2486,6.2006,6.2108,6.2689,6.3341,6.4036,6.4648,6.511,6.5459,6.7178,6.8724,6.9867,6.9975,6.9977,6.9887,6.869,6.7958,6.7898,6.7313,6.7014,6.7014,6.7014,6.7014,6.7014,6.7014,6.7014,6.7014,6.7628,6.7928,6.8047,6.863,6.9273,6.9887,6.9887,7.0247,7.0739,7.0127,7.026,7.0799,7.0709,7.0769,7.0889,5.2216,5.2481,5.2801,5.3371,0.0,0.0,0.0,0.0,5.3632,5.4039,5.4068,0.0,0.0,0.0,0.0,0.0,0.0,5.5113,0.0,0.0,0.0,0.0,0.0,0.0,0.0,0.0,0.0,0.0,5.7303,0.0,0.0,0.0,0.0,0.0,5.7303,0.0,5.7884,0.0,5.8261,0.0,0.0,0.0,0.0,5.9016,5.9277,5.9858,6.0264,6.0555,6.0787,0.0,6.0961,0.0,0.0,0.0,0.0,0.0,0.0,0.0,0.0,0.0,0.0,0.0,0.0,0.0,0.0,0.0,6.4123,0.0,0.0,0.0,0.0,0.0,0.0,0.0,6.1992,6.1571,6.1571,6.2122,6.2906,6.3891,6.459,6.5401,6.6483,6.7743,6.8978,7.0149,7.0417,7.0366,7.0007,6.9109,6.8391,6.8017,6.7343,6.7014,6.7014,6.7014,6.7014,6.7014,6.7014,6.7194,6.7583,6.7868,6.8437,6.9185,6.9468,6.9947,7.05,7.05,7.0679,7.0889,7.062,7.0679,7.0889,7.0889,7.0889,7.0889,5.2448,0.0,0.0,0.0,0.0,0.0,0.0,0.0,0.0,0.0,0.0,0.0,5.5345,5.5403,0.0,0.0,0.0,5.5751,0.0,0.0,5.6142,0.0,0.0,0.0,0.0,0.0,0.0,0.0,0.0,0.0,0.0,0.0,0.0,0.0,0.0,5.7942,5.8581,0.0,5.8958,5.9539,5.9539,5.9916,6.0438,5.9974,6.009,6.0526,6.1019,6.1193,6.1193,6.1193,6.1193,0.0,6.1193,0.0,0.0,0.0,0.0,0.0,6.1716,0.0,0.0,0.0,0.0,0.0,0.0,0.0,0.0,0.0,0.0,0.0,0.0,0.0,0.0,0.0,0.0,6.1193,6.1193,6.1716,6.2499,6.3616,6.4582,6.5746,6.7243,6.8068,6.9049,7.0294,7.0724,7.0709,7.0277,6.9453,6.8764,6.8271,6.7463,6.7014,6.7014,6.7014,6.7014,6.7014,6.7194,6.7523,6.8017,6.8377,6.9079,7.0007,7.0187,7.0516,7.0889,7.0889,7.0889,7.0889,7.0889,7.0889,7.0889,7.0889,7.0889,7.0889,5.3511,5.3079,0.0,0.0,0.0,0.0,0.0,0.0,0.0,0.0,0.0,0.0,0.0,0.0,0.0,0.0,0.0,5.6636,5.7216,0.0,5.7245,0.0,0.0,0.0,0.0,0.0,0.0,0.0,0.0,0.0,0.0,0.0,0.0,0.0,0.0,5.8639,5.9277,5.9277,5.9626,6.0177,6.0177,6.0555,6.1164,0.0,6.1164,6.1164,6.1193,0.0,0.0,6.1193,6.1193,0.0,0.0,0.0,0.0,0.0,0.0,0.0,0.0,0.0,0.0,6.1251,0.0,0.0,0.0,0.0,6.3138,0.0,0.0,0.0,0.0,0.0,0.0,0.0,0.0,0.0,0.0,6.1716,6.237,6.3067,6.4527,6.5988,6.7276,6.8068,6.9049,7.0294,7.0724,7.0889,7.0889,6.9692,6.9004,6.8974,6.7703,6.7014,6.7014,6.7014,6.7014,6.7014,6.7643,6.7987,6.8047,6.9349,6.9947,7.0037,7.062,7.0889,7.0889,7.0889,7.0889,7.0889,7.0889,7.0889,7.0889,7.0889,7.0889,7.0889,0.0,0.0,0.0,0.0,0.0,0.0,0.0,5.5137,0.0,0.0,0.0,0.0,0.0,0.0,5.6571,0.0,0.0,5.7086,5.7303,5.7303,0.0,0.0,0.0,5.7303,0.0,0.0,0.0,0.0,0.0,0.0,0.0,0.0,0.0,0.0,0.0,5.9306,0.0,0.0,0.0,0.0,0.0,6.099,6.1193,0.0,6.1193,6.1193,6.1193,6.1193,0.0,6.1193,6.1193,6.1193,6.1193,6.1193,6.1193,6.1193,6.1193,0.0,0.0,0.0,6.189,6.2354,0.0,0.0,0.0,0.0,0.0,0.0,0.0,0.0,0.0,0.0,0.0,0.0,0.0,0.0,0.0,6.2978,6.3426,6.3674,6.4175,6.501,6.629,6.7495,6.8517,6.9342,7.0325,7.0889,7.0889,6.9692,6.9004,6.9004,6.7703,6.7014,6.7014,6.7014,6.7224,6.7643,6.7898,6.8451,6.9349,6.9798,7.0217,7.062,7.0799,7.0889,7.0889,7.0889,7.0889,7.0889,7.0889,7.0889,7.0889,7.0889,7.0889,7.0889,5.3092,0.0,0.0,0.0,0.0,0.0,0.0,0.0,0.0,0.0,5.5922,0.0,5.6651,0.0,5.6809,0.0,5.7078,5.7148,5.7148,5.7247,0.0,5.7303,5.7536,0.0,0.0,0.0,0.0,0.0,0.0,5.8668,0.0,0.0,0.0,0.0,0.0,5.9974,6.0555,6.0555,6.0787,0.0,0.0,6.1193,0.0,0.0,6.1193,6.1193,0.0,6.1193,6.1193,6.1193,6.1338,6.1513,6.1513,6.1687,6.1876,6.1876,6.1876,6.1948,6.2354,6.2457,0.0,6.3008,6.3399,0.0,6.3674,0.0,0.0,0.0,0.0,0.0,0.0,0.0,0.0,0.0,0.0,0.0,0.0,6.3413,6.3745,6.3978,6.421,6.4761,6.5805,6.7155,6.8251,6.8838,7.0141,7.0799,7.059,6.9572,6.8884,6.8645,6.7583,6.7014,6.7014,6.7254,6.7553,6.8017,6.8496,6.9169,7.0007,7.0217,7.053,7.0889,7.0889,7.0889,7.0889,7.0889,7.0889,7.0889,7.0889,7.0889,7.0889,7.0889,7.0889,7.0889,5.4078,0.0,0.0,0.0,5.5637,0.0,0.0,0.0,5.6752,0.0,5.6351,5.6351,5.6365,5.6365,5.638,5.6394,5.6738,0.0,5.6923,5.7221,0.0,0.0,5.8,5.8348,5.8348,0.0,0.0,0.0,0.0,0.0,0.0,0.0,0.0,0.0,6.0235,0.0,6.1193,6.1193,6.1193,6.1193,6.1222,6.1251,6.1251,6.128,6.128,6.128,6.1251,6.128,6.128,6.128,6.1673,6.2166,6.2166,6.2602,6.308,6.308,6.308,6.308,6.308,6.308,6.308,6.308,6.3109,0.0,0.0,0.0,6.3183,0.0,0.0,0.0,0.0,0.0,0.0,0.0,0.0,0.0,0.0,0.0,6.3399,6.3978,6.4619,6.5228,6.5805,6.7171,6.8221,6.8808,7.0141,7.0649,7.0037,6.9363,6.869,6.8017,6.7343,6.7014,6.7044,6.7673,6.8047,6.8107,6.9379,7.0007,7.0067,7.0649,7.0889,7.0889,7.0889,7.0889,7.0889,7.0889,7.0889,7.0889,7.0889,7.0889,7.0889,7.0889,7.0889,7.0889,5.4374,5.4965,5.5431,0.0,5.605,5.6366,0.0,0.0,0.0,0.0,5.5889,5.5831,5.6077,5.6092,5.6178,5.6365,5.7139,0.0,0.0,0.0,0.0,5.8784,5.8958,5.9045,5.9045,5.9219,0.0,5.9306,0.0,0.0,5.9974,0.0,0.0,0.0,0.0,0.0,6.1193,6.1193,6.1193,6.1222,6.1702,6.1876,6.1919,0.0,6.2616,6.2544,6.2035,6.2195,6.2616,6.2616,6.2703,6.2848,6.2848,6.2964,6.308,6.308,6.308,6.308,6.308,6.308,6.308,6.308,6.3442,6.3774,0.0,0.0,0.0,0.0,0.0,0.0,0.0,0.0,0.0,0.0,0.0,0.0,0.0,0.0,0.0,6.4735,6.4896,6.507,6.5228,6.6907,6.806,6.8238,6.9889,7.0649,7.0037,6.9363,6.869,6.8017,6.7343,6.7254,6.7748,6.7928,6.8496,6.9498,6.9828,7.0247,7.0679,7.0829,7.0889,7.0889,7.0889,7.0889,7.0889,7.0889,7.0889,7.0889,7.0889,7.0889,7.0889,7.0889,7.0889,7.0889,5.4527,0.0,0.0,5.5554,0.0,0.0,5.6164,0.0,0.0,5.5569,5.5304,0.0,5.5919,5.5991,5.6236,5.6784,5.7433,0.0,0.0,0.0,0.0,5.9292,5.9539,5.9684,5.9684,5.9974,0.0,6.0119,0.0,0.0,6.0642,0.0,0.0,0.0,0.0,6.1193,6.1222,6.1483,6.1745,6.2064,6.2383,6.2544,0.0,6.2979,6.3254,6.3442,6.3065,6.2993,6.308,6.308,6.3283,6.35,6.35,6.369,6.3938,6.3938,6.3938,6.3938,6.3938,6.3938,6.3938,6.3938,6.4183,6.4429,6.4429,6.4735,6.5012,0.0,0.0,0.0,0.0,0.0,0.0,0.0,0.0,0.0,0.0,0.0,0.0,0.0,6.5012,6.5012,6.5012,6.6645,6.773,6.773,6.916,6.9814,6.9333,6.8693,6.8115,6.7583,6.7463,6.7628,6.7987,6.8586,6.9259,7.0007,7.0277,7.056,7.0889,7.0889,7.0889,7.0889,7.0889,7.0889,7.0889,7.0889,7.0889,7.0889,7.0889,7.0889,7.0889,7.0889,7.0889,7.0889,0.0,0.0,0.0,0.0,0.0,0.0,0.0,5.5562,0.0,5.496,0.0,5.5007,5.5864,5.5995,5.6383,5.7275,0.0,5.8065,5.8421,5.8834,5.9201,5.9524,6.0061,6.0322,6.0322,6.0903,0.0,0.0,0.0,0.0,0.0,0.0,0.0,0.0,0.0,0.0,0.0,6.2006,6.2573,6.3109,6.3196,6.3225,6.3225,6.3312,6.3674,6.4123,6.4123,6.379,6.3357,6.3357,6.3719,6.4123,6.4123,6.4516,6.5012,6.5012,6.5012,6.5012,6.5012,6.5012,6.5012,6.5012,6.5012,6.5012,6.5012,6.5012,6.5012,6.5012,6.5012,6.5012,0.0,0.0,0.0,0.0,0.0,0.0,0.0,0.0,0.0,0.0,0.0,0.0,6.5012,6.638,6.7276,6.7276,6.8217,6.863,6.8299,6.7783,6.739,6.7148,6.7703,6.8077,6.8257,6.9409,7.0037,7.0127,7.0649,7.0889,7.0889,7.0889,7.0889,7.0889,7.0889,7.0889,7.0889,7.0889,7.0889,7.0889,7.0889,7.0889,7.0889,7.0889,7.0889,7.0889,0.0,0.0,0.0,0.0,0.0,5.4552,5.4945,5.4777,5.4561,5.4499,5.4886,5.536,5.5782,5.6087,5.6464,5.6926,5.8008,0.0,0.0,0.0,0.0,6.0859,6.0961,6.1019,6.1019,6.1135,6.1193,0.0,0.0,0.0,0.0,0.0,0.0,0.0,0.0,0.0,6.2761,6.2892,0.0,6.3138,6.3645,6.3832,6.3891,6.4444,6.4735,6.4822,6.4822,6.478,6.4664,6.4664,6.4751,6.4822,6.4822,6.4925,6.5012,6.5012,6.5012,6.5012,6.5012,6.5012,6.5012,6.5012,6.5012,6.5012,6.5012,6.5012,6.5012,6.5012,6.5012,6.5012,6.5012,0.0,0.0,0.0,0.0,0.0,0.0,0.0,0.0,0.0,0.0,6.5012,6.5012,6.603,6.6661,6.6661,6.7586,6.8012,6.7694,6.7561,6.7615,6.7822,6.7928,6.8526,6.9648,6.9887,7.0247,7.0739,7.0859,7.0889,7.0889,7.0889,7.0889,7.0889,7.0889,7.0889,7.0889,7.0889,7.0889,7.0889,7.0889,7.0889,7.0889,7.0889,7.0889,7.0889,0.0,0.0,0.0,0.0,0.0,0.0,0.0,5.3289,5.3378,5.3952,5.416,5.4591,5.5383,5.5616,5.6173,5.7208,5.8028,5.8693,5.9202,5.9823,6.0316,6.0666,6.0666,0.0,6.114,6.114,6.1313,6.1614,0.0,0.0,0.0,0.0,0.0,6.2616,0.0,6.3018,0.0,0.0,0.0,6.3606,6.4066,6.4246,6.4306,6.4816,6.5012,6.5012,6.5012,6.5012,6.5012,6.5012,6.5012,6.5012,6.5012,6.5012,6.5012,6.5012,6.5012,6.5012,6.5012,6.5012,6.5012,6.5012,6.5012,6.5012,6.5012,6.5012,6.5012,6.5012,6.5012,6.5012,6.5012,6.5012,0.0,0.0,0.0,0.0,0.0,0.0,0.0,0.0,0.0,0.0,0.0,0.0,6.5863,6.6167,6.6797,6.7163,6.7173,6.7378,6.7658,6.7972,6.8676,6.9349,6.9977,7.0306,7.062,7.0889,7.0889,7.0889,7.0889,7.0889,7.0889,7.0889,7.0889,7.0889,7.0889,7.0889,7.0889,7.0889,7.0889,7.0889,7.0889,7.0889,7.0889,7.0889,0.0,5.4676,0.0,0.0,5.3517,0.0,5.2315,5.2068,5.2296,5.3231,5.3267,5.3658,5.4839,5.5012,5.5653,5.7216,5.7688,5.8253,5.9119,5.9417,5.9801,6.0334,6.0377,6.0546,6.0935,6.0964,6.1175,0.0,0.0,0.0,0.0,0.0,0.0,0.0,0.0,0.0,0.0,0.0,6.3281,6.3802,6.427,6.4458,6.4519,6.499,6.5177,6.5177,6.5177,6.5213,6.5306,6.5306,6.5267,6.5199,6.5199,6.5302,6.5389,6.5389,6.5302,6.5199,6.5199,6.5099,6.5012,6.5012,6.5012,6.5012,6.5012,6.5012,6.5012,6.5012,6.5012,6.5012,6.5012,6.5012,0.0,0.0,0.0,0.0,0.0,0.0,0.0,0.0,0.0,0.0,6.5012,6.5012,6.5199,6.5677,6.6027,6.6422,6.689,6.7283,6.7778,6.8421,6.9439,7.0067,7.0187,7.0649,7.0889,7.0889,7.0889,7.0889,7.0889,7.0889,7.0889,7.0889,7.0889,7.0889,7.0889,7.0889,7.0889,7.0889,7.0889,7.0889,7.0889,7.0889,7.0889,7.0889,0.0,0.0,0.0,0.0,0.0,0.0,5.2327,5.2003,5.1889,5.2135,5.2606,5.3249,5.4029,5.4383,5.5018,5.6138,5.6552,5.7417,5.9004,5.9155,5.9682,6.0867,6.0911,6.0795,6.0456,6.0484,6.0484,0.0,0.0,0.0,0.0,0.0,0.0,0.0,0.0,0.0,0.0,6.3049,6.2945,6.3091,6.397,6.433,6.442,6.5372,6.5734,6.5734,6.5734,6.595,6.6277,6.6277,6.607,6.5805,6.5805,6.6244,6.6725,6.6725,6.6302,6.5805,6.5805,6.5431,6.5012,6.5012,6.5012,6.5012,6.5012,6.5012,6.5012,6.5012,6.5012,6.5012,6.5012,6.5012,6.5012,0.0,0.0,0.0,0.0,0.0,0.0,0.0,0.0,0.0,0.0,6.5012,6.5012,6.5099,6.5388,6.6,6.6951,6.7328,6.8194,6.9752,6.9917,7.0277,7.0799,7.0859,7.0889,7.0889,7.0889,7.0889,7.0889,7.0889,7.0889,7.0889,7.0889,7.0889,7.0889,7.0889,7.0889,7.0889,7.0889,7.0889,7.0889,7.0889,7.0889,7.0889,0.0,0.0,0.0,0.0,0.0,0.0,0.0,5.2114,5.2118,5.2183,5.2502,5.2894,5.3416,5.3867,5.4503,5.5349,5.5981,5.677,5.7882,5.8375,5.893,5.9715,5.9517,5.9472,5.9677,5.9459,5.9622,0.0,0.0,0.0,0.0,0.0,0.0,0.0,0.0,6.2494,6.2273,6.2254,6.2246,6.228,6.2873,6.3277,6.3607,6.4173,6.4576,6.478,6.478,6.5171,6.5688,6.5688,6.605,6.6506,6.6506,6.668,6.6899,6.6899,6.6709,6.6506,6.6506,6.6302,6.6144,6.6144,6.6144,6.6144,6.6144,6.6144,6.6144,6.6144,6.6144,6.6028,6.5619,6.5531,6.5431,6.507,0.0,0.0,0.0,0.0,0.0,0.0,0.0,0.0,0.0,6.5344,6.5531,6.5531,6.5852,6.6321,6.698,6.8053,6.9058,6.9961,7.0366,7.0649,7.0889,7.0889,7.0889,7.0889,7.0889,7.0889,7.0889,7.0889,7.0889,7.0889,7.0889,7.0889,7.0889,7.0889,7.0889,7.0889,7.0889,7.0889,7.0889,7.0889,7.0889,7.0889,5.2151,0.0,5.273,0.0,5.2565,5.2532,5.2149,5.22,5.2301,5.2301,5.2562,5.281,5.2988,5.3345,5.3853,5.4607,5.5146,5.5853,5.6756,5.729,5.7832,5.8394,5.8274,0.0,5.8627,5.8488,5.8831,5.9721,6.021,0.0,0.0,0.0,0.0,0.0,6.1773,6.1526,6.1271,6.1283,6.1308,6.1344,6.189,6.2283,6.2657,6.3174,6.3547,6.3811,6.3944,6.4398,6.4925,6.5177,6.5947,6.684,6.6983,6.714,6.7331,6.7447,6.7335,6.719,6.719,6.7044,6.6899,6.6899,6.6899,6.6899,6.6899,6.6899,6.6899,6.6899,6.6899,6.6754,6.6286,6.6199,6.6054,6.5622,0.0,0.0,0.0,0.0,0.0,0.0,0.0,6.5564,6.5564,6.5938,6.6199,6.6199,0.0,0.0,0.0,0.0,0.0,7.0116,0.0,0.0,7.0889,7.0889,7.0889,7.0889,7.0889,7.0889,7.0889,7.0889,7.0889,7.0889,7.0889,7.0889,7.0889,7.0889,7.0889,7.0889,7.0889,7.0889,7.0889,7.0889,7.0889,7.0889,5.2484,5.2607,5.2655,5.2767,5.2792,5.269,5.235,5.2301,5.2301,5.2301,5.2753,5.302,5.2829,5.2816,5.3124,5.386,5.3907,5.4495,5.5834,5.5913,5.6339,0.0,0.0,5.7733,5.7328,5.7705,5.8212,5.8826,0.0,0.0,6.1299,0.0,6.1577,6.1201,6.0877,6.0696,6.0686,6.0279,6.0115,6.0203,6.1201,6.1603,6.1711,6.2735,6.3113,6.3169,6.3554,6.392,6.4319,6.512,6.594,6.6682,6.7168,6.7766,6.8353,6.868,6.8347,6.7887,6.7887,6.7393,6.6899,6.6899,6.6899,6.6899,6.6899,6.6899,6.6899,6.6899,6.6899,6.6899,6.6899,6.6899,6.6899,6.687,0.0,0.0,0.0,0.0,0.0,0.0,6.687,6.687,6.687,6.687,6.6899,0.0,0.0,0.0,0.0,0.0,0.0,7.0383,7.071,0.0,7.0889,7.0889,7.0889,7.0889,7.0889,7.0889,7.0889,7.0889,7.0889,7.0889,7.0889,7.0889,7.0889,7.0889,7.0889,7.0889,7.0889,7.0889,7.0889,7.0889,7.0889,7.0889,5.2375,5.2399,5.2393,5.2453,5.2773,5.2978,5.2849,5.3119,5.3317,5.3317,5.3485,5.3547,5.349,5.3484,5.3577,0.0,5.4071,5.4531,0.0,5.5884,5.6497,5.7077,5.7301,5.7484,5.764,5.751,5.7796,5.853,0.0,0.0,0.0,6.0378,6.0224,6.0104,6.0135,6.0001,5.9765,6.0,6.0097,6.0142,6.0454,6.0739,6.1029,6.1335,6.1613,6.1894,6.2007,6.2492,6.3077,6.3343,6.3965,6.4771,6.5717,6.707,6.833,6.8433,6.848,6.8492,6.8492,6.8347,6.8201,6.8201,6.8201,6.8201,6.8201,6.8201,6.8201,6.8201,6.8201,6.8073,6.7654,6.7567,6.7422,6.6957,6.6899,0.0,0.0,0.0,0.0,0.0,6.6899,6.6899,6.6899,6.7306,0.0,0.0,0.0,0.0,0.0,0.0,0.0,0.0,7.074,0.0,7.0889,7.0889,7.0889,7.0889,7.0889,7.0889,7.0889,7.0889,7.0889,7.0889,7.0889,7.0889,7.0889,7.0889,7.0889,7.0889,7.0889,7.0889,7.0889,7.0889,7.0889,7.0889,5.2566,5.259,5.2662,5.2836,5.3125,5.3341,5.3341,5.3606,5.3803,5.3803,5.3972,5.4092,5.4092,5.4284,0.0,5.4116,5.4337,5.4673,5.5112,5.5699,5.6122,5.6387,5.6619,5.6848,5.7114,5.7171,0.0,5.8291,5.9033,5.966,6.0082,5.9884,5.9716,5.9573,5.9686,5.9611,5.9407,5.9742,5.9875,5.9875,5.9875,6.0048,6.0259,6.0259,6.0406,6.0654,6.0806,6.1186,6.1632,6.1932,6.2473,6.3222,6.4219,6.5763,6.7362,6.8079,6.8467,6.8642,6.876,6.8794,6.8794,6.8794,6.8794,6.8794,6.8794,6.8794,6.8794,6.8794,6.8794,6.8695,6.8305,6.8247,6.8102,6.7667,6.7609,6.7609,6.7609,0.0,0.0,0.0,0.0,0.0,0.0,6.7986,6.8247,0.0,0.0,0.0,0.0,0.0,6.977,6.9985,7.0462,7.0724,7.0724,7.0854,7.0889,7.0889,7.0889,7.0889,7.0889,7.0889,7.0889,7.0889,7.0889,7.0889,7.0889,7.0889,7.0889,7.0889,7.0889,7.0889,7.0889,7.0889,7.0889,7.0889,5.3047,5.3162,5.3288,5.3707,5.3803,5.3803,5.3851,5.3851,5.3875,5.39,5.4351,5.4664,5.4664,5.5097,5.5217,5.4741,0.0,0.0,5.5361,5.5433,5.5458,5.5458,5.5854,5.609,5.6172,5.6895,5.7562,5.8205,5.9449,6.0067,6.0067,6.0067,5.9875,5.9483,5.9483,5.9483,5.9483,5.9483,5.9483,5.9483,5.9483,5.9483,5.9483,5.9483,5.9483,5.9566,5.9932,6.0067,6.0157,6.092,6.145,6.1921,6.2723,6.4001,6.5585,6.7552,6.8211,6.8319,6.8642,6.8726,6.8743,6.876,6.876,6.876,6.876,6.8743,6.8743,6.876,6.876,6.8777,6.8794,6.8794,6.8794,6.8794,6.8794,6.8794,6.8794,0.0,0.0,0.0,0.0,0.0,6.8743,6.8726,6.8726,0.0,0.0,0.0,0.0,0.0,6.9236,6.9287,7.0018,7.0413,7.0413,7.071,7.0889,7.0889,7.0889,7.0889,7.0889,7.0889,7.0889,7.0889,7.0889,7.0889,7.0889,7.0889,7.0889,7.0889,7.0889,7.0889,7.0889,7.0889,7.0889,7.0889,0.0,0.0,5.3678,5.3779,5.3803,5.3924,5.4332,5.4423,5.4568,5.4977,5.5121,5.5217,5.5217,5.5313,5.5506,5.5799,5.5458,5.5265,5.5385,5.5775,5.6015,5.6015,5.6479,5.707,5.7741,5.7956,5.8414,5.9153,5.9491,5.9637,5.9637,5.9637,5.9579,5.9483,5.9483,5.9483,5.9483,5.9483,5.9483,5.9483,5.9483,5.9483,5.9483,5.9483,5.9483,5.9502,5.9624,5.9637,5.9657,5.9849,6.0176,6.0654,6.1488,6.2399,6.3636,6.5879,6.7171,6.7862,6.7948,6.7965,6.8033,6.8336,6.8433,6.8433,6.8433,6.8199,6.8051,6.8353,6.8433,6.8489,6.8743,6.8794,6.8794,6.8794,6.8794,6.8794,6.8794,6.8794,6.8709,0.0,6.8433,6.8301,6.7999,6.7965,6.7965,0.0,0.0,6.7965,6.7965,6.8336,6.8777,6.927,7.0018,7.0413,7.0413,7.071,7.0889,7.0889,7.0889,7.0889,7.0889,7.0889,7.0889,7.0889,7.0889,7.0889,7.0889,7.0889,7.0889,7.0889,7.0889,7.0889,7.0889,7.0889,7.0889,7.0889,5.3803,5.3996,5.4164,5.4164,5.4356,5.464,5.4928,5.4977,5.5073,5.5361,5.5626,5.577,5.577,5.5967,5.6231,5.6544,5.6087,5.589,5.6131,5.64,5.6568,5.6568,5.6857,5.7299,5.7971,5.8192,5.8697,5.9483,5.9483,5.9483,5.9483,5.9483,5.9483,5.9483,5.9483,5.9483,5.9483,5.9483,5.9483,5.9483,5.9483,5.9483,5.9483,5.9483,5.9483,5.9483,5.9483,5.9483,5.9483,5.9483,5.9663,5.9926,6.0558,6.1318,6.2231,6.3691,6.5336,6.6714,6.7091,6.7299,6.7524,6.7913,6.8045,6.7994,6.7776,6.7575,6.7489,6.7707,6.7742,6.7862,6.8221,6.829,6.829,6.829,6.829,6.829,6.829,6.829,6.8153,6.7776,6.7742,6.7535,6.6986,6.6906,6.6906,6.6906,6.7091,0.0,6.742,6.781,6.8284,6.8828,6.952,7.0002,7.0167,7.0675,7.0889,7.0889,7.0889,7.0889,7.0889,7.0889,7.0889,7.0889,7.0889,7.0889,7.0889,7.0889,7.0889,7.0889,7.0889,7.0889,7.0889,7.0889,7.0889,7.0889,5.402,5.4423,5.4736,5.4736,5.5097,5.5433,5.5506,5.553,5.5554,5.5626,5.6039,5.6308,5.6308,5.6736,5.7001,5.7001,5.6592,5.652,5.6977,5.7001,5.7001,5.7001,5.7061,5.7279,5.7715,5.8207,5.8834,5.9483,5.9483,5.9483,5.9483,5.9483,5.9483,5.9483,5.9483,5.9483,5.9483,5.9483,5.9483,5.9483,5.9483,5.9483,5.9483,5.9483,5.9483,5.9483,5.9483,5.9483,5.9483,5.9483,5.9483,5.9566,5.9913,6.052,6.1205,6.1601,6.3177,6.495,6.5844,6.6409,6.6836,6.7264,6.7351,6.7264,6.6906,6.6749,6.6679,6.6731,6.6749,6.6871,6.7281,6.7403,6.7437,6.7437,6.7489,6.7506,6.7454,0.0,6.7281,6.6801,6.6696,6.6398,6.5728,6.5603,6.5558,6.5558,6.595,6.6303,6.6661,6.7125,6.7552,6.7925,6.8765,6.947,6.9969,7.0561,7.087,7.0889,7.0889,7.0889,7.0889,7.0889,7.0889,7.0889,7.0889,7.0889,7.0889,7.0889,7.0889,7.0889,7.0889,7.0889,7.0889,7.0889,7.0889,7.0889,5.5073,5.5217,5.5265,5.5265,5.5337,5.5554,5.6015,5.6087,5.6231,5.6688,5.6833,5.6881,5.6881,5.6953,5.7001,5.7001,5.6929,5.6905,5.7001,5.7001,5.7001,5.7001,5.7339,5.7734,5.8168,5.8926,5.9372,5.9483,5.9483,5.9483,5.9483,5.9483,5.9483,5.9483,5.9483,5.9483,5.9483,5.9483,5.9483,5.9483,5.9483,5.9483,5.9483,5.9483,5.9483,5.9483,5.9483,5.9483,5.9483,5.9483,5.9483,5.9502,5.956,5.9907,6.0348,6.0775,6.1394,6.2194,6.3316,6.4374,6.5264,6.5674,6.5763,6.5745,6.5692,6.5175,6.4807,6.5103,6.5175,6.5282,6.5692,6.6029,6.6258,6.6258,6.6549,6.6637,6.6311,0.0,6.5993,6.5264,6.4861,6.45,6.4092,6.3764,6.3536,6.3536,6.3928,6.431,6.4708,6.5389,6.5922,6.6349,6.8005,6.9324,7.0315,7.043,7.0626,7.0889,7.0889,7.0889,7.0889,7.0889,7.0889,7.0889,7.0889,7.0889,7.0889,7.0889,7.0889,7.0889,7.0889,7.0889,7.0889,7.0889,7.0889,7.0889,5.5337,5.565,5.5823,5.5823,5.6063,5.6352,5.6592,5.664,5.6736,5.6977,5.7001,5.7001,5.7001,5.7001,5.7001,5.7001,5.7001,5.7001,5.7001,5.7001,5.7001,5.7001,5.718,5.7596,5.8291,5.9081,5.9483,5.9483,5.9483,5.9483,5.9483,5.9483,5.9483,5.9483,5.9483,5.9483,5.9483,5.9483,5.9483,5.9483,5.9483,5.9483,5.9483,5.9483,5.9483,5.9483,5.9483,5.9483,5.9483,5.9483,5.9483,5.9483,5.9483,5.9618,5.9817,6.0009,6.0787,6.1789,6.2566,6.3324,6.3965,6.4383,6.4473,6.4437,6.4201,6.3736,6.3388,6.3544,6.3563,6.3664,6.4083,6.4319,6.4446,6.4446,6.4572,6.4672,6.4464,6.4446,6.421,6.3636,6.3389,6.304,6.2455,6.225,6.2138,6.2138,6.2696,6.3214,6.3645,6.4392,6.4879,6.5087,6.7125,6.8448,6.8938,6.9524,6.9989,7.038,7.0561,7.074,7.0889,7.0889,7.0889,7.0889,7.0889,7.0889,7.0889,7.0889,7.0889,7.0889,7.0889,7.0889,7.0889,7.0889,7.0889,7.0889,5.5746,5.6087,5.64,5.64,5.6736,5.7001,5.7001,5.7001,5.7001,5.7001,5.7001,5.7001,5.7001,5.7001,5.7001,5.7001,5.7001,5.7001,5.7001,5.7001,5.7001,5.7001,5.72,5.7655,5.8423,5.914,5.9483,5.9483,5.9483,5.9483,5.9483,5.9483,5.9483,5.9483,5.9483,5.9483,5.9483,5.9483,5.9483,5.9483,5.9483,5.9483,5.9483,5.9483,5.9483,5.9483,5.9483,5.9483,5.9483,5.9483,5.9483,5.9483,5.9483,5.9483,5.9483,5.9483,6.0367,6.1431,6.1819,6.2239,6.2648,6.3029,6.314,6.3048,6.276,6.2388,6.2089,6.2089,6.2089,6.2175,6.2492,6.2622,6.2696,6.2696,0.0,6.2789,6.2688,6.2696,6.2548,6.2119,6.1988,6.1688,6.1091,6.0939,6.0882,6.0882,6.1537,6.2127,6.2518,6.3222,6.3645,6.3736,6.5869,6.7132,6.7437,6.8317,6.909,6.9654,7.0084,7.0462,7.0805,7.0856,7.0889,7.0889,7.0889,7.0889,7.0889,7.0889,7.0889,7.0889,7.0889,7.0889,7.0889,7.0889,7.0889,7.0889,5.6784,5.6905,5.6953,5.6953,5.6977,5.7001,5.7001,5.7001,5.7001,5.7001,5.7001,5.7001,5.7001,5.7001,5.7001,5.7001,5.7001,5.7001,5.7001,5.7001,5.7001,5.7001,5.7754,5.8403,5.8867,5.9295,5.9483,5.9483,5.9483,5.9483,5.9483,5.9483,5.9483,5.9483,5.9483,5.9483,5.9483,5.9483,5.9483,5.9483,5.9483,5.9483,5.9483,5.9483,5.9483,5.9483,5.9483,5.9483,5.9483,5.9483,5.9483,5.9483,5.9483,5.9483,5.9483,5.9483,5.956,5.9753,6.0157,6.0584,6.0958,6.1394,6.1488,6.1488,6.145,6.111,6.0832,6.0832,6.0832,6.0851,6.087,6.1186,6.1424,6.1424,0.0,0.0,6.1507,6.1424,6.1299,6.0889,6.0508,6.0233,6.0176,5.9849,5.9618,5.9618,6.0022,6.0444,6.087,6.1299,6.1695,6.207,6.4001,6.5522,6.6598,6.7045,6.7816,6.8888,6.9604,7.0117,7.0462,7.0773,7.0889,7.0889,7.0889,7.0889,7.0889,7.0889,7.0889,7.0889,7.0889,7.0889,7.0889,7.0889,7.0889,7.0889,5.6953,5.7001,5.7001,5.7001,5.7001,5.7001,5.7001,5.7001,5.7001,5.7001,5.7001,5.7001,5.7001,5.7001,5.7001,5.7001,5.7001,5.7001,5.7001,5.7001,5.712,5.7358,5.7951,5.8482,5.8906,5.9289,5.9483,5.9483,5.9483,5.9483,5.9483,5.9483,5.9483,5.9483,5.9483,5.9483,5.9483,5.9483,5.9483,5.9483,5.9483,5.9483,5.9483,5.9483,5.9483,5.9483,5.9483,5.9483,5.9483,5.9483,5.9483,5.9483,5.9483,5.9483,5.9483,5.9483,5.9483,5.9521,5.9676,6.0028,6.0374,6.052,6.0558,6.0558,6.0558,6.0233,5.9971,5.9971,5.9971,5.9971,5.9971,6.008,6.0176,6.0176,0.0,6.0348,6.0214,6.0176,6.0118,5.9965,5.9811,5.974,5.974,5.9605,5.9483,5.9483,5.9875,6.0182,6.0316,6.0718,6.0996,6.1155,6.1883,6.2955,6.4374,6.5496,6.6626,6.7765,6.8753,6.9508,7.0101,7.0233,7.0397,7.061,7.061,7.0724,7.0873,7.0691,7.061,7.0577,7.0364,7.0413,7.061,7.061,7.071,7.0889,5.7001,5.7001,5.7001,5.7001,5.7001,5.7001,5.7001,5.7001,5.7001,5.7001,5.7001,5.7001,5.7001,5.7001,5.7001,5.7001,5.7001,5.7001,5.7001,5.712,5.7319,5.7572,5.805,5.8482,5.8906,5.9289,5.9483,5.9483,5.9483,5.9483,5.9483,5.9483,5.9483,5.9483,5.9483,5.9483,5.9483,5.9483,5.9483,5.9483,5.9483,5.9483,5.9483,5.9483,5.9483,5.9483,5.9483,5.9483,5.9483,5.9483,5.9483,5.9483,5.9483,5.9483,5.9483,5.9483,5.9483,5.9483,5.9483,5.9695,5.9913,5.9913,5.9913,5.9913,5.9913,5.9695,5.9483,5.9483,5.9483,5.9483,5.9483,5.9483,5.9483,5.9483,5.9483,5.9483,5.9483,5.9483,5.9483,5.9483,5.9483,5.9483,5.9483,5.9483,5.9483,5.9483,5.9759,5.9913,5.9913,6.0182,6.0335,6.0335,6.0335,6.0901,6.2145,6.3837,6.5318,6.6574,6.7702,6.8651,6.9358,6.952,6.9687,6.989,6.989,7.0088,7.0383,7.0154,7.0121,7.0233,7.0002,7.0051,7.0249,7.0249,7.0397,7.0593,5.7001,5.7001,5.7001,5.7001,5.7001,5.7001,5.7001,5.7001,5.7001,5.7001,5.7001,5.7001,5.7001,5.7001,5.7001,5.7001,5.7001,5.7001,5.7001,5.7378,5.7592,5.7616,5.805,5.8482,5.8906,5.9314,5.9483,5.9483,5.9483,5.9483,5.9483,5.9483,5.9483,5.9483,5.9483,5.9483,5.9483,5.9483,5.9483,5.9483,5.9483,5.9483,5.9483,5.9483,5.9483,5.9483,5.9483,5.9483,5.9483,5.9483,5.9483,5.9483,5.9483,5.9483,5.9483,5.9483,5.9483,5.9483,5.9483,5.9483,5.9483,5.9483,5.9483,5.9483,5.9483,5.9483,5.9483,5.9483,5.9483,5.9483,5.9483,5.9483,5.9483,5.9483,5.9483,5.9483,5.9483,5.9483,5.9483,5.9483,5.9483,5.9483,5.9483,5.9483,5.9483,5.9483,5.9483,5.9483,5.9483,5.9483,5.9483,5.9483,5.9483,5.9676,6.0105,6.2089,6.3855,6.5407,6.6539,6.7461,6.8198,6.8601,6.877,6.877,6.8787,6.8972,6.9308,6.9308,6.9524,6.9886,6.9886,6.9886,6.9903,6.9903,6.9903,6.9903,5.7001,5.7001,5.7001,5.7001,5.7001,5.7001,5.7001,5.7001,5.7001,5.7001,5.7001,5.7001,5.7001,5.7001,5.7001,5.7001,5.7001,5.7001,5.7001,5.7378,5.7754,5.807,5.8521,5.8906,5.9314,5.9425,5.9483,5.9483,5.9483,5.9483,5.9483,5.9483,5.9483,5.9483,5.9483,5.9483,5.9483,5.9483,5.9483,5.9483,5.9483,5.9483,5.9483,5.9483,5.9483,5.9483,5.9483,5.9483,5.9483,5.9483,5.9483,5.9483,5.9483,5.9483,5.9483,5.9483,5.9483,5.9483,5.9483,5.9483,5.9483,5.9483,5.9483,5.9483,5.9483,5.9483,5.9483,5.9483,5.9483,5.9483,5.9483,5.9483,5.9483,5.9483,5.9483,5.9483,5.9483,5.9483,5.9483,5.9483,5.9483,5.9483,5.9483,5.9483,5.9483,5.9483,5.9483,5.9483,5.9483,5.9483,5.9483,5.9483,5.9483,5.9676,6.0105,6.1545,6.2927,6.4219,6.5372,6.6311,6.7073,6.7195,6.7218,6.7207,6.7478,6.7805,6.8123,6.8419,6.8787,6.9136,6.9119,6.9253,6.947,6.947,6.9654,6.9903,5.7001,5.7001,5.7001,5.7001,5.7001,5.7001,5.7001,5.7001,5.7001,5.7001,5.7001,5.7001,5.7001,5.7001,5.7001,5.7001,5.7001,5.708,5.7239,5.7636,5.807,5.8521,5.8926,5.9256,5.9483,5.9483,5.9483,5.9483,5.9483,5.9483,5.9483,5.9483,5.9483,5.9483,5.9483,5.9483,5.9483,5.9483,5.9483,5.9483,5.9483,5.9483,5.9483,5.9483,5.9483,5.9483,5.9483,5.9483,5.9483,5.9483,5.9483,5.9483,5.9483,5.9483,5.9483,5.9483,5.9483,5.9483,5.9483,5.9483,5.9483,5.9483,5.9483,5.9483,5.9483,5.9483,5.9483,5.9483,5.9483,5.9483,5.9483,5.9483,5.9483,5.9483,5.9483,5.9483,5.9483,5.9483,5.9483,5.9483,5.9483,5.9483,5.9483,5.9483,5.9483,5.9483,5.9483,5.9483,5.9483,5.9483,5.9483,5.9483,5.9483,5.9624,5.9875,6.073,6.1789,6.3019,6.4001,6.4816,6.5453,6.5453,6.5425,6.5415,6.5647,6.6124,6.6762,6.734,6.797,6.8613,6.876,6.8929,6.9085,6.9085,6.9253,6.9454,5.7001,5.7001,5.7001,5.7001,5.7001,5.7001,5.7001,5.7001,5.7001,5.7001,5.7001,5.7001,5.7001,5.7001,5.7001,5.7001,5.7001,5.718,5.7552,5.803,5.8482,5.8887,5.9295,5.9483,5.9483,5.9483,5.9483,5.9483,5.9483,5.9483,5.9483,5.9483,5.9483,5.9483,5.9483,5.9483,5.9483,5.9483,5.9483,5.9483,5.9483,5.9483,5.9483,5.9483,5.9483,5.9483,5.9483,5.9483,5.9483,5.9483,5.9483,5.9483,5.9483,5.9483,5.9483,5.9483,5.9483,5.9483,5.9483,5.9483,5.9483,5.9483,5.9483,5.9483,5.9483,5.9483,5.9483,5.9483,5.9483,5.9483,5.9483,5.9483,5.9483,5.9483,5.9483,5.9483,5.9483,5.9483,5.9483,5.9483,5.9483,5.9483,5.9483,5.9483,5.9483,5.9483,5.9483,5.9483,5.9483,5.9483,5.9483,5.9483,5.9483,5.9483,5.9483,5.9875,6.0616,6.1789,6.2574,6.3148,6.3553,6.3553,6.3535,6.3471,6.3544,6.4219,6.5318,6.618,6.7206,6.8267,6.8659,6.8794,6.8794,6.8794,6.8794,6.8794,5.7001,5.7001,5.7001,5.7001,5.7001,5.7001,5.7001,5.7001,5.7001,5.7001,5.7001,5.7001,5.7001,5.7001,5.7001,5.7001,5.7001,5.718,5.7552,5.803,5.8482,5.8887,5.9295,5.9483,5.9483,5.9483,5.9483,5.9483,5.9483,5.9483,5.9483,5.9483,5.9483,5.9483,5.9483,5.9483,5.9483,5.9483,5.9483,5.9483,5.9483,5.9483,5.9483,5.9483,5.9483,5.9483,5.9483,5.9483,5.9483,5.9483,5.9483,5.9483,5.9483,5.9483,5.9483,5.9483,5.9483,5.9483,5.9483,5.9483,5.9483,5.9483,5.9483,5.9483,5.9483,5.9483,5.9483,5.9483,5.9483,5.9483,5.9483,5.9483,5.9483,5.9483,5.9483,5.9483,5.9483,5.9483,5.9483,5.9483,5.9483,5.9483,5.9483,5.9483,5.9483,5.9483,5.9483,5.9483,5.9483,5.9483,5.9483,5.9483,5.9483,5.9483,5.9483,5.9605,6.0086,6.0965,6.1469,6.1902,6.2295,6.2295,6.2127,6.1857,6.2492,6.3251,6.4165,6.555,6.6812,6.7896,6.8557,6.8794,6.8794,6.8794,6.8794,6.8794,5.7001,5.7001,5.7001,5.7001,5.7001,5.7001,5.7001,5.7001,5.7001,5.7001,5.7001,5.7001,5.7001,5.7001,5.7001,5.7001,5.7001,5.718,5.7552,5.803,5.8482,5.8887,5.9295,5.9483,5.9483,5.9483,5.9483,5.9483,5.9483,5.9483,5.9483,5.9483,5.9483,5.9483,5.9483,5.9483,5.9483,5.9483,5.9483,5.9483,5.9483,5.9483,5.9483,5.9483,5.9483,5.9483,5.9483,5.9483,5.9483,5.9483,5.9483,5.9483,5.9483,5.9483,5.9483,5.9483,5.9483,5.9483,5.9483,5.9483,5.9483,5.9483,5.9483,5.9483,5.9483,5.9483,5.9483,5.9483,5.9483,5.9483,5.9483,5.9483,5.9483,5.9483,5.9483,5.9483,5.9483,5.9483,5.9483,5.9483,5.9483,5.9483,5.9483,5.9483,5.9483,5.9483,5.9483,5.9483,5.9483,5.9483,5.9483,5.9483,5.9483,5.9483,5.9483,5.9483,5.9695,6.0144,6.0539,6.0844,6.1034,6.1034,6.1034,6.1053,6.1676,6.2603,6.3801,6.5372,6.6661,6.7765,6.8494,6.8794,6.8794,6.8794,6.8794,6.8794,5.7001,5.7001,5.7001,5.7001,5.7001,5.7001,5.7001,5.7001,5.7001,5.7001,5.7001,5.7001,5.7001,5.7001,5.7001,5.7001,5.7001,5.718,5.7552,5.803,5.8482,5.8887,5.9295,5.9483,5.9483,5.9483,5.9483,5.9483,5.9483,5.9483,5.9483,5.9483,5.9483,5.9483,5.9483,5.9483,5.9483,5.9483,5.9483,5.9483,5.9483,5.9483,5.9483,5.9483,5.9483,5.9483,5.9483,5.9483,5.9483,5.9483,5.9483,5.9483,5.9483,5.9483,5.9483,5.9483,5.9483,5.9483,5.9483,5.9483,5.9483,5.9483,5.9483,5.9483,5.9483,5.9483,5.9483,5.9483,5.9483,5.9483,5.9483,5.9483,5.9483,5.9483,5.9483,5.9483,5.9483,5.9483,5.9483,5.9483,5.9483,5.9483,5.9483,5.9483,5.9483,5.9483,5.9483,5.9483,5.9483,5.9483,5.9483,5.9483,5.9483,5.9483,5.9483,5.9483,5.9483,5.9483,5.9855,6.0009,6.0009,6.0086,6.0316,6.0737,6.128,6.238,6.391,6.5389,6.6654,6.7707,6.8438,6.8709,6.8726,6.8777,6.8794,6.8794,5.7001,5.7001,5.7001,5.7001,5.7001,5.7001,5.7001,5.7001,5.7001,5.7001,5.7001,5.7001,5.7001,5.7001,5.7001,5.7001,5.7001,5.718,5.7552,5.803,5.8482,5.8887,5.9295,5.9483,5.9483,5.9483,5.9483,5.9483,5.9483,5.9483,5.9483,5.9483,5.9483,5.9483,5.9483,5.9483,5.9483,5.9483,5.9483,5.9483,5.9483,5.9483,5.9483,5.9483,5.9483,5.9483,5.9483,5.9483,5.9483,5.9483,5.9483,5.9483,5.9483,5.9483,5.9483,5.9483,5.9483,5.9483,5.9483,5.9483,5.9483,5.9483,5.9483,5.9483,5.9483,5.9483,5.9483,5.9483,5.9483,5.9483,5.9483,5.9483,5.9483,5.9483,5.9483,5.9483,5.9483,5.9483,5.9483,5.9483,5.9483,5.9483,5.9483,5.9483,5.9483,5.9483,5.9483,5.9483,5.9483,5.9483,5.9483,5.9483,5.9483,5.9483,5.9483,5.9483,5.9483,5.9483,5.9566,5.956,5.9579,5.9952,6.0316,6.0756,6.1864,6.3048,6.431,6.5506,6.6507,6.7327,6.8079,6.8381,6.8416,6.8692,6.8794,6.8794,5.7001,5.7001,5.7001,5.7001,5.7001,5.7001,5.7001,5.7001,5.7001,5.7001,5.7001,5.7001,5.7001,5.7001,5.7001,5.7001,5.7001,5.708,5.7259,5.7912,5.8364,5.856,5.9179,5.9483,5.9483,5.9483,5.9483,5.9483,5.9483,5.9483,5.9483,5.9483,5.9483,5.9483,5.9483,5.9483,5.9483,5.9483,5.9483,5.9483,5.9483,5.9483,5.9483,5.9483,5.9483,5.9483,5.9483,5.9483,5.9483,5.9483,5.9483,5.9483,5.9483,5.9483,5.9483,5.9483,5.9483,5.9483,5.9483,5.9483,5.9483,5.9483,5.9483,5.9483,5.9483,5.9483,5.9483,5.9483,5.9483,5.9483,5.9483,5.9483,5.9483,5.9483,5.9483,5.9483,5.9483,5.9483,5.9483,5.9483,5.9483,5.9483,5.9483,5.9483,5.9483,5.9483,5.9483,5.9483,5.9483,5.9483,5.9483,5.9483,5.9483,5.9483,5.9483,5.9483,5.9483,5.9483,5.9483,5.9483,5.9502,5.9932,6.0425,6.1091,6.2063,6.3177,6.4374,6.5292,6.6145,6.691,6.7431,6.7908,6.8347,6.8676,6.8794,6.8794]},{"header":{"parameterUnit":"m.s-1","parameterCategory":1,"la1":30.6,"la2":28.766,"lo1":-90.7593,"lo2":-88.6598,"dy":0.0162,"dx":0.0183,"nx":116,"ny":114,"refTime":"2024-02-24T06:00:00:Z","depth":0,"parameterNumber":3,"parameterNumberName":"V-component_of_WINDS"},"data":[0.0,0.0,0.0,0.0,0.0,0.0,0.0,0.0,0.0,0.0,0.0,0.0,0.0,0.0,0.0,0.0,0.0,0.0,0.0,0.0,0.0,0.0,0.0,0.0,0.0,0.0,0.0,0.0,0.0,0.0,0.0,0.0,0.0,0.0,0.0,0.0,0.0,0.0,0.0,0.0,0.0,0.0,0.0,0.0,0.0,0.0,0.0,0.0,0.0,0.0,0.0,0.0,0.0,0.0,0.0,0.0,0.0,0.0,0.0,0.0,0.0,0.0,0.0,0.0,0.0,0.0,0.0,0.0,0.0,0.0,0.0,0.0,0.0,0.0,0.0,0.0,0.0,0.0,0.0,0.0,0.0,0.0,0.0,0.0,0.0,0.0,0.0,0.0,0.0,0.0,0.0,0.0,0.0,0.0,0.0,0.0,0.0,0.0,0.0,0.0,0.0,0.0,0.0,0.0,0.0,0.0,0.0,0.0,0.0,0.0,0.0,0.0,0.0,0.0,0.0,0.0,0.0,0.0,0.0,0.0,0.0,0.0,0.0,0.0,0.0,0.0,0.0,0.0,0.0,0.0,0.0,0.0,0.0,0.0,0.0,0.0,0.0,0.0,0.0,0.0,0.0,0.0,0.0,0.0,0.0,0.0,0.0,0.0,0.0,0.0,0.0,0.0,0.0,0.0,0.0,0.0,0.0,0.0,0.0,0.0,0.0,0.0,0.0,0.0,0.0,0.0,0.0,0.0,0.0,0.0,0.0,0.0,0.0,0.0,0.0,0.0,0.0,0.0,0.0,0.0,0.0,0.0,0.0,0.0,0.0,0.0,0.0,0.0,0.0,0.0,0.0,0.0,0.0,0.0,0.0,0.0,0.0,0.0,0.0,0.0,0.0,0.0,0.0,0.0,0.0,0.0,0.0,0.0,0.0,0.0,0.0,0.0,0.0,0.0,0.0,0.0,0.0,0.0,0.0,0.0,0.0,0.0,0.0,0.0,0.0,0.0,0.0,0.0,0.0,0.0,0.0,0.0,0.0,0.0,0.0,0.0,0.0,0.0,0.0,0.0,0.0,0.0,0.0,0.0,0.0,0.0,0.0,0.0,0.0,0.0,0.0,0.0,0.0,0.0,0.0,0.0,0.0,0.0,0.0,0.0,0.0,0.0,0.0,0.0,0.0,0.0,0.0,0.0,0.0,0.0,0.0,0.0,0.0,0.0,0.0,0.0,0.0,0.0,0.0,0.0,0.0,0.0,0.0,0.0,0.0,0.0,0.0,0.0,0.0,0.0,0.0,0.0,0.0,0.0,0.0,0.0,0.0,0.0,0.0,0.0,0.0,0.0,0.0,0.0,0.0,0.0,0.0,0.0,0.0,0.0,0.0,0.0,0.0,0.0,0.0,0.0,0.0,0.0,0.0,0.0,0.0,0.0,0.0,0.0,0.0,0.0,0.0,0.0,0.0,0.0,0.0,0.0,0.0,0.0,0.0,0.0,0.0,0.0,0.0,0.0,0.0,0.0,0.0,0.0,0.0,0.0,0.0,0.0,0.0,0.0,0.0,0.0,0.0,0.0,0.0,0.0,0.0,0.0,0.0,0.0,0.0,0.0,0.0,0.0,0.0,0.0,0.0,0.0,0.0,0.0,0.0,0.0,0.0,0.0,0.0,0.0,0.0,0.0,0.0,0.0,0.0,0.0,0.0,0.0,0.0,0.0,0.0,0.0,0.0,0.0,0.0,0.0,0.0,0.0,0.0,0.0,0.0,0.0,0.0,0.0,0.0,0.0,0.0,0.0,0.0,0.0,0.0,0.0,0.0,0.0,0.0,0.0,0.0,0.0,0.0,0.0,0.0,0.0,0.0,0.0,0.0,0.0,0.0,0.0,0.0,0.0,0.0,0.0,0.0,0.0,0.0,0.0,0.0,0.0,0.0,0.0,0.0,0.0,0.0,0.0,0.0,0.0,0.0,0.0,0.0,0.0,0.0,0.0,0.0,0.0,0.0,0.0,0.0,0.0,0.0,0.0,0.0,0.0,0.0,0.0,0.0,0.0,0.0,0.0,0.0,0.0,0.0,0.0,0.0,0.0,0.0,0.0,0.0,0.0,0.0,0.0,0.0,0.0,0.0,0.0,0.0,0.0,0.0,0.0,0.0,0.0,0.0,0.0,0.0,0.0,0.0,0.0,0.0,0.0,0.0,0.0,0.0,0.0,0.0,0.0,0.0,0.0,0.0,0.0,0.0,0.0,0.0,0.0,0.0,0.0,0.0,0.0,0.0,0.0,0.0,0.0,0.0,0.0,0.0,0.0,0.0,0.0,0.0,0.0,0.0,0.0,0.0,0.0,0.0,0.0,0.0,0.0,0.0,0.0,0.0,0.0,0.0,0.0,0.0,0.0,0.0,0.0,0.0,0.0,0.0,0.0,0.0,0.0,0.0,0.0,0.0,0.0,0.0,0.0,0.0,0.0,0.0,0.0,0.0,0.0,0.0,0.0,0.0,0.0,0.0,0.0,0.0,0.0,0.0,0.0,0.0,0.0,0.0,0.0,0.0,0.0,0.0,0.0,0.0,0.0,0.0,0.0,0.0,0.0,0.0,0.0,0.0,0.0,0.0,0.0,0.0,0.0,0.0,0.0,0.0,0.0,0.0,0.0,0.0,0.0,0.0,0.0,0.0,0.0,0.0,0.0,0.0,0.0,0.0,0.0,0.0,0.0,0.0,0.0,0.0,0.0,0.0,0.0,0.0,0.0,0.0,0.0,0.0,0.0,0.0,0.0,0.0,0.0,0.0,0.0,0.0,0.0,0.0,0.0,0.0,0.0,0.0,0.0,0.0,0.0,0.0,0.0,0.0,0.0,0.0,0.0,0.0,0.0,0.0,0.0,0.0,0.0,0.0,0.0,0.0,0.0,0.0,0.0,0.0,0.0,0.0,0.0,0.0,0.0,0.0,0.0,0.0,0.0,0.0,0.0,0.0,0.0,0.0,0.0,0.0,0.0,0.0,0.0,0.0,0.0,0.0,0.0,0.0,0.0,0.0,0.0,0.0,0.0,0.0,0.0,0.0,0.0,0.0,0.0,0.0,0.0,0.0,0.0,0.0,0.0,0.0,0.0,0.0,0.0,0.0,0.0,0.0,0.0,0.0,0.0,0.0,0.0,0.0,0.0,0.0,0.0,0.0,0.0,0.0,0.0,0.0,0.0,0.0,0.0,0.0,0.0,0.0,0.0,0.0,0.0,0.0,0.0,0.0,0.0,0.0,0.0,0.0,0.0,0.0,0.0,0.0,0.0,0.0,0.0,0.0,0.0,0.0,0.0,0.0,0.0,0.0,0.0,0.0,0.0,0.0,0.0,0.0,0.0,0.0,0.0,0.0,0.0,0.0,0.0,0.0,0.0,0.0,0.0,0.0,0.0,0.0,0.0,0.0,0.0,0.0,0.0,0.0,0.0,0.0,0.0,0.0,0.0,0.0,0.0,0.0,0.0,0.0,0.0,0.0,0.0,0.0,0.0,0.0,0.0,0.0,0.0,0.0,0.0,0.0,0.0,0.0,0.0,0.0,0.0,0.0,0.0,0.0,0.0,0.0,0.0,0.0,0.0,0.0,0.0,0.0,0.0,0.0,0.0,0.0,0.0,0.0,0.0,0.0,0.0,0.0,0.0,0.0,0.0,0.0,0.0,0.0,0.0,0.0,0.0,0.0,0.0,0.0,0.0,0.0,0.0,0.0,0.0,0.0,0.0,0.0,0.0,0.0,0.0,0.0,0.0,0.0,0.0,0.0,0.0,0.0,0.0,0.0,0.0,0.0,0.0,0.0,0.0,0.0,0.0,0.0,0.0,0.0,0.0,0.0,0.0,0.0,0.0,0.0,0.0,0.0,0.0,0.0,0.0,0.0,0.0,0.0,0.0,0.0,0.0,0.0,0.0,0.0,0.0,0.0,0.0,0.0,0.0,0.0,0.0,0.0,0.0,0.0,0.0,0.0,0.0,0.0,0.0,0.0,0.0,0.0,0.0,0.0,0.0,0.0,0.0,0.0,0.0,0.0,0.0,0.0,0.0,0.0,0.0,0.0,0.0,0.0,0.0,0.0,0.0,0.0,0.0,0.0,0.0,0.0,0.0,0.0,0.0,0.0,0.0,0.0,0.0,0.0,0.0,0.0,0.0,0.0,0.0,0.0,0.0,0.0,0.0,0.0,0.0,0.0,0.0,0.0,0.0,0.0,0.0,0.0,0.0,0.0,0.0,0.0,0.0,0.0,0.0,0.0,0.0,0.0,0.0,0.0,0.0,0.0,0.0,0.0,0.0,0.0,0.0,0.0,0.0,0.0,0.0,0.0,0.0,0.0,0.0,0.0,0.0,0.0,0.0,0.0,0.0,0.0,0.0,0.0,0.0,0.0,0.0,0.0,0.0,0.0,0.0,0.0,0.0,0.0,0.0,0.0,0.0,0.0,0.0,0.0,0.0,0.0,0.0,0.0,0.0,0.0,0.0,0.0,0.0,0.0,0.0,0.0,0.0,0.0,0.0,0.0,0.0,0.0,0.0,0.0,0.0,0.0,0.0,0.0,0.0,0.0,0.0,0.0,0.0,0.0,0.0,0.0,0.0,0.0,0.0,0.0,0.0,0.0,0.0,0.0,0.0,0.0,0.0,0.0,0.0,0.0,0.0,0.0,0.0,0.0,0.0,0.0,0.0,0.0,0.0,0.0,0.0,0.0,0.0,0.0,0.0,0.0,0.0,0.0,0.0,0.0,0.0,0.0,0.0,0.0,0.0,0.0,0.0,0.0,0.0,0.0,0.0,0.0,0.0,0.0,0.0,0.0,0.0,0.0,0.0,0.0,0.0,0.0,0.0,0.0,0.0,0.0,0.0,0.0,0.0,0.0,0.0,0.0,0.0,0.0,0.0,0.0,0.0,0.0,0.0,0.0,0.0,0.0,0.0,0.0,0.0,0.0,0.0,0.0,0.0,0.0,0.0,0.0,0.0,0.0,0.0,0.0,0.0,0.0,0.0,0.0,0.0,0.0,0.0,0.0,0.0,0.0,0.0,0.0,0.0,0.0,0.0,0.0,0.0,0.0,0.0,0.0,0.0,0.0,0.0,0.0,0.0,0.0,0.0,0.0,0.0,0.0,0.0,0.0,0.0,0.0,0.0,0.0,0.0,0.0,0.0,0.0,0.0,0.0,0.0,0.0,0.0,0.0,0.0,0.0,0.0,0.0,0.0,0.0,0.0,0.0,0.0,0.0,0.0,0.0,0.0,0.0,0.0,0.0,0.0,0.0,0.0,0.0,0.0,0.0,0.0,0.0,0.0,0.0,0.0,0.0,0.0,0.0,0.0,0.0,0.0,0.0,0.0,0.0,0.0,0.0,0.0,0.0,0.0,0.0,0.0,0.0,0.0,0.0,0.0,0.0,0.0,0.0,0.0,0.0,0.0,0.0,0.0,0.0,0.0,0.0,0.0,0.0,0.0,0.0,0.0,0.0,0.0,0.0,0.0,0.0,0.0,0.0,0.0,0.0,0.0,0.0,0.0,0.0,0.0,0.0,0.0,0.0,0.0,0.0,0.0,0.0,0.0,0.0,0.0,0.0,0.0,0.0,0.0,0.0,0.0,0.0,0.0,0.0,0.0,0.0,0.0,0.0,0.0,0.0,0.0,0.0,0.0,0.0,0.0,0.0,0.0,0.0,0.0,0.0,0.0,0.0,0.0,0.0,0.0,0.0,0.0,0.0,0.0,0.0,0.0,0.0,0.0,0.0,0.0,0.0,0.0,0.0,0.0,0.0,0.0,0.0,0.0,0.0,0.0,0.0,0.0,0.0,0.0,0.0,0.0,0.0,0.0,0.0,0.0,0.0,0.0,0.0,0.0,0.0,0.0,0.0,0.0,0.0,0.0,0.0,0.0,0.0,0.0,0.0,0.0,0.0,0.0,0.0,0.0,0.0,0.0,0.0,0.0,0.0,0.0,0.0,0.0,0.0,0.0,0.0,0.0,0.0,0.0,0.0,0.0,0.0,0.0,0.0,0.0,0.0,0.0,0.0,0.0,0.0,0.0,0.0,0.0,0.0,0.0,0.0,0.0,0.0,0.0,0.0,0.0,0.0,0.0,3.3948,0.0,0.0,0.0,0.0,0.0,0.0,0.0,0.0,0.0,0.0,0.0,0.0,0.0,0.0,0.0,0.0,0.0,0.0,0.0,0.0,0.0,0.0,0.0,0.0,0.0,0.0,0.0,3.6214,3.5439,3.4641,3.415,3.3728,3.333,3.2793,3.2493,3.2493,3.1642,3.1073,3.0789,3.0521,3.0261,2.9994,2.9994,2.9994,2.9994,0.0,0.0,0.0,0.0,0.0,0.0,0.0,0.0,0.0,0.0,0.0,0.0,0.0,0.0,0.0,0.0,0.0,0.0,0.0,0.0,0.0,0.0,0.0,0.0,0.0,0.0,0.0,0.0,0.0,0.0,0.0,0.0,0.0,0.0,0.0,0.0,0.0,0.0,0.0,0.0,0.0,0.0,0.0,0.0,0.0,0.0,0.0,0.0,0.0,0.0,0.0,0.0,0.0,0.0,0.0,0.0,0.0,0.0,0.0,0.0,0.0,0.0,0.0,0.0,0.0,0.0,0.0,0.0,0.0,0.0,0.0,3.4454,0.0,0.0,0.0,0.0,0.0,0.0,0.0,0.0,0.0,0.0,0.0,0.0,0.0,0.0,0.0,0.0,0.0,0.0,0.0,0.0,0.0,0.0,0.0,3.7609,3.7332,3.705,3.6322,3.5548,3.4775,3.4285,3.3815,3.333,3.2793,3.2493,3.2493,3.168,3.1124,3.0789,3.0469,3.0229,2.9994,2.9994,3.0036,3.0118,3.0036,0.0,0.0,0.0,0.0,0.0,0.0,0.0,0.0,0.0,0.0,0.0,0.0,0.0,0.0,0.0,0.0,0.0,0.0,0.0,0.0,0.0,0.0,0.0,0.0,0.0,0.0,0.0,0.0,0.0,0.0,0.0,0.0,0.0,0.0,0.0,0.0,0.0,0.0,0.0,0.0,0.0,0.0,0.0,0.0,0.0,0.0,0.0,0.0,0.0,0.0,0.0,0.0,0.0,0.0,0.0,0.0,0.0,0.0,0.0,0.0,0.0,0.0,0.0,3.5402,3.5402,3.5402,3.5402,3.5402,3.5371,3.5108,3.5025,3.5075,3.4747,0.0,0.0,0.0,0.0,0.0,0.0,0.0,0.0,0.0,0.0,0.0,0.0,0.0,0.0,0.0,0.0,0.0,0.0,0.0,0.0,0.0,3.7447,3.7038,3.6768,3.5871,3.5054,3.4494,3.4014,3.3629,3.3317,3.2793,3.2493,3.2493,3.1872,3.1296,3.0789,3.0295,3.0033,2.9994,2.9994,3.0214,3.0587,3.018,0.0,0.0,0.0,0.0,0.0,0.0,0.0,0.0,0.0,0.0,0.0,0.0,0.0,0.0,0.0,0.0,0.0,0.0,0.0,0.0,0.0,0.0,0.0,0.0,0.0,0.0,0.0,0.0,0.0,0.0,0.0,0.0,0.0,0.0,0.0,0.0,0.0,0.0,0.0,0.0,0.0,0.0,0.0,3.3466,3.3874,0.0,0.0,0.0,0.0,0.0,0.0,0.0,0.0,0.0,0.0,0.0,0.0,0.0,3.5319,3.5319,3.5381,3.5402,3.5402,3.5402,3.5402,3.5402,3.5402,3.5402,3.5402,3.534,0.0,3.5924,3.5577,0.0,0.0,0.0,0.0,0.0,0.0,0.0,0.0,0.0,0.0,0.0,0.0,0.0,0.0,0.0,0.0,0.0,0.0,0.0,0.0,0.0,3.7551,3.7285,3.7155,3.6369,3.5656,3.5102,3.4457,3.3928,3.3554,3.2881,3.2493,3.2493,3.1757,3.1232,3.0961,3.0836,3.0794,3.0794,3.0794,3.0898,3.1084,3.0877,3.1059,3.1482,3.1272,0.0,0.0,0.0,0.0,0.0,0.0,0.0,0.0,0.0,0.0,0.0,0.0,0.0,0.0,0.0,0.0,0.0,0.0,0.0,0.0,0.0,0.0,0.0,0.0,0.0,0.0,0.0,0.0,0.0,0.0,0.0,0.0,0.0,0.0,0.0,0.0,0.0,0.0,0.0,3.3652,3.3874,3.4081,3.433,3.4495,0.0,0.0,0.0,0.0,0.0,0.0,0.0,0.0,0.0,3.5402,3.5402,3.5402,3.5402,3.5402,3.5402,3.5402,3.5402,3.5402,3.5402,3.5402,3.5402,3.5402,3.5402,3.5671,3.6085,3.5659,3.5597,3.5782,0.0,0.0,0.0,0.0,3.5577,3.5577,0.0,0.0,0.0,0.0,0.0,0.0,0.0,0.0,0.0,0.0,0.0,0.0,3.79,3.7644,3.7494,3.7494,3.6816,3.618,3.5643,3.486,3.4175,3.3705,3.3045,3.2683,3.2683,3.187,3.1391,3.1286,3.1358,3.1408,3.1408,3.1477,3.158,3.1684,3.1753,3.1883,3.2074,3.1948,3.2241,0.0,0.0,0.0,0.0,0.0,0.0,0.0,0.0,0.0,0.0,0.0,0.0,0.0,0.0,0.0,0.0,0.0,0.0,0.0,0.0,0.0,0.0,0.0,0.0,0.0,0.0,0.0,0.0,0.0,0.0,0.0,0.0,0.0,0.0,0.0,0.0,0.0,0.0,3.4268,3.4309,3.4418,3.4729,3.4951,0.0,0.0,0.0,0.0,0.0,0.0,3.5402,3.5402,3.5402,3.5402,3.5402,3.5402,3.5402,3.5402,3.5464,3.5588,3.5588,3.565,3.5754,3.5754,3.5754,3.5754,3.5754,3.5961,3.623,3.5775,3.5712,3.594,3.594,3.6002,3.6106,3.6106,3.6106,3.6106,0.0,0.0,0.0,0.0,0.0,0.0,0.0,0.0,0.0,0.0,0.0,3.79,3.79,3.7644,3.7494,3.7494,3.6816,3.618,3.5643,3.486,3.4175,3.3705,3.3361,3.3173,3.3173,3.25,3.2011,3.1755,3.1524,3.1408,3.1408,3.1661,3.2014,3.2469,3.2711,3.2836,3.2821,3.2374,3.2928,3.4031,0.0,0.0,0.0,0.0,0.0,0.0,0.0,0.0,0.0,0.0,0.0,0.0,0.0,0.0,0.0,0.0,0.0,0.0,0.0,0.0,0.0,0.0,0.0,0.0,0.0,0.0,0.0,0.0,0.0,0.0,0.0,0.0,0.0,0.0,0.0,0.0,0.0,0.0,0.0,3.5299,3.5361,0.0,0.0,0.0,0.0,3.5402,3.5402,3.5402,3.5402,3.5402,3.5402,3.5402,3.5402,3.5402,3.5402,3.5402,3.563,3.6064,3.6064,3.6292,3.6742,3.6742,3.6742,3.6742,3.6742,3.6742,3.6742,3.625,3.6597,3.7384,3.7384,3.767,3.8063,3.8063,3.8063,3.8063,0.0,0.0,0.0,0.0,0.0,0.0,0.0,0.0,3.79,3.79,3.79,3.8019,3.8385,3.8341,3.8439,3.8804,3.8306,3.7715,3.7181,3.6381,3.5657,3.4962,3.4317,3.3535,3.2583,3.2613,3.2396,3.1934,3.2357,3.256,3.256,3.2818,3.3154,3.3534,3.3806,3.4146,3.4477,3.3924,3.4194,3.495,3.4867,3.5107,0.0,0.0,0.0,0.0,0.0,0.0,0.0,0.0,0.0,0.0,0.0,0.0,0.0,0.0,0.0,0.0,0.0,0.0,0.0,0.0,0.0,0.0,0.0,0.0,0.0,0.0,0.0,0.0,0.0,0.0,0.0,0.0,0.0,0.0,0.0,0.0,0.0,3.5381,3.5402,0.0,3.5402,3.5402,3.5402,3.5402,3.5402,3.5547,3.5837,3.5857,3.5981,3.6292,3.6292,3.6292,3.6292,3.6292,3.6375,3.654,3.654,3.6639,3.6804,3.6804,3.6804,3.6804,3.6804,3.6804,3.6784,3.6618,3.6763,3.7053,3.7053,3.7156,3.7301,3.7301,3.7301,3.7301,0.0,0.0,0.0,0.0,0.0,0.0,0.0,0.0,3.8463,3.8463,3.8463,3.8606,3.896,3.9012,3.9169,3.9561,3.9103,3.8603,3.8163,3.7306,3.6525,3.5913,3.508,3.4115,3.2993,3.3191,3.3056,3.2538,3.3078,3.3324,3.3338,3.3826,3.4163,3.4401,3.4991,3.5474,3.5817,3.5612,3.5694,3.5995,3.6173,3.6499,3.6918,0.0,0.0,0.0,0.0,0.0,0.0,0.0,0.0,0.0,0.0,0.0,0.0,0.0,0.0,0.0,0.0,0.0,0.0,0.0,0.0,0.0,0.0,0.0,0.0,0.0,0.0,0.0,0.0,0.0,0.0,0.0,0.0,0.0,0.0,0.0,3.5402,3.5402,3.5402,3.5402,3.5402,3.5531,3.563,3.563,3.5775,3.6002,3.6313,3.6349,3.6478,3.6784,3.6804,3.6804,3.6804,3.6804,3.6887,3.7032,3.7032,3.7115,3.726,3.726,3.726,3.726,3.726,3.726,3.726,3.726,3.726,3.726,3.7094,3.7136,3.726,3.726,3.726,3.726,0.0,0.0,0.0,0.0,0.0,0.0,0.0,3.9898,3.9587,3.9587,3.9587,3.9613,3.9613,3.9613,3.9639,3.9639,3.9167,3.8766,3.8472,3.748,3.6776,3.6471,3.5597,3.4935,3.4527,3.4241,3.3932,3.3622,3.3614,3.365,3.3671,3.4547,3.4955,3.5024,3.6213,3.6752,3.6783,3.7311,3.7391,3.7183,3.7133,3.7495,3.804,0.0,0.0,0.0,0.0,0.0,0.0,0.0,0.0,0.0,0.0,0.0,0.0,0.0,0.0,0.0,0.0,0.0,0.0,0.0,0.0,0.0,0.0,0.0,0.0,0.0,0.0,0.0,0.0,0.0,0.0,0.0,0.0,0.0,3.5572,3.5433,3.5433,3.5418,3.5438,3.5423,3.5423,3.5837,3.6106,3.6106,3.654,3.6804,3.6825,3.6825,3.6825,3.6846,3.6846,3.6846,3.6846,3.6846,3.7074,3.7508,3.7508,3.7773,3.8208,3.8208,3.8208,3.8208,3.8208,3.8208,3.8208,3.8208,3.8208,3.8167,3.7711,3.7815,3.8208,3.8208,3.8208,3.8208,0.0,0.0,0.0,0.0,0.0,0.0,0.0,3.979,3.9587,3.9587,3.9587,3.9744,4.0136,4.0188,4.0371,4.0776,4.053,4.0218,3.9929,3.9474,3.8696,3.7606,3.6544,3.5599,3.4803,3.4331,3.4044,3.396,3.4171,3.4485,3.4922,3.5598,3.6118,3.6539,3.7294,3.7748,3.7971,3.8291,3.8528,3.867,3.8236,3.8276,3.8618,0.0,0.0,0.0,0.0,0.0,0.0,0.0,0.0,0.0,0.0,0.0,0.0,0.0,0.0,0.0,0.0,0.0,0.0,0.0,0.0,0.0,0.0,0.0,0.0,0.0,0.0,0.0,0.0,0.0,0.0,0.0,3.7924,3.7503,3.6279,3.6132,3.6039,3.5793,3.607,3.6186,3.593,3.6333,3.6618,3.6618,3.6742,3.6949,3.7281,3.7301,3.7446,3.7798,3.7835,3.7835,3.7835,3.7835,3.7897,3.8022,3.8022,3.8084,3.8208,3.8208,3.8208,3.8208,3.8208,3.8208,3.8208,3.8208,3.8208,3.8187,3.8063,3.8084,3.8208,3.8208,3.8208,3.8208,0.0,0.0,0.0,0.0,0.0,0.0,0.0,4.0463,4.0318,4.0318,4.0318,4.0423,4.0737,4.0789,4.0919,4.1285,4.106,4.0833,4.0681,4.0211,3.9465,3.8383,3.724,3.6377,3.5822,3.5157,3.4977,3.5365,3.5519,3.5943,3.6625,3.7243,3.7619,3.7841,3.8551,3.884,3.8802,3.9063,3.9284,3.9451,3.9089,3.9037,3.9193,3.9388,3.9465,3.9503,3.9645,3.9697,3.9633,3.9167,0.0,0.0,0.0,0.0,0.0,0.0,0.0,0.0,0.0,0.0,0.0,0.0,0.0,0.0,0.0,0.0,0.0,0.0,0.0,0.0,0.0,0.0,0.0,0.0,3.91,3.8768,3.7871,3.7252,3.6776,3.6437,3.6844,3.7013,3.6649,3.7013,3.7235,3.711,3.7281,3.7525,3.7794,3.7777,3.7918,3.8187,3.8208,3.8208,3.8208,3.8208,3.8208,3.8208,3.8208,3.8208,3.8208,3.8208,3.8208,3.8208,3.8208,3.8208,3.8208,3.8208,3.8208,3.8208,0.0,0.0,0.0,0.0,3.8208,3.8208,0.0,0.0,0.0,0.0,0.0,0.0,0.0,4.1435,4.1311,4.1311,4.1311,4.1311,4.1311,4.1311,4.1311,4.1311,4.1085,4.0959,4.0959,4.0211,3.9543,3.8961,3.7828,3.7234,3.7294,3.6432,3.6425,3.734,3.734,3.7739,3.8517,3.909,3.9228,3.908,3.9873,3.9945,3.9448,3.9682,3.976,3.9697,3.9697,3.9697,3.9697,3.9697,3.9697,3.9697,3.9697,3.9697,3.9671,3.9388,0.0,0.0,0.0,0.0,0.0,0.0,0.0,0.0,0.0,0.0,0.0,0.0,0.0,0.0,0.0,0.0,0.0,0.0,0.0,0.0,0.0,0.0,0.0,0.0,4.053,4.0358,3.9923,3.8842,3.7901,3.7354,3.775,3.7912,3.7481,3.7864,3.8007,3.7669,3.8009,3.8241,3.8208,3.8208,0.0,0.0,0.0,3.8208,3.8208,3.8208,3.8229,3.827,3.827,3.8312,3.8353,3.8353,3.8332,3.827,3.827,3.8233,3.8208,3.8249,3.8312,3.8353,3.8249,3.8208,3.8208,3.8208,3.8208,3.8208,0.0,0.0,0.0,0.0,0.0,0.0,0.0,4.1336,4.1311,4.1311,4.1311,4.1311,4.1311,4.1311,4.1311,4.1311,4.1261,4.121,4.121,4.0682,4.0198,3.9853,3.8554,3.8043,3.8451,3.7631,3.7686,3.8785,3.8785,3.9119,3.9751,4.0084,4.0335,4.0508,4.091,4.0784,4.0271,4.0311,4.0099,3.9697,3.9697,3.9697,3.9697,3.9697,3.9697,3.9697,3.9697,3.9697,3.9671,3.9388,3.9297,3.9331,3.9421,0.0,0.0,0.0,0.0,0.0,0.0,0.0,0.0,0.0,0.0,0.0,0.0,0.0,0.0,0.0,0.0,0.0,0.0,0.0,0.0,4.3027,4.2661,4.2141,4.1464,4.1299,4.0557,3.8775,3.8941,3.8953,3.8332,3.8691,3.8836,3.8489,3.8557,3.8503,3.8225,3.8208,3.8208,3.8208,3.8208,3.8208,3.8208,3.8208,3.8357,3.8696,3.8696,0.0,3.9251,3.9251,3.9047,3.8696,3.8696,3.8506,3.8229,3.8547,3.8903,3.9171,3.846,3.8208,3.8208,3.8208,3.8208,3.8208,0.0,0.0,0.0,0.0,0.0,0.0,0.0,4.1311,4.1311,4.1311,4.1311,4.1311,4.1311,4.1311,4.1311,4.1311,4.1311,4.1311,4.1311,4.0808,4.0427,4.03,3.9375,3.9038,3.944,3.9005,3.9275,4.0248,4.0248,4.0616,4.1302,4.143,4.1527,4.1554,4.1702,4.1441,4.0901,4.0901,4.075,4.0512,4.0512,4.0512,4.0437,3.9898,3.9697,3.9697,3.9697,3.9873,4.0073,3.9942,4.0078,4.0313,4.0466,4.0487,4.0577,0.0,0.0,0.0,0.0,0.0,0.0,0.0,0.0,0.0,0.0,0.0,0.0,0.0,0.0,4.4233,4.4673,0.0,4.4032,4.4016,4.4005,4.3802,4.3219,4.3079,4.2294,4.0242,4.0097,3.9951,3.9455,3.9426,3.9308,3.8979,3.8797,3.8632,3.847,3.8482,3.8506,3.8506,3.8733,3.8837,3.8837,3.8837,3.8944,3.9134,3.9134,3.9275,3.9502,3.9502,3.9378,3.9134,3.9134,3.9027,3.8857,3.9068,3.9296,3.9461,3.9023,3.8837,3.8837,3.8837,3.8837,3.8837,0.0,0.0,0.0,0.0,0.0,0.0,0.0,4.1311,4.1311,4.1311,4.1311,4.1311,4.1311,4.1311,4.1311,4.1311,4.1311,4.1311,4.1311,4.0975,4.0747,4.0747,4.0284,4.0197,4.0588,4.0482,4.0809,4.1628,4.1628,4.1962,4.2597,4.2597,4.2513,4.235,4.235,4.2021,4.1478,4.1478,4.1403,4.1289,4.1289,4.1289,4.1227,4.0337,4.0023,4.0023,4.0023,4.0287,4.0663,4.0663,4.0951,4.1327,4.1482,4.1559,4.1651,4.2075,4.2235,0.0,0.0,0.0,0.0,0.0,0.0,0.0,0.0,0.0,4.4878,4.5478,4.4961,4.4602,4.5318,4.5135,4.4881,4.4957,4.5245,4.5309,4.4913,4.4567,4.3695,4.1923,4.1343,4.0938,4.0539,4.0198,3.9876,3.9573,3.9309,3.9098,3.8987,3.9008,3.9012,3.8944,3.9299,3.9502,3.9502,3.9502,3.9544,3.9647,3.9647,3.9688,3.9771,3.9771,3.9709,3.9626,3.9544,3.9564,3.9647,3.9647,3.9688,3.9771,3.9771,3.9771,3.9768,3.9564,3.9502,3.9502,0.0,0.0,0.0,0.0,0.0,0.0,0.0,0.0,4.1311,4.1311,4.1311,4.1311,4.1311,4.1311,4.1311,4.1311,4.1311,4.1311,4.1311,4.1515,4.1647,4.1647,4.1377,4.1574,4.2309,4.18,4.1947,4.2802,4.2802,4.2855,4.2933,4.2933,4.2922,4.2914,4.2914,4.2612,4.2098,4.2098,4.1781,4.1289,4.1289,4.1289,4.1289,4.1177,4.1113,4.1113,4.1113,4.1177,4.1214,4.1214,4.1239,4.1443,4.2217,4.2451,4.262,4.3443,0.0,4.4036,4.4141,4.4332,4.4522,4.46,4.4627,4.4811,0.0,0.0,4.4878,4.5478,4.5085,4.4993,4.6158,4.5907,4.5897,4.7116,4.6969,4.6557,4.6155,4.5799,4.5183,4.4063,4.2863,4.1879,4.1267,4.1154,4.1025,4.0808,4.0747,4.0526,3.9967,3.9965,3.9798,3.942,3.9482,3.9502,3.9502,3.9502,3.9709,4.0123,4.0123,4.0347,4.0755,4.0755,4.051,4.0102,3.9688,3.973,4.0123,4.0123,4.0368,4.0755,4.0755,4.0755,4.0652,3.9809,3.9502,3.9502,0.0,0.0,0.0,0.0,0.0,0.0,0.0,0.0,0.0,4.1311,4.1311,4.1311,4.1311,4.1611,4.1951,4.2252,4.2292,4.2292,4.2292,4.2268,4.2268,4.2268,4.2309,4.2434,4.2595,4.2652,4.2791,4.3014,4.3014,4.3014,4.3014,4.3014,4.3014,4.3014,4.3014,4.2889,4.2676,4.2676,4.2523,4.2283,4.2283,4.2283,4.2283,4.2283,4.2283,4.2194,4.1553,4.1636,0.0,0.0,4.2386,4.2879,4.3232,4.3363,4.3469,4.3987,4.4203,0.0,4.4504,4.46,4.4695,4.4695,4.4695,4.4773,4.5008,4.4878,4.4956,4.5924,4.5649,4.5583,4.6746,4.6758,4.6794,0.0,4.7577,4.7532,4.7176,4.6819,4.6265,4.5297,4.4796,4.3915,4.2323,4.2264,4.2231,4.1956,4.1806,4.1531,4.1052,4.0886,4.0725,4.0552,4.0808,4.0934,4.0934,4.0762,4.0762,4.097,4.0989,4.1128,4.1312,4.1816,4.1907,4.1628,4.0954,4.0782,4.0953,4.0702,4.0717,4.09,4.09,4.09,4.0838,4.0448,4.0323,4.0323,0.0,0.0,0.0,0.0,0.0,0.0,0.0,0.0,0.0,0.0,4.1559,4.1599,4.1756,4.2173,4.2591,4.2984,4.2997,4.2997,4.2997,4.297,4.2956,4.2956,4.3234,4.3272,4.3055,4.3286,4.3309,4.3101,4.3056,4.3014,4.3014,4.3014,4.3014,4.3014,4.3014,4.3014,4.3014,4.3014,4.3014,4.3014,4.3014,4.3014,4.3014,4.3014,4.3031,4.3,4.2167,4.2278,0.0,0.0,4.3388,4.3913,4.3996,4.4023,4.4064,4.4326,4.4408,4.4463,4.4641,4.4825,4.4904,4.4747,4.4825,4.4956,4.4956,4.4956,4.5257,4.6278,4.6159,4.6145,4.7124,4.7307,4.7359,4.7516,4.7911,4.807,4.7762,4.7486,4.7078,4.6386,4.6416,4.5917,4.4388,4.403,4.3813,4.3601,4.3347,4.2996,4.254,4.2261,4.2072,4.2031,4.2335,4.2539,4.254,4.2312,4.2137,4.2047,4.1987,4.1952,4.1991,4.2617,4.2903,4.2872,4.2195,4.1886,4.1851,4.1435,4.1291,4.1273,4.1128,4.1169,4.127,4.1128,4.1022,4.09,0.0,0.0,0.0,0.0,0.0,0.0,0.0,0.0,0.0,0.0,0.0,0.0,0.0,4.2971,4.2971,4.2997,4.2997,4.2997,4.2997,4.3546,4.3846,4.3846,4.4125,4.4259,4.4246,4.3697,4.3395,4.3381,4.3129,4.3014,4.3014,4.3014,4.3014,4.3014,4.3014,4.3014,4.3014,4.3014,4.3014,4.3014,4.3014,4.3014,4.3014,4.3014,4.3156,4.3367,4.3356,0.0,0.0,4.3738,4.3874,4.3955,4.4203,4.4285,0.0,4.46,4.4681,4.4681,4.4695,4.5139,4.5426,4.4852,4.5139,4.5583,4.5583,4.5583,4.5754,4.6356,4.6487,4.6644,4.7202,4.7307,4.749,4.8082,4.8187,4.807,4.7762,4.7703,4.7659,4.7551,4.7552,4.7627,0.0,4.6682,4.5974,4.6078,4.5707,4.5222,4.4641,4.4286,4.4013,4.3831,4.384,4.388,4.3936,4.3918,4.3758,4.3434,4.3054,4.2853,4.2853,4.2892,4.3109,4.3455,4.3033,4.285,4.2832,4.241,4.2244,4.2203,4.1767,4.185,4.2203,4.1747,4.1291,4.09,0.0,0.0,0.0,0.0,0.0,0.0,0.0,0.0,0.0,0.0,0.0,0.0,0.0,0.0,0.0,0.0,4.412,4.412,4.412,4.4316,4.4421,4.4421,4.4535,4.449,4.4299,4.4107,4.3793,4.3395,4.3323,4.317,4.3014,4.3014,4.3014,4.3014,4.3014,4.3014,4.3014,4.3014,4.3014,4.3014,4.3014,4.3101,4.3268,4.3268,4.3448,4.375,0.0,0.0,4.4025,4.4121,4.4272,4.4463,4.4558,4.4559,4.4573,4.4668,4.4695,4.4799,4.5191,4.5139,4.506,4.5243,4.5139,4.5113,4.5505,4.5609,4.587,4.6825,4.7034,4.7217,4.778,4.7911,4.7963,4.8161,4.8187,4.8157,4.8041,4.8026,4.8099,4.8251,4.8577,0.0,0.0,0.0,4.7783,4.7546,4.7312,4.7053,4.6699,4.6115,4.5955,4.6266,4.6043,4.6023,4.6305,4.556,4.5153,4.5028,4.4397,4.4408,4.4968,4.4626,4.4862,4.5437,4.4442,4.4022,4.3986,4.3349,4.3093,4.3072,4.2924,4.2946,4.3072,4.2903,4.2756,4.2535,0.0,0.0,0.0,0.0,0.0,0.0,0.0,0.0,0.0,0.0,0.0,0.0,0.0,0.0,0.0,0.0,0.0,4.4695,4.4695,4.4695,4.4695,4.4695,4.4695,4.4613,4.4463,4.4354,4.4121,4.3724,4.3614,4.3501,4.3321,4.3321,4.3321,4.3321,4.3321,4.3321,4.3321,4.3321,4.3321,4.3321,4.3321,4.3432,4.3572,4.3572,4.3777,0.0,0.0,0.0,4.4449,4.4449,4.4546,4.4695,4.4695,4.4695,4.4747,4.4956,4.5034,4.5113,4.5478,4.5466,4.5335,4.5296,4.5309,4.5388,4.5557,4.5923,4.6419,4.715,4.7464,4.7739,4.8134,4.8187,4.8187,4.8187,4.8187,4.8187,4.8187,4.8396,4.8662,4.9027,4.9553,5.0048,0.0,0.0,0.0,4.9419,4.9196,4.9059,4.898,4.8294,4.8088,4.8529,4.8163,4.8117,4.8427,4.7562,4.6904,4.6474,4.6009,4.608,4.6588,4.63,4.6533,4.7133,4.6144,4.5699,4.5644,4.5045,4.4789,4.4768,4.463,4.4583,4.4588,4.4415,4.4367,4.4237,0.0,0.0,0.0,0.0,0.0,0.0,0.0,0.0,0.0,0.0,0.0,0.0,0.0,0.0,0.0,0.0,0.0,0.0,4.4695,4.4695,4.4695,4.4695,4.4695,4.4695,4.4695,4.4463,4.4313,4.4299,4.4064,4.3913,4.3899,4.3899,4.3899,4.3899,4.3899,4.3899,4.3899,4.3899,4.3899,4.3899,4.3899,4.3913,4.3927,4.3927,0.0,0.0,0.0,0.0,4.4695,4.4695,4.4695,4.4721,4.4747,4.4747,4.4852,4.5478,4.5609,4.5609,4.5635,4.6029,4.6147,4.5074,4.5637,4.633,4.5792,4.6523,4.7307,4.7333,4.7806,4.8187,0.0,0.0,4.8187,4.8187,4.8187,4.8213,4.8239,4.8736,4.9311,0.0,0.0,0.0,0.0,0.0,0.0,5.1691,5.131,5.1171,5.138,5.0703,5.0376,5.053,5.0198,5.0073,5.0216,4.9813,4.9,4.7813,4.7813,4.7813,4.7813,4.7813,4.8077,4.8486,4.8018,4.7813,4.7777,4.7393,4.7228,4.7183,4.6784,4.6683,4.6677,4.6247,4.6124,4.5927,0.0,0.0,0.0,0.0,0.0,0.0,0.0,0.0,0.0,0.0,0.0,0.0,0.0,0.0,0.0,0.0,0.0,0.0,4.4695,4.4695,4.4695,4.4695,4.4695,4.4695,4.4695,4.4627,4.4504,4.4299,4.4231,4.4119,4.3899,4.3899,4.3899,4.3899,4.3899,4.3899,4.3899,4.3899,4.3899,4.3899,0.0,4.4023,4.419,0.0,0.0,0.0,0.0,0.0,4.4695,4.4695,4.4695,4.4773,4.5243,4.5374,4.5478,4.6081,4.5936,4.5687,4.6159,4.5741,4.5283,4.5898,4.5924,4.6015,4.6706,4.7098,4.7438,4.7885,4.8082,4.8187,0.0,4.8187,4.8187,4.8187,4.8187,0.0,4.8814,4.8997,0.0,5.0461,0.0,5.1193,5.2171,5.2406,0.0,5.3469,5.2763,5.242,5.2636,5.2001,5.1829,5.2251,5.1644,5.1474,5.1813,5.1124,5.0323,4.9479,4.9479,4.9479,4.9479,4.9479,4.97,5.0021,4.964,4.9479,4.9462,4.9044,4.8882,4.8882,4.876,4.8753,4.8737,4.864,4.8392,4.8104,0.0,0.0,0.0,0.0,0.0,0.0,0.0,0.0,0.0,0.0,0.0,0.0,0.0,0.0,0.0,0.0,0.0,0.0,0.0,4.4695,4.4695,4.4695,4.4695,4.4695,4.4695,4.4695,4.4627,4.449,4.449,4.4408,4.4244,4.4244,4.4244,4.4244,4.4244,4.4244,4.4244,4.4244,4.4244,0.0,0.0,0.0,0.0,0.0,0.0,0.0,0.0,0.0,0.0,0.0,0.0,4.5139,4.5478,4.578,4.6055,4.6409,4.6278,4.6003,4.6081,4.582,4.5584,4.6003,4.6224,4.6523,4.7136,4.749,4.7806,4.8134,4.8187,4.8187,4.8187,4.8187,4.8187,4.8187,0.0,0.0,4.9049,4.952,5.0095,0.0,5.1246,0.0,5.2433,5.2955,5.3504,5.4158,5.37,5.3581,5.3969,5.3308,5.3089,5.3376,5.2663,5.2325,5.2412,5.1953,5.1422,5.0842,5.0842,5.0842,5.0842,5.0842,5.0948,5.1124,5.093,5.0842,5.0824,5.0612,5.05,5.05,5.05,5.0394,5.0252,5.0252,4.9896,4.9455,0.0,0.0,0.0,0.0,0.0,0.0,0.0,0.0,0.0,0.0,0.0,0.0,0.0,0.0,0.0,0.0,0.0,0.0,0.0,0.0,4.4695,4.4695,4.4695,4.4695,4.4695,4.4695,4.4695,4.4695,4.4695,4.4695,4.4695,4.4695,4.4695,4.4695,4.4695,4.4695,4.4695,4.4695,4.4695,4.4695,4.4695,0.0,0.0,0.0,0.0,0.0,0.0,0.0,0.0,0.0,4.5714,4.5727,4.5792,4.6133,4.6513,4.6592,4.6487,4.6278,4.5832,4.6055,4.629,4.5936,4.6576,4.7333,4.7411,4.7832,4.8187,4.8187,4.8187,4.8187,4.8187,4.8187,4.8187,4.8187,4.871,4.9128,4.9206,5.0121,5.0827,5.0906,5.1831,5.2537,5.2616,5.3583,5.4236,5.4314,5.4314,5.455,5.5072,5.4402,5.3963,5.3861,5.3213,5.2757,5.2481,5.2481,5.2308,5.196,5.196,5.196,5.196,5.196,5.196,5.196,5.196,5.196,5.196,5.196,5.196,5.196,5.196,5.1726,5.1422,5.1422,5.0983,5.0459,0.0,0.0,0.0,0.0,0.0,0.0,0.0,0.0,0.0,0.0,4.4695,4.4695,0.0,0.0,0.0,0.0,0.0,0.0,0.0,0.0,0.0,4.4695,4.4695,4.4695,4.4695,4.4695,4.4695,4.4695,4.4695,4.4695,4.4695,4.4695,4.4695,4.4695,4.4695,4.4695,4.4695,4.4695,4.4695,4.4695,4.4695,0.0,0.0,0.0,0.0,0.0,0.0,0.0,0.0,0.0,4.633,4.6435,4.6863,4.6773,4.6592,4.7034,4.6497,4.5832,4.6252,4.6055,4.5963,4.6811,4.7136,4.7438,4.7937,4.8134,0.0,0.0,4.8187,4.8187,4.8187,4.8187,4.8187,4.8187,4.871,4.9259,4.9703,5.0357,5.0969,0.0,5.2067,5.2694,5.3191,5.3818,0.0,5.4916,5.4942,5.4994,5.5099,5.4402,5.3725,5.3118,5.2964,5.2878,5.2809,5.2809,5.2774,5.2705,5.2705,5.2705,5.2705,5.2705,5.2705,5.2705,5.2705,5.2705,5.2705,5.2705,5.2705,5.2705,5.2705,5.2671,5.2619,5.2619,5.2335,5.2005,0.0,0.0,0.0,0.0,0.0,0.0,0.0,4.4695,4.4695,4.4695,4.4695,4.4695,4.4695,4.4695,0.0,0.0,0.0,0.0,0.0,0.0,0.0,0.0,0.0,0.0,4.4695,4.4695,4.4695,4.4695,0.0,4.4695,4.4695,4.4695,4.4695,4.4695,4.4695,4.4695,4.4695,4.4695,4.4695,4.4695,4.4695,4.4695,0.0,0.0,0.0,0.0,0.0,0.0,0.0,0.0,4.6917,4.6903,4.6891,4.6917,4.6851,4.6497,4.6027,4.5661,4.5936,4.6055,4.6264,4.7098,4.7556,4.7832,4.8134,0.0,0.0,0.0,4.8187,4.8187,4.8187,4.8187,4.8291,4.8605,4.9154,4.9729,5.0304,5.088,5.1413,5.1988,5.2589,5.3191,5.3766,5.4341,5.4785,5.5072,5.5099,5.5099,5.5099,5.4402,5.3657,5.2929,5.2895,5.2895,5.2895,5.2895,5.2895,5.2895,5.3188,5.3314,5.3314,5.3632,5.3783,5.3783,5.3783,5.3783,5.3783,5.3783,5.3783,5.3783,5.3783,5.3783,5.3783,5.3783,5.3556,5.3257,0.0,0.0,0.0,0.0,0.0,0.0,0.0,4.4695,4.4695,4.4695,4.4695,4.4695,4.4695,4.4695,4.4695,0.0,0.0,0.0,0.0,0.0,0.0,0.0,0.0,0.0,0.0,0.0,0.0,4.4695,4.4695,0.0,0.0,0.0,0.0,0.0,4.4695,4.4695,4.4695,4.4695,4.4695,0.0,0.0,4.4695,0.0,0.0,0.0,0.0,0.0,0.0,0.0,0.0,4.7307,4.7176,4.6525,4.659,4.6758,4.587,4.5609,4.5635,4.5754,4.6212,4.6787,4.7374,4.7858,4.8187,4.8187,4.8187,0.0,4.8187,4.8187,4.8187,4.8187,4.8187,4.8396,4.8997,4.9546,5.0121,5.0723,5.1256,5.1831,5.2433,5.3034,0.0,5.4158,5.4759,0.0,5.5099,5.5099,5.5032,5.4881,5.443,5.3835,5.308,5.3188,5.3264,5.3264,5.3264,5.3264,5.3264,5.3683,5.3884,5.3909,5.4378,5.4597,5.4597,5.4597,5.4597,5.4597,5.4597,5.4597,5.4597,5.4597,5.4597,5.4597,5.4597,5.4402,5.417,0.0,0.0,0.0,0.0,0.0,0.0,0.0,4.4695,4.4695,4.4695,4.4695,4.4695,4.4695,4.4695,4.4695,0.0,0.0,0.0,0.0,0.0,0.0,0.0,0.0,0.0,0.0,0.0,0.0,4.4695,4.4695,0.0,0.0,0.0,0.0,0.0,0.0,4.4695,4.4695,4.4695,0.0,0.0,0.0,0.0,0.0,0.0,0.0,0.0,0.0,0.0,0.0,0.0,0.0,4.7124,4.6027,4.5714,4.574,4.5635,0.0,0.0,4.6278,4.6813,4.7374,4.7977,4.8161,4.8187,4.8187,0.0,4.8187,4.8187,4.8187,4.8187,4.8187,4.8187,4.8396,4.8997,0.0,5.0121,5.0723,5.1256,5.1831,5.2433,0.0,0.0,5.4158,5.4759,5.5099,5.5099,5.5099,5.4814,5.4149,5.4501,5.4378,5.365,5.4152,5.4429,5.4429,5.4429,5.4429,5.4429,5.4496,5.4522,5.4522,5.4572,5.4597,5.4597,5.4597,5.4597,5.4597,5.4597,5.4597,5.4597,5.4597,5.4597,5.4597,5.4597,5.4579,5.4544,0.0,0.0,0.0,0.0,0.0,0.0,4.4695,4.4695,4.4695,4.4695,4.4695,4.4695,4.4695,4.4695,4.4695,0.0,0.0,0.0,0.0,0.0,0.0,0.0,0.0,0.0,0.0,0.0,4.4695,4.4695,4.4695,0.0,0.0,0.0,0.0,0.0,0.0,4.4695,4.4695,4.4695,0.0,0.0,0.0,0.0,0.0,0.0,0.0,0.0,0.0,0.0,4.7307,4.7307,0.0,0.0,4.574,4.5348,0.0,0.0,4.5609,4.5792,4.672,4.7124,4.7438,4.8056,4.8187,4.8187,4.8187,0.0,4.8187,4.8187,4.8187,4.8187,4.8187,4.85,4.8919,0.0,0.0,0.0,5.1204,5.1779,5.2354,5.2955,5.353,5.4105,5.468,5.4968,5.5099,5.5099,5.5412,5.5275,5.4501,5.4697,5.4633,5.4245,5.4471,5.4597,5.4597,5.4597,5.4597,5.4597,5.4931,5.5082,5.5082,5.5433,5.5541,5.5541,5.5541,5.5541,5.5541,5.5541,5.5541,5.5541,5.5541,5.5541,5.5541,5.5541,5.5541,5.5541,0.0,0.0,0.0,0.0,0.0,4.4695,4.4695,4.4695,4.4695,4.4695,4.4695,4.4695,4.4695,4.4695,4.4695,4.4695,4.4695,0.0,0.0,0.0,0.0,0.0,0.0,0.0,0.0,0.0,4.4695,4.4695,4.4695,4.4695,0.0,0.0,4.4695,4.4695,0.0,0.0,0.0,0.0,0.0,0.0,0.0,0.0,0.0,0.0,0.0,0.0,0.0,0.0,0.0,0.0,0.0,0.0,0.0,0.0,0.0,0.0,4.5727,4.6093,4.7046,4.7438,4.7661,4.8082,4.8187,4.8187,0.0,0.0,4.8187,4.8187,4.8187,4.8187,4.8187,4.8683,4.9285,0.0,0.0,5.0984,5.1518,5.2119,5.272,5.3321,5.387,5.4445,5.5046,5.5099,5.5177,5.5334,5.57,5.5742,5.5321,5.5312,5.516,5.4841,5.4981,5.5056,5.5056,5.5056,5.5056,5.5082,5.5458,5.5641,5.5641,5.6043,5.62,5.62,5.62,5.62,5.62,5.62,5.62,5.62,5.62,5.62,5.62,5.62,5.62,5.62,0.0,0.0,0.0,0.0,0.0,0.0,4.4695,4.4695,4.4695,4.4695,4.4695,4.4695,4.4695,4.4695,4.4695,4.4695,4.4695,0.0,0.0,0.0,0.0,0.0,0.0,0.0,0.0,0.0,4.4695,4.4695,4.4695,4.4695,4.4695,4.4695,4.4695,4.4695,0.0,0.0,0.0,0.0,0.0,0.0,0.0,0.0,0.0,0.0,0.0,0.0,0.0,0.0,0.0,0.0,0.0,0.0,0.0,4.4721,4.4825,4.5426,4.6029,4.6618,4.715,4.7739,4.8187,4.8187,4.8187,4.8187,0.0,4.8187,4.8187,4.8187,4.8187,4.8187,4.8187,4.8683,4.9285,0.0,0.0,0.0,5.1518,5.2119,5.272,5.3321,5.387,5.4445,5.5046,5.5099,5.5334,5.584,5.5909,5.608,5.6467,5.6482,5.617,5.5426,5.5917,5.6175,5.6175,5.6175,5.6175,5.6175,5.6175,5.6175,5.6175,5.62,5.62,5.62,5.62,5.62,5.62,5.62,5.62,5.62,5.62,5.62,5.62,5.62,5.62,5.62,0.0,0.0,0.0,0.0,0.0,0.0,0.0,4.4695,4.4695,4.4695,4.4695,4.4695,4.4695,4.4695,4.4695,4.4695,4.4695,0.0,0.0,0.0,0.0,0.0,0.0,0.0,0.0,0.0,4.4695,4.4695,4.4695,4.4695,4.4695,4.4695,4.4695,4.4695,4.4695,4.4695,0.0,0.0,0.0,0.0,0.0,0.0,0.0,0.0,0.0,0.0,0.0,0.0,0.0,0.0,0.0,0.0,0.0,0.0,0.0,4.6029,4.6356,4.6696,4.7649,4.8056,4.8187,4.8187,4.8187,4.8187,4.8187,4.8187,4.8187,4.8187,4.8187,4.8317,4.8736,4.9259,4.9834,5.0435,0.0,0.0,5.2119,5.272,5.3321,5.387,5.4471,5.4889,5.5072,5.5438,5.5726,5.5892,5.6658,5.7077,5.6907,5.7053,5.6756,5.5961,5.61,5.62,5.62,5.62,5.62,5.62,5.62,5.62,5.62,5.62,5.62,5.62,5.62,5.62,5.62,5.62,5.62,5.62,5.62,5.62,5.62,5.62,5.62,5.62,0.0,0.0,0.0,0.0,0.0,0.0,0.0,4.4695,4.4695,4.4695,4.4695,4.4695,4.4695,4.4695,4.4695,4.4695,4.4695,0.0,0.0,0.0,0.0,0.0,0.0,0.0,0.0,4.4695,4.4695,4.4695,4.4695,4.4695,4.4695,4.4695,4.4695,4.4695,4.4695,4.4695,0.0,0.0,0.0,0.0,0.0,0.0,4.4825,0.0,0.0,0.0,0.0,0.0,0.0,0.0,0.0,0.0,0.0,0.0,0.0,0.0,4.6644,4.6996,4.7951,4.8187,4.8187,4.8187,4.8187,4.8187,4.8187,4.8187,4.8187,4.8187,4.837,4.8657,4.9023,4.9729,5.0357,5.0749,5.1256,5.1805,5.2406,5.3008,5.3687,5.4445,5.4863,5.5099,5.5099,5.5595,5.5987,5.6205,5.7129,5.7546,5.7233,5.7318,5.7037,5.6237,5.62,5.62,5.62,5.62,5.62,5.62,5.62,5.62,5.62,5.62,5.62,5.62,5.62,5.62,0.0,5.62,5.62,5.62,5.62,5.62,5.62,5.62,5.62,5.62,0.0,0.0,0.0,0.0,0.0,0.0,0.0,4.4695,4.4695,4.4695,4.4695,4.4695,4.4695,4.4695,4.4695,4.4695,0.0,0.0,0.0,0.0,0.0,0.0,0.0,0.0,4.4695,4.4695,4.4695,4.4695,4.4695,4.4695,4.4695,4.4695,4.4695,4.4695,4.4695,4.4695,4.4695,0.0,0.0,0.0,4.4695,4.4721,0.0,0.0,0.0,0.0,0.0,0.0,0.0,0.0,0.0,0.0,0.0,0.0,0.0,0.0,0.0,0.0,0.0,4.8187,4.8187,4.8187,4.8187,4.8187,4.8187,4.8187,0.0,4.8265,4.871,4.9128,4.9206,5.0095,5.0827,5.0838,5.1309,5.1884,5.2485,5.3112,5.3896,5.4968,5.5099,5.5125,5.5151,5.5647,5.6205,5.6824,5.7416,5.7649,5.7444,5.7397,5.7037,5.6273,5.6219,5.62,5.62,5.62,5.62,5.62,5.62,5.62,5.62,5.62,5.62,5.62,5.62,5.62,5.62,5.62,5.62,5.62,5.62,5.62,5.62,5.62,5.62,5.62,0.0,0.0,0.0,0.0,0.0,0.0,0.0,0.0,0.0,0.0,4.4695,4.4695,4.4695,4.4695,4.4695,0.0,0.0,0.0,0.0,0.0,0.0,0.0,0.0,0.0,4.4695,4.4695,4.4695,4.4695,4.4695,4.4695,4.4695,4.4695,4.4695,4.4695,4.4695,4.4695,4.4695,4.4695,0.0,0.0,4.4695,4.4982,0.0,0.0,0.0,0.0,4.6644,4.6316,0.0,0.0,0.0,0.0,0.0,0.0,0.0,0.0,4.7545,4.8015,4.8161,0.0,4.8187,4.8187,4.8187,4.8187,0.0,4.8187,4.8344,0.0,0.0,4.9363,5.0252,5.0618,5.0917,5.135,5.191,5.2485,5.3086,5.4053,5.4811,5.5072,5.5099,5.5255,5.5674,5.6232,5.6824,5.746,5.8017,5.8153,5.7802,5.7541,5.7163,5.6674,5.6365,5.62,5.62,5.62,5.62,5.62,5.62,5.62,5.62,5.62,5.62,5.62,5.62,5.62,5.62,5.62,5.62,5.62,5.62,5.62,5.62,5.62,5.62,5.62,0.0,0.0,0.0,0.0,0.0,0.0,0.0,0.0,0.0,0.0,0.0,0.0,0.0,0.0,0.0,0.0,0.0,0.0,0.0,0.0,0.0,0.0,0.0,4.4695,4.4695,4.4695,4.4695,4.4695,4.4695,4.4695,4.4695,4.4695,4.4695,4.4695,4.4695,4.4695,4.4695,4.4695,4.4695,4.4695,4.4695,0.0,0.0,0.0,0.0,0.0,4.6501,4.6107,0.0,4.4904,4.4695,4.4799,0.0,0.0,0.0,0.0,4.7713,4.8187,4.8187,4.8187,4.8187,4.8187,4.8187,4.8187,4.8187,4.8422,0.0,0.0,0.0,5.0069,5.0697,5.0995,5.1256,5.1544,5.2093,5.2798,5.3635,5.4759,5.5386,5.5125,5.5308,5.5595,5.5866,5.6458,5.7033,5.7643,5.8183,5.8274,5.7695,5.7505,5.7127,5.6547,5.631,5.62,5.62,5.62,5.62,5.62,5.62,5.62,5.62,5.62,5.62,5.62,5.62,5.62,5.62,5.62,5.62,5.62,5.62,5.62,5.62,5.62,5.62,5.62,0.0,0.0,0.0,0.0,0.0,0.0,0.0,0.0,0.0,0.0,0.0,0.0,0.0,0.0,0.0,0.0,0.0,0.0,0.0,0.0,0.0,0.0,4.4695,4.4695,4.4695,4.4695,4.4695,4.4695,4.4695,4.4695,4.4695,4.4695,4.4695,4.4695,4.4695,4.4695,4.4695,4.4695,4.4695,4.4695,4.4695,0.0,0.0,0.0,0.0,0.0,0.0,0.0,0.0,4.4878,4.4695,4.4825,4.5505,0.0,0.0,0.0,0.0,0.0,4.8187,4.8187,4.8187,4.8187,4.8187,4.8187,4.8187,4.8657,0.0,0.0,0.0,5.0827,5.0906,5.1282,0.0,5.1727,5.2302,5.3138,5.4184,5.5177,5.5621,5.5151,5.5569,5.5935,5.604,5.6588,5.7163,5.7773,5.8235,5.8185,5.7433,5.7397,5.7037,5.6237,5.62,5.62,5.62,5.62,5.62,5.62,5.62,5.62,5.62,5.62,5.62,5.62,5.62,5.62,5.62,5.62,5.62,5.62,5.62,5.62,5.62,5.62,5.62,5.62,0.0,0.0,0.0,0.0,0.0,0.0,0.0,0.0,0.0,0.0,0.0,0.0,0.0,0.0,0.0,0.0,0.0,0.0,0.0,0.0,0.0,4.4695,4.4695,4.4695,4.4695,4.4695,4.4695,4.4695,4.4695,4.4695,4.4695,4.4695,4.4695,4.4695,4.4695,4.4695,4.4695,4.4695,4.4695,4.4695,4.4695,0.0,0.0,0.0,0.0,0.0,0.0,0.0,0.0,4.4721,4.4695,4.4878,4.6003,0.0,0.0,0.0,0.0,0.0,4.8187,4.8187,4.8187,4.8187,4.8187,4.8187,4.8187,4.8657,4.9232,0.0,0.0,5.0943,5.1387,5.1544,5.1779,5.2276,5.3243,5.4184,5.4863,5.5125,5.5203,5.5125,5.5569,5.6118,5.6597,5.7207,5.7782,5.834,5.8453,5.8185,5.7433,5.7397,5.7037,5.6237,5.62,5.62,5.62,5.62,5.62,5.62,5.62,5.62,5.62,5.62,5.62,5.62,5.62,5.62,5.62,5.62,5.62,5.62,5.62,5.62,5.62,5.62,5.62,5.62,0.0,0.0,0.0,0.0,0.0,0.0,0.0,0.0,0.0,0.0,0.0,0.0,0.0,0.0,0.0,0.0,0.0,0.0,0.0,0.0,4.4695,4.4695,4.4695,4.4695,4.4695,4.4695,4.4695,4.4695,4.4695,4.4695,4.4695,4.4695,4.4695,4.4695,4.4695,4.4695,4.4695,4.4695,4.4695,4.4695,0.0,0.0,0.0,0.0,0.0,0.0,0.0,0.0,0.0,0.0,4.4695,4.4904,4.6121,0.0,0.0,0.0,0.0,0.0,4.8187,4.8187,4.8187,4.8187,4.8187,4.8291,4.8605,4.9128,0.0,0.0,0.0,5.1309,5.1544,5.1858,5.238,5.3269,5.387,5.4419,5.502,5.536,5.5422,5.5125,5.5857,5.651,5.6754,5.7338,5.7913,5.8453,5.8505,5.8185,5.7433,5.7397,5.7037,5.6237,5.62,5.62,5.62,5.62,5.62,5.62,5.62,5.62,5.62,5.62,5.62,5.62,5.62,5.62,5.62,5.62,5.62,5.62,5.62,5.62,5.62,5.62,5.62,5.62,0.0,0.0,0.0,0.0,0.0,0.0,0.0,0.0,0.0,0.0,0.0,0.0,0.0,0.0,0.0,0.0,0.0,0.0,0.0,0.0,4.4695,4.4695,4.4695,4.4695,4.4695,4.4695,4.4695,4.4695,4.4695,4.4695,4.4695,4.4695,4.4695,4.4695,4.4695,4.4695,4.4695,4.4695,4.4695,4.4695,0.0,0.0,0.0,0.0,0.0,0.0,0.0,0.0,0.0,0.0,0.0,0.0,0.0,0.0,0.0,4.7899,4.8291,4.837,4.8239,4.8291,4.8396,4.8396,4.8396,4.8527,4.8997,4.9625,0.0,0.0,0.0,0.0,5.1596,5.2197,5.3034,5.4053,5.4314,5.4576,5.5046,5.5465,5.5569,5.5151,5.6118,5.6798,5.6798,5.7468,5.807,5.8453,5.8505,5.8185,5.7433,5.7397,5.7037,5.6237,5.62,5.62,5.62,5.62,5.62,5.62,5.62,5.62,5.62,5.62,5.62,5.62,5.62,5.62,5.62,5.62,5.62,5.62,5.62,5.62,5.62,5.62,5.62,5.62,0.0,0.0,0.0,0.0,0.0,0.0,0.0,0.0,0.0,0.0,0.0,0.0,0.0,0.0,0.0,0.0,0.0,0.0,0.0,0.0,4.4695,4.4695,4.4695,4.4695,4.4695,4.4695,4.4695,4.4695,4.4695,4.4695,4.4695,4.4695,4.4695,4.4695,4.4695,4.4695,4.4695,4.4695,4.4695,4.4695,4.4695,0.0,0.0,0.0,0.0,0.0,0.0,0.0,0.0,0.0,0.0,0.0,0.0,0.0,4.7359,4.8015,4.8605,4.8919,4.8344,4.8605,4.9049,4.9049,4.9049,0.0,4.9102,4.9965,0.0,5.0801,0.0,0.0,0.0,5.2537,5.353,5.4105,5.468,5.5046,5.5099,5.5125,5.5151,5.5099,5.6118,5.6798,5.6798,5.7817,5.8453,5.8505,5.8505,5.8185,5.7433,5.7397,5.7037,5.6237,5.62,5.62,5.62,5.62,5.62,5.62,5.62,5.62,5.62,5.62,5.62,5.62,5.62,5.62,5.62,5.62,5.62,5.62,5.62,5.62,5.62,5.62,5.62,5.62,0.0,0.0,0.0,0.0,0.0,0.0,0.0,0.0,0.0,0.0,0.0,0.0,0.0,0.0,0.0,0.0,0.0,0.0,0.0,4.4695,4.4695,4.4695,4.4695,4.4695,4.4695,4.4695,4.4695,4.4695,4.4695,4.4695,4.4695,4.4695,4.4695,4.4695,4.4695,4.4695,4.4695,4.4695,4.4695,4.4695,4.4695,4.4695,0.0,0.0,0.0,0.0,0.0,0.0,0.0,0.0,4.54,4.5766,4.6694,4.7124,4.749,4.846,4.8657,4.8579,4.871,4.8919,4.9102,4.9102,4.9625,0.0,0.0,5.0487,5.089,5.1246,5.1465,0.0,0.0,5.3347,5.4079,5.468,5.4942,5.5099,5.5099,5.5099,5.5229,5.5569,5.6327,5.6954,5.7312,5.8052,5.8505,5.8505,5.8505,5.8185,5.7433,5.7397,5.7037,5.6237,5.62,5.62,5.62,5.62,5.62,5.62,5.62,5.62,5.62,5.62,5.62,5.62,5.62,5.62,5.62,5.62,5.62,5.62,5.62,5.62,5.62,5.62,5.62,5.62,0.0,0.0,0.0,0.0,0.0,0.0,0.0,0.0,0.0,0.0,0.0,0.0,0.0,0.0,0.0,0.0,0.0,0.0,4.4695,4.4695,4.4695,4.4695,4.4695,4.4695,4.4695,4.4695,4.4695,4.4695,4.4695,4.4695,4.4695,4.4695,4.4695,4.4695,4.4695,4.4695,4.4695,4.4695,4.4695,4.4695,4.4695,4.4695,0.0,0.0,0.0,0.0,0.0,0.0,0.0,0.0,4.5844,4.6262,4.7058,4.7568,4.8001,4.8631,4.8788,4.8736,4.8788,4.9076,4.9363,4.9363,0.0,0.0,5.0995,5.1063,5.1167,5.1518,5.1753,0.0,5.3426,0.0,0.0,5.4994,5.5099,5.5099,5.5099,5.5099,5.5308,5.5857,5.6415,5.7033,5.7643,5.8183,5.8505,5.8505,5.8505,5.8185,5.7433,5.7397,5.7037,5.6237,5.62,5.62,5.62,5.62,5.62,5.62,5.62,5.62,5.62,5.62,5.62,5.62,5.62,5.62,5.62,5.62,5.62,5.62,5.62,5.62,5.62,5.62,5.62,5.62,0.0,0.0,0.0,0.0,0.0,0.0,0.0,0.0,0.0,0.0,0.0,0.0,0.0,0.0,0.0,0.0,0.0,0.0,4.4695,4.4695,4.4695,4.4695,4.4695,4.4695,4.4695,4.4695,4.4695,4.4695,4.4695,4.4695,4.4695,4.4695,4.4695,4.4695,4.4695,4.4695,4.4695,4.4695,4.4695,4.4695,4.4695,4.4695,4.4695,0.0,0.0,0.0,0.0,0.0,0.0,0.0,4.6367,4.7307,4.7307,4.8131,4.8971,4.8396,4.8997,4.9651,4.8527,4.9049,4.9912,4.9912,0.0,0.0,5.1465,5.1596,5.1596,5.1596,5.2093,5.2851,5.4001,5.421,0.0,5.4994,5.5099,5.5099,5.5099,5.5099,5.5308,5.584,5.6458,5.7033,5.7643,5.8183,5.8505,5.8505,5.8505,5.8185,5.7433,5.7397,5.7037,5.6237,5.62,5.62,5.62,5.62,5.62,5.62,5.62,5.62,5.62,5.62,5.62,5.62,5.62,5.62,5.62,5.62,5.62,5.62,5.62,5.62,5.62,5.62,5.62,5.62,0.0,0.0,0.0,0.0,0.0,0.0,0.0,0.0,0.0,0.0,0.0,0.0,0.0,0.0,0.0,0.0,0.0,0.0,4.4695,4.4695,4.4695,4.4695,4.4695,4.4695,4.4695,4.4695,4.4695,4.4695,4.4695,4.4695,4.4695,4.4695,4.4695,4.4695,4.4695,4.4695,4.4695,4.4695,4.4695,4.4695,4.4695,4.4695,4.4695,0.0,0.0,0.0,0.0,0.0,0.0,0.0,0.0,0.0,4.8303,4.8527,4.8579,4.9206,4.9076,4.8814,4.9285,4.9651,5.0017,5.0435,5.0958,5.1387,0.0,5.1596,0.0,0.0,5.3008,5.3792,5.4131,5.455,0.0,5.5072,5.5099,5.5099,5.5099,5.5422,5.5883,5.6467,5.7076,5.7651,5.8209,5.8418,5.8505,5.8505,5.8505,5.8185,5.7433,5.7397,5.7037,5.6237,5.62,5.62,5.62,5.62,5.62,5.62,5.62,5.62,5.62,5.62,5.62,5.62,5.62,5.62,5.62,5.62,5.62,5.62,5.62,5.62,5.62,5.62,5.62,5.62,0.0,0.0,0.0,0.0,0.0,0.0,0.0,0.0,0.0,0.0,4.4695,4.4695,0.0,0.0,0.0,0.0,0.0,0.0,0.0,4.4695,4.4695,4.4695,4.4695,4.4695,4.4695,4.4695,4.4695,4.4695,4.4695,4.4695,4.4695,4.4695,4.4695,4.4695,4.4695,4.4695,4.4695,4.4695,4.4695,4.4695,4.4695,4.4852,4.506,0.0,0.0,0.0,0.0,0.0,0.0,0.0,0.0,0.0,4.8527,4.8657,4.8657,4.9102,4.9049,4.8971,4.9468,4.9912,5.0357,5.0723,5.1204,5.1648,5.191,5.1962,0.0,0.0,5.3583,5.4262,5.4524,5.4863,5.5099,5.5099,5.5099,5.5099,5.5099,5.5569,5.6101,5.6745,5.7338,5.7904,5.8444,5.8505,5.8505,5.8505,5.8505,5.8185,5.7433,5.7397,5.7037,5.6237,5.62,5.62,5.62,5.62,5.62,5.62,5.62,5.62,5.62,5.62,5.62,5.62,5.62,5.62,5.62,5.62,5.62,5.62,5.62,5.62,5.62,5.62,5.62,5.62,0.0,0.0,4.4695,4.4695,0.0,0.0,0.0,0.0,0.0,0.0,4.4695,4.4695,0.0,0.0,0.0,0.0,0.0,0.0,0.0,4.4695,4.4695,4.4695,4.4695,4.4695,4.4695,4.4695,4.4695,4.4695,4.4695,4.4695,4.4695,4.4695,4.4695,4.4695,4.4695,4.4695,4.4695,4.4773,4.4773,4.4799,4.4825,4.5191,4.5687,4.5687,0.0,0.0,0.0,0.0,0.0,0.0,0.0,0.0,4.8265,4.8631,4.8919,4.85,4.9049,4.9755,4.9363,5.0017,5.0827,5.088,5.1246,5.1753,5.2354,5.2537,5.2746,5.3347,5.3896,5.4445,5.4994,5.5099,5.5099,5.5099,5.5099,5.5099,5.5099,5.5621,5.6196,5.6728,5.739,5.7965,5.8453,5.8505,5.8505,5.8505,5.8469,5.8149,5.7433,5.7361,5.7,5.6237,5.62,5.62,5.62,5.62,5.62,5.62,5.62,5.62,5.62,5.62,5.62,5.62,5.62,5.62,5.62,5.62,5.62,5.62,5.62,5.62,5.62,5.62,5.62,5.62,0.0,0.0,4.4695,4.4695,0.0,0.0,0.0,0.0,0.0,0.0,0.0,0.0,0.0,0.0,0.0,0.0,0.0,0.0,0.0,4.4695,4.4695,4.4695,4.4695,4.4695,4.4695,4.4695,4.4695,4.4695,4.4695,4.4695,4.4695,4.4695,4.4695,4.4695,4.4695,4.4695,4.4721,4.5217,4.54,4.5452,4.5924,4.62,4.6304,4.6304,4.6656,0.0,0.0,0.0,0.0,0.0,0.0,0.0,4.8762,4.8657,4.8553,4.9311,4.9416,4.9442,5.0211,5.0618,5.0906,5.1309,5.1518,5.1753,5.2354,5.2877,5.3347,5.3922,5.4497,5.4942,5.5072,5.5099,5.5099,5.5099,5.5099,5.5099,5.5099,5.5987,5.665,5.678,5.7695,5.8366,5.8479,5.8505,5.8505,5.8505,5.8195,5.7838,5.7415,5.7091,5.671,5.6219,5.62,5.62,5.62,5.62,5.62,5.62,5.62,5.62,5.62,5.62,5.62,5.62,5.62,5.62,5.62,5.62,5.62,5.62,5.62,5.62,5.62,5.62,5.62,5.62,0.0,0.0,0.0,0.0,0.0,0.0,0.0,0.0,0.0,0.0,0.0,0.0,0.0,0.0,0.0,0.0,0.0,0.0,0.0,0.0,4.4695,4.4695,4.4695,4.4695,4.4695,4.4695,4.4695,4.4695,4.4695,4.4695,4.4695,4.4695,4.4695,4.4721,4.5008,4.5139,4.5165,4.578,4.6029,4.6055,4.6356,4.6644,4.6877,4.6877,4.7243,4.7713,4.7713,0.0,0.0,0.0,0.0,0.0,0.0,0.0,4.8736,4.9337,4.9703,5.0043,5.0644,5.0984,5.1256,5.1518,5.1805,5.2171,5.2798,5.3373,5.3949,5.4524,5.4889,5.5099,5.5099,5.5099,5.5099,5.5099,5.5099,5.5203,5.5465,5.6232,5.6902,5.7207,5.7974,5.8505,5.8505,5.8505,5.8505,5.8505,5.8124,5.7749,5.7415,5.7019,5.662,5.6219,5.62,5.62,5.62,5.62,5.62,5.62,5.62,5.62,5.62,5.62,5.62,5.62,5.62,5.62,5.62,5.62,5.62,5.62,5.62,5.62,5.62,5.62,5.62,5.62,0.0,0.0,0.0,0.0,0.0,0.0,0.0,0.0,0.0,0.0,0.0,0.0,0.0,0.0,0.0,0.0,0.0,0.0,0.0,0.0,0.0,4.4695,4.4695,4.4695,4.4695,4.4799,4.4852,4.4852,4.4956,4.5008,0.0,4.4904,4.4904,4.5048,4.5531,4.5754,4.5792,4.6395,4.6644,4.6644,4.6749,4.7048,4.7464,4.7464,4.7766,4.8187,4.8187,4.8187,4.8187,4.8187,0.0,0.0,0.0,0.0,4.9259,4.9363,5.0069,5.0827,5.0917,5.1256,5.1622,5.1727,5.2119,5.2668,5.3373,5.387,5.4367,5.4968,5.5099,5.5099,5.5099,5.5099,5.5099,5.5099,5.5099,5.5282,5.5814,5.6415,5.7007,5.7617,5.8157,5.8505,5.8505,5.8505,5.8487,5.839,5.8017,5.7659,5.7307,5.691,5.6547,5.6219,5.62,5.62,5.62,5.62,5.62,5.62,5.62,5.62,5.62,5.62,5.62,5.62,5.62,5.62,5.62,5.62,5.62,5.62,5.62,5.62,5.62,5.62,5.62,5.62,0.0,0.0,0.0,0.0,0.0,0.0,0.0,0.0,0.0,0.0,4.4695,4.4695,0.0,4.4695,4.4695,4.4695,4.4695,4.4695,4.4695,0.0,0.0,4.4695,4.4695,4.4695,4.4695,4.5217,4.5478,4.5478,4.6003,0.0,0.0,0.0,0.0,4.6252,4.633,4.6383,4.6409,4.6955,4.7202,4.7229,4.7754,4.803,4.8082,4.8082,4.8134,4.8187,4.8187,4.8187,4.8187,4.8187,4.8553,0.0,0.0,0.0,4.9912,5.0435,5.0697,5.0906,5.1361,5.1544,5.1727,5.225,5.2433,5.2772,5.3844,5.4158,5.4367,5.4968,5.5099,5.5099,5.5099,5.5099,5.5099,5.5099,5.5099,5.5282,5.5814,5.6415,5.7007,5.7617,5.8157,5.8505,5.8505,5.8505,5.8363,5.7999,5.7667,5.7289,5.6892,5.651,5.6273,5.62,5.62,5.62,5.62,5.62,5.62,5.62,5.62,5.62,5.62,5.62,5.62,5.62,5.62,5.62,5.62,5.62,5.62,5.62,5.62,5.62,5.62,5.62,5.62,5.62,0.0,0.0,0.0,0.0,0.0,0.0,0.0,0.0,0.0,0.0,0.0,4.4695,4.4695,4.4695,4.4695,4.4695,4.4695,4.4695,4.4695,4.4695,4.4695,4.4695,4.5034,4.5191,4.5191,4.582,4.6107,4.6107,0.0,0.0,0.0,4.668,4.6537,0.0,0.0,0.0,4.6996,4.7556,4.7806,4.7832,4.8082,4.8187,4.8187,4.8187,0.0,0.0,0.0,0.0,0.0,0.0,0.0,4.9546,4.9546,0.0,0.0,0.0,5.0995,5.1282,5.1544,5.1596,5.1727,5.2354,5.2746,5.3217,5.4027,5.4471,5.4785,5.5046,5.5099,5.5203,5.5491,5.5308,5.5203,5.5517,5.5308,5.5412,5.6275,5.6641,5.7137,5.8044,5.8366,5.8505,5.8505,5.8505,5.8319,5.7927,5.7595,5.7217,5.6819,5.6419,5.62,5.62,5.62,5.62,5.62,5.62,5.62,5.62,5.62,5.62,5.62,5.62,5.62,5.62,5.62,5.62,5.62,5.62,5.62,5.62,5.62,5.62,5.62,5.62,5.62,5.62,0.0,0.0,0.0,0.0,0.0,0.0,0.0,0.0,0.0,0.0,0.0,4.4695,4.4695,0.0,0.0,0.0,4.4695,4.4773,4.493,4.493,4.4982,4.5153,4.5597,4.5832,4.5832,4.6395,4.6696,4.6696,0.0,0.0,4.753,4.753,4.7336,0.0,4.7347,0.0,0.0,0.0,0.0,0.0,4.8187,4.8291,4.8422,0.0,0.0,0.0,0.0,0.0,0.0,0.0,0.0,0.0,0.0,5.054,0.0,0.0,0.0,5.1596,5.1596,5.1701,5.1962,5.2589,5.3164,5.3739,5.4314,5.4785,5.5099,5.5099,5.5203,5.5465,5.604,5.5569,5.5282,5.583,5.5465,5.5491,5.6641,5.6798,5.7225,5.8348,5.8505,5.8505,5.8505,5.8505,5.831,5.7802,5.7541,5.7181,5.6674,5.6365,5.62,5.62,5.62,5.62,5.62,5.62,5.62,5.62,5.62,5.62,5.62,5.62,5.62,5.62,5.62,5.62,5.62,5.62,5.62,5.62,5.62,5.62,5.62,5.62,5.62,5.62,0.0,0.0,0.0,0.0,0.0,0.0,0.0,0.0,0.0,0.0,0.0,4.4695,4.4695,4.4695,4.4695,4.4695,4.4695,4.493,4.5531,4.5557,4.5806,4.6383,4.6449,0.0,4.6435,4.6982,4.7255,0.0,0.0,0.0,4.8161,4.8161,4.8134,4.8108,4.8134,4.8161,4.8161,0.0,0.0,0.0,0.0,0.0,0.0,0.0,0.0,0.0,0.0,0.0,0.0,0.0,0.0,0.0,0.0,0.0,0.0,0.0,0.0,0.0,5.1596,5.2014,5.2589,5.3191,5.3766,5.4314,5.4916,5.5072,5.5099,5.5099,5.55,5.6023,5.6624,5.5857,5.5282,5.583,5.5465,5.5491,5.6641,5.6798,5.7225,5.8348,5.8505,5.8505,5.8505,5.8505,5.8203,5.7487,5.7397,5.7055,5.6273,5.6219,5.62,5.62,5.62,5.62,5.62,5.62,5.62,5.62,5.62,5.62,5.62,5.62,5.62,5.62,5.62,5.62,5.62,5.62,5.62,5.62,5.62,5.62,5.62,5.62,5.62,5.62,0.0,0.0,0.0,0.0,0.0,0.0,0.0,0.0,0.0,0.0,0.0,0.0,0.0,4.4695,4.4695,4.4695,4.506,4.5531,4.6133,4.6186,4.6278,4.6487,4.6839,4.7008,4.7008,4.7583,0.0,0.0,0.0,4.8187,4.8187,4.8187,4.8396,4.8762,4.837,4.8422,4.8788,4.8788,0.0,0.0,0.0,0.0,0.0,0.0,0.0,0.0,0.0,0.0,0.0,0.0,0.0,0.0,0.0,0.0,0.0,0.0,5.1596,5.1596,5.1596,5.204,5.2642,5.3243,5.3792,5.4367,5.4968,5.5099,5.5099,5.5099,5.5543,5.6092,5.6676,5.6153,5.5787,5.6362,5.57,5.5491,5.6641,5.6798,5.7225,5.8348,5.8505,5.8505,5.8505,5.8505,5.8203,5.7451,5.7397,5.7055,5.6255,5.62,5.62,5.62,5.62,5.62,5.62,5.62,5.62,5.62,5.62,5.62,5.62,5.62,5.62,5.62,5.62,5.62,5.62,5.62,5.62,5.62,5.62,5.62,5.62,5.62,5.62,5.62,0.0,0.0,0.0,0.0,0.0,4.4695,0.0,0.0,0.0,0.0,0.0,0.0,0.0,0.0,4.5087,4.5283,4.5675,4.6145,4.6734,4.6761,4.6865,4.7062,4.7414,4.7609,4.7609,4.7989,0.0,0.0,0.0,0.0,0.0,4.8396,4.871,4.9102,4.8866,4.8997,0.0,0.0,0.0,4.9912,0.0,0.0,5.0185,0.0,0.0,0.0,0.0,0.0,0.0,0.0,0.0,0.0,0.0,0.0,0.0,0.0,0.0,0.0,5.1831,5.2328,5.2929,5.353,5.4079,5.4602,5.502,5.5099,5.5151,5.5334,5.583,5.6379,5.6981,5.6615,5.631,5.6728,5.5857,5.5491,5.6641,5.6798,5.7225,5.8348,5.8505,5.8505,5.8505,5.8505,5.8203,5.7451,5.7397,5.7055,5.6255,5.62,5.62,5.62,5.62,5.62,5.62,5.62,5.62,5.62,5.62,5.62,5.62,5.62,5.62,5.62,5.62,5.62,5.62,5.62,5.62,5.62,5.62,5.62,5.62,5.62,5.62,5.62,0.0,4.4695,4.4695,4.4695,4.4695,4.4695,4.4695,0.0,0.0,0.0,0.0,0.0,0.0,0.0,0.0,4.6461,4.6513,4.6734,4.7281,4.7333,4.7583,4.8161,4.8187,4.8187,4.8187,0.0,0.0,0.0,0.0,0.0,0.0,0.0,4.9128,4.918,4.9703,4.9938,4.9965,0.0,4.9938,4.9949,0.0,5.0289,5.0812,0.0,0.0,0.0,5.1596,5.1596,0.0,0.0,0.0,0.0,0.0,0.0,0.0,0.0,0.0,0.0,0.0,0.0,0.0,5.4079,5.4654,5.5099,5.5099,5.5099,5.5255,5.5787,5.6379,5.6981,5.759,5.7207,5.6798,5.6798,5.5857,5.5491,5.6641,5.6798,5.7225,5.8348,5.8505,5.8505,5.8505,5.8505,5.8203,5.7451,5.7397,5.7055,5.6255,5.62,5.62,5.62,5.62,5.62,5.62,5.62,5.62,5.62,5.62,5.62,5.62,5.62,5.62,5.62,5.62,5.62,5.62,5.62,5.62,5.62,5.62,5.62,5.62,5.62,5.62,5.62,4.4695,4.4695,4.4695,4.4695,4.4695,4.4695,4.4695,0.0,0.0,0.0,0.0,0.0,0.0,4.6252,4.6473,4.7034,4.7086,4.7321,4.7911,4.7937,4.8015,4.8187,4.8187,4.8187,4.8187,0.0,0.0,0.0,0.0,4.884,4.8866,4.9416,0.0,0.0,5.0472,5.0775,5.11,5.0723,0.0,0.0,5.1141,5.123,0.0,0.0,0.0,0.0,0.0,5.1596,0.0,0.0,5.1596,5.1596,0.0,0.0,0.0,0.0,0.0,0.0,5.2981,0.0,0.0,0.0,0.0,0.0,5.5099,5.5099,5.5255,5.5787,5.6379,5.6981,5.759,5.7207,5.6798,5.6798,5.5857,5.5491,5.6641,5.6798,5.7225,5.8348,5.8505,5.8505,5.8505,5.8505,5.8203,5.7451,5.7397,5.7055,5.6255,5.62,5.62,5.62,5.62,5.62,5.62,5.62,5.62,5.62,5.62,5.62,5.62,5.62,5.62,5.62,5.62,5.62,5.62,5.62,5.62,5.62,5.62,5.62,5.62,5.62,5.62,5.62,4.4695,4.4695,4.4773,4.5034,4.5087,4.5165,0.0,0.0,0.0,0.0,0.0,0.0,4.6813,4.7062,4.735,4.7635,4.7687,4.7832,4.8187,4.8187,4.8187,4.8187,4.8187,4.8187,4.8187,0.0,0.0,0.0,0.0,0.0,0.0,0.0,0.0,0.0,5.1021,5.1309,0.0,0.0,0.0,0.0,5.1596,0.0,0.0,5.1596,5.1596,0.0,0.0,0.0,5.1596,5.1596,5.1779,0.0,0.0,0.0,0.0,0.0,0.0,0.0,0.0,0.0,0.0,0.0,0.0,0.0,5.5099,5.5099,5.5334,5.6101,5.6562,5.7059,5.7887,5.7346,5.6798,5.6798,5.5857,5.5491,5.6641,5.6798,5.7225,5.8348,5.8505,5.8505,5.8505,5.8505,5.8307,5.7767,5.7738,5.7393,5.6563,5.6326,5.62,5.62,5.62,5.62,5.62,5.62,5.62,5.62,5.62,5.62,5.62,5.62,5.62,5.62,5.62,5.62,5.62,5.62,5.62,5.62,5.62,5.6326,5.6502,5.6276,5.652,5.6872,0.0,4.4799,4.4982,4.5583,4.5687,4.5884,0.0,0.0,0.0,0.0,4.6644,4.6879,4.7347,4.7885,4.8187,4.8187,4.8187,4.8187,4.8187,4.8187,4.8187,4.8187,0.0,0.0,0.0,0.0,0.0,0.0,0.0,0.0,0.0,0.0,0.0,0.0,5.1387,5.1596,0.0,0.0,0.0,5.1596,5.1596,5.1596,0.0,0.0,5.1596,0.0,5.1596,5.1596,5.1596,5.1675,5.2093,0.0,0.0,0.0,0.0,0.0,5.3478,0.0,0.0,0.0,0.0,0.0,0.0,0.0,5.5099,5.5151,5.5491,5.6588,5.685,5.7242,5.8296,5.7634,5.6876,5.6824,5.5892,5.5569,5.6667,5.6798,5.7225,5.8348,5.8505,5.8505,5.8505,5.8469,5.8365,5.821,5.8115,5.7767,5.7047,5.6502,5.62,5.62,5.62,5.62,5.62,5.62,5.62,5.62,5.62,5.62,5.62,5.62,5.62,5.62,5.62,5.6226,5.6276,5.6276,5.6276,5.6276,5.6276,5.6627,5.7035,5.6552,5.7047,5.7826,4.5322,4.5426,4.5609,4.6212,4.633,0.0,0.0,0.0,0.0,0.0,4.7571,4.7899,4.8015,4.8134,4.8187,4.8187,4.8187,4.8187,4.8187,4.8187,4.8187,0.0,0.0,0.0,0.0,0.0,0.0,0.0,0.0,0.0,0.0,0.0,0.0,0.0,5.1544,5.1596,0.0,0.0,0.0,5.1596,5.1596,0.0,5.1596,5.1596,5.1596,5.1596,5.1596,5.1596,5.1675,0.0,5.272,5.3217,0.0,0.0,0.0,0.0,0.0,0.0,0.0,0.0,0.0,0.0,0.0,0.0,5.5099,5.5422,5.5944,5.665,5.7207,5.773,5.8392,5.7965,5.7364,5.6876,5.6223,5.5987,5.6702,5.6798,5.7225,5.8348,5.8505,5.8505,5.8505,5.8195,5.8079,5.8192,5.7602,5.7177,5.7004,5.6502,5.62,5.62,5.62,5.62,5.62,5.62,5.62,5.62,5.62,5.62,5.62,5.62,5.62,5.62,5.62,5.6451,5.6835,5.6835,5.6835,5.6835,5.6835,5.7204,5.7725,5.76,5.77,5.7876,4.5478,4.5609,4.587,4.6746,0.0,0.0,0.0,0.0,0.0,4.7739,4.8015,4.8187,4.8187,0.0,0.0,4.8187,4.8187,4.8187,0.0,0.0,0.0,0.0,0.0,0.0,0.0,0.0,0.0,0.0,0.0,0.0,0.0,0.0,0.0,0.0,0.0,0.0,0.0,0.0,5.1596,5.1596,5.1596,0.0,5.1596,5.1596,5.1779,5.204,5.204,5.2223,5.2537,5.2851,5.3321,0.0,0.0,5.4001,5.4314,0.0,5.4654,5.4707,0.0,0.0,0.0,5.5099,0.0,0.0,0.0,5.5726,5.617,5.7076,5.7486,5.7878,5.84,5.7817,5.7155,5.685,5.6066,5.57,5.6275,5.6597,5.7225,5.8348,5.8505,5.8434,5.8212,5.8276,5.8458,5.8734,5.8195,5.7732,5.7455,5.6903,5.6477,5.62,5.62,5.62,5.62,5.62,5.62,5.62,5.62,5.62,5.62,5.62,5.6351,5.6602,5.6602,5.6928,5.7455,5.7455,5.7606,5.7832,5.7556,5.7782,5.8278,5.8001,5.8227,5.8654,4.5832,4.5923,4.6262,4.7281,0.0,0.0,0.0,0.0,4.8187,4.8187,4.8187,4.8187,0.0,0.0,0.0,0.0,0.0,4.8422,0.0,0.0,0.0,0.0,0.0,4.952,0.0,0.0,0.0,0.0,0.0,0.0,0.0,0.0,0.0,0.0,0.0,0.0,0.0,0.0,0.0,5.1779,0.0,5.1779,5.1779,5.1779,5.2145,5.2668,5.2668,5.306,5.3556,5.3556,0.0,5.4367,5.4367,5.4707,0.0,0.0,0.0,0.0,0.0,0.0,0.0,0.0,0.0,5.536,0.0,0.0,0.0,5.7512,5.7773,5.7991,5.84,5.766,5.6928,5.6824,5.5935,5.5412,5.5857,5.6415,5.719,5.8235,5.8444,5.8337,5.7945,5.8412,5.8851,5.9155,5.8876,5.851,5.8077,5.738,5.6784,5.6376,5.6251,5.62,5.62,5.62,5.62,5.62,5.62,5.62,5.62,5.6301,5.6602,5.701,5.7111,5.7506,5.8052,5.8052,5.8378,5.8786,5.8278,5.8378,5.8786,5.8378,5.8755,5.9433,4.705,4.7098,4.7307,4.7989,0.0,0.0,0.0,0.0,4.8187,4.8187,4.8187,0.0,0.0,0.0,0.0,0.0,0.0,0.0,4.9677,0.0,0.0,0.0,0.0,0.0,5.0697,0.0,0.0,0.0,0.0,0.0,0.0,0.0,0.0,0.0,5.1596,0.0,0.0,0.0,5.191,0.0,5.2406,5.2406,0.0,5.2406,5.2772,5.3295,5.3295,5.3635,5.4105,0.0,5.4497,5.4994,0.0,5.5046,0.0,0.0,0.0,0.0,0.0,0.0,0.0,0.0,5.5465,0.0,0.0,0.0,5.7538,5.7669,0.0,5.8444,5.8479,0.0,0.0,5.6902,5.6232,5.583,5.5892,5.6415,5.7033,5.7721,5.8209,5.8337,5.7945,5.8236,5.8534,5.8756,5.8749,5.8685,5.861,5.7606,5.696,5.691,5.6451,5.62,5.62,5.62,5.62,5.62,5.62,5.62,5.62,5.6684,5.6935,5.7035,5.7556,5.8127,5.861,5.861,5.8911,5.9357,5.8811,5.8956,5.9408,5.9332,5.9382,5.9483,4.7612,4.7436,4.749,4.8082,0.0,0.0,0.0,0.0,4.8317,4.8683,4.871,0.0,0.0,0.0,0.0,0.0,0.0,4.9651,0.0,0.0,0.0,0.0,0.0,0.0,0.0,0.0,0.0,0.0,5.1596,0.0,0.0,0.0,0.0,0.0,5.1596,0.0,5.2119,0.0,5.2459,0.0,0.0,0.0,0.0,5.3138,5.3373,5.3896,5.4262,5.4524,5.4733,0.0,5.4889,0.0,0.0,0.0,0.0,0.0,0.0,0.0,0.0,0.0,0.0,0.0,0.0,0.0,0.0,0.0,5.78,0.0,0.0,0.0,0.0,0.0,0.0,0.0,5.5787,5.5438,5.5438,5.5935,5.6641,5.759,5.8157,5.8598,5.8851,5.8597,5.8718,5.9451,5.9316,5.9012,5.871,5.7957,5.7355,5.701,5.6477,5.62,5.62,5.62,5.62,5.62,5.62,5.6351,5.6677,5.6885,5.7361,5.7989,5.8259,5.866,5.9156,5.9156,5.9307,5.9483,5.9257,5.9307,5.9483,5.9483,5.9483,5.9483,4.8456,0.0,0.0,0.0,0.0,0.0,0.0,0.0,0.0,0.0,0.0,0.0,4.986,4.9912,0.0,0.0,0.0,5.0226,0.0,0.0,5.0551,0.0,0.0,0.0,0.0,0.0,0.0,0.0,0.0,0.0,0.0,0.0,0.0,0.0,0.0,5.2171,5.2746,0.0,5.3086,5.3609,5.3609,5.3949,5.4419,5.4001,5.4105,5.4497,5.4942,5.5099,5.5099,5.5099,5.5099,0.0,5.5099,0.0,0.0,0.0,0.0,0.0,5.5569,0.0,0.0,0.0,0.0,0.0,0.0,0.0,0.0,0.0,0.0,0.0,0.0,0.0,0.0,0.0,0.0,5.5099,5.5099,5.5569,5.6275,5.7312,5.799,5.8681,5.9525,5.8878,5.8876,6.0004,5.974,5.9332,5.8936,5.8278,5.77,5.7255,5.6577,5.62,5.62,5.62,5.62,5.62,5.6351,5.6627,5.701,5.7311,5.7932,5.871,5.8861,5.9137,5.9483,5.9483,5.9483,5.9483,5.9483,5.9483,5.9483,5.9483,5.9483,5.9483,5.0009,4.9442,0.0,0.0,0.0,0.0,0.0,0.0,0.0,0.0,0.0,0.0,0.0,0.0,0.0,0.0,0.0,5.0995,5.1518,0.0,5.1544,0.0,0.0,0.0,0.0,0.0,0.0,0.0,0.0,0.0,0.0,0.0,0.0,0.0,0.0,5.2798,5.3373,5.3373,5.3687,5.4184,5.4184,5.4524,5.5072,0.0,5.5072,5.5072,5.5099,0.0,0.0,5.5099,5.5099,0.0,0.0,0.0,0.0,0.0,0.0,0.0,0.0,0.0,0.0,5.5151,0.0,0.0,0.0,0.0,5.685,0.0,0.0,0.0,0.0,0.0,0.0,0.0,0.0,0.0,0.0,5.5569,5.6127,5.6754,5.7466,5.8349,5.9488,5.8878,5.8876,6.0004,5.974,5.9483,5.9483,5.8478,5.7901,5.7876,5.6778,5.62,5.62,5.62,5.62,5.62,5.6728,5.6985,5.7035,5.8158,5.866,5.8736,5.9257,5.9483,5.9483,5.9483,5.9483,5.9483,5.9483,5.9483,5.9483,5.9483,5.9483,5.9483,0.0,0.0,0.0,0.0,0.0,0.0,0.0,4.9973,0.0,0.0,0.0,0.0,0.0,0.0,5.1357,0.0,0.0,5.1429,5.1596,5.1596,0.0,0.0,0.0,5.1596,0.0,0.0,0.0,0.0,0.0,0.0,0.0,0.0,0.0,0.0,0.0,5.34,0.0,0.0,0.0,0.0,0.0,5.4916,5.5099,0.0,5.5099,5.5099,5.5099,5.5099,0.0,5.5099,5.5099,5.5099,5.5099,5.5099,5.5099,5.5099,5.5099,0.0,0.0,0.0,5.5726,5.6144,0.0,0.0,0.0,0.0,0.0,0.0,0.0,0.0,0.0,0.0,0.0,0.0,0.0,0.0,0.0,5.6736,5.7172,5.7364,5.7625,5.8215,5.9361,5.9061,5.9136,5.9914,5.9666,5.9483,5.9483,5.8478,5.7901,5.7901,5.6778,5.62,5.62,5.62,5.6376,5.6728,5.691,5.7405,5.8158,5.8535,5.8886,5.9257,5.9408,5.9483,5.9483,5.9483,5.9483,5.9483,5.9483,5.9483,5.9483,5.9483,5.9483,5.9483,5.1019,0.0,0.0,0.0,0.0,0.0,0.0,0.0,0.0,0.0,5.1949,0.0,5.2253,0.0,5.2198,0.0,5.1846,5.1768,5.1768,5.1659,0.0,5.1596,5.1805,0.0,0.0,0.0,0.0,0.0,0.0,5.2825,0.0,0.0,0.0,0.0,0.0,5.4001,5.4524,5.4524,5.4733,0.0,0.0,5.5099,0.0,0.0,5.5099,5.5099,0.0,5.5099,5.5099,5.5099,5.5229,5.5386,5.5386,5.5543,5.5683,5.5683,5.5683,5.5778,5.6144,5.6205,0.0,5.6702,5.7085,0.0,5.7364,0.0,0.0,0.0,0.0,0.0,0.0,0.0,0.0,0.0,0.0,0.0,0.0,5.7129,5.746,5.7669,5.7878,5.8375,5.9317,5.9153,5.9264,5.984,5.9642,5.9408,5.9232,5.8378,5.7801,5.76,5.6677,5.62,5.62,5.6401,5.6652,5.701,5.7412,5.8008,5.871,5.8886,5.9182,5.9483,5.9483,5.9483,5.9483,5.9483,5.9483,5.9483,5.9483,5.9483,5.9483,5.9483,5.9483,5.9483,5.1515,0.0,0.0,0.0,5.2653,0.0,0.0,0.0,5.226,0.0,5.2634,5.2634,5.2619,5.2619,5.2604,5.2588,5.2333,0.0,5.2131,5.1862,0.0,0.0,5.2223,5.2537,5.2537,0.0,0.0,0.0,0.0,0.0,0.0,0.0,0.0,0.0,5.4236,0.0,5.5099,5.5099,5.5099,5.5099,5.5125,5.5151,5.5151,5.5177,5.5177,5.5177,5.5151,5.5177,5.5177,5.5177,5.55,5.5944,5.5944,5.6336,5.6798,5.6798,5.6798,5.6798,5.6798,5.6798,5.6798,5.6798,5.6824,0.0,0.0,0.0,5.6859,0.0,0.0,0.0,0.0,0.0,0.0,0.0,0.0,0.0,0.0,0.0,5.7085,5.7669,5.8183,5.8732,5.9317,5.9134,5.9239,5.9814,5.9642,5.9282,5.8736,5.8202,5.7606,5.701,5.6477,5.62,5.6226,5.6753,5.7035,5.7085,5.8183,5.871,5.8761,5.9282,5.9483,5.9483,5.9483,5.9483,5.9483,5.9483,5.9483,5.9483,5.9483,5.9483,5.9483,5.9483,5.9483,5.9483,5.2279,5.2848,5.3209,0.0,5.2784,5.2504,0.0,0.0,0.0,0.0,5.3182,5.3243,5.2983,5.2968,5.2876,5.2619,5.2704,0.0,0.0,0.0,0.0,5.2929,5.3086,5.3164,5.3164,5.3321,0.0,5.34,0.0,0.0,5.4001,0.0,0.0,0.0,0.0,0.0,5.5099,5.5099,5.5099,5.5125,5.5526,5.5683,5.5752,0.0,5.6379,5.6284,5.5857,5.597,5.6379,5.6379,5.6458,5.6588,5.6588,5.6693,5.6798,5.6798,5.6798,5.6798,5.6798,5.6798,5.6798,5.6798,5.7155,5.7486,0.0,0.0,0.0,0.0,0.0,0.0,0.0,0.0,0.0,0.0,0.0,0.0,0.0,0.0,0.0,5.8287,5.84,5.8557,5.8732,5.8902,5.9066,5.922,5.9395,5.9282,5.8736,5.8202,5.7606,5.701,5.6477,5.6401,5.6784,5.6935,5.7412,5.8284,5.856,5.8911,5.9307,5.9433,5.9483,5.9483,5.9483,5.9483,5.9483,5.9483,5.9483,5.9483,5.9483,5.9483,5.9483,5.9483,5.9483,5.9483,5.2627,0.0,0.0,5.3531,0.0,0.0,5.2891,0.0,0.0,5.3516,5.3845,0.0,5.3941,5.3922,5.3893,5.3827,5.3822,0.0,0.0,0.0,0.0,5.3416,5.3609,5.3739,5.3739,5.4001,0.0,5.4131,0.0,0.0,5.4602,0.0,0.0,0.0,0.0,5.5099,5.5125,5.536,5.5595,5.5883,5.617,5.6284,0.0,5.6676,5.6954,5.7155,5.6815,5.6719,5.6798,5.6798,5.6981,5.7207,5.7207,5.7346,5.7538,5.7538,5.7538,5.7538,5.7538,5.7538,5.7538,5.7538,5.7791,5.8044,5.8044,5.8287,5.8505,0.0,0.0,0.0,0.0,0.0,0.0,0.0,0.0,0.0,0.0,0.0,0.0,0.0,5.8505,5.8505,5.8505,5.8963,5.9267,5.9267,5.9526,5.9364,5.8662,5.8088,5.7441,5.6677,5.6577,5.6684,5.6985,5.7487,5.8083,5.871,5.8936,5.9207,5.9483,5.9483,5.9483,5.9483,5.9483,5.9483,5.9483,5.9483,5.9483,5.9483,5.9483,5.9483,5.9483,5.9483,5.9483,5.9483,0.0,0.0,0.0,0.0,0.0,0.0,0.0,5.3861,0.0,5.4364,0.0,5.5037,5.5227,5.5206,5.5257,5.5461,0.0,5.4861,5.4538,5.4266,5.3981,5.3625,5.4079,5.4314,5.4314,5.4837,0.0,0.0,0.0,0.0,0.0,0.0,0.0,0.0,0.0,0.0,0.0,5.583,5.631,5.6824,5.6902,5.6928,5.6928,5.7007,5.7364,5.78,5.78,5.7468,5.7016,5.7016,5.7373,5.78,5.78,5.8122,5.8505,5.8505,5.8505,5.8505,5.8505,5.8505,5.8505,5.8505,5.8505,5.8505,5.8505,5.8505,5.8505,5.8505,5.8505,5.8505,0.0,0.0,0.0,0.0,0.0,0.0,0.0,0.0,0.0,0.0,0.0,0.0,5.8505,5.9084,5.9488,5.9488,5.966,5.9364,5.843,5.7892,5.7208,5.6344,5.6778,5.706,5.7211,5.8208,5.8736,5.8811,5.9282,5.9483,5.9483,5.9483,5.9483,5.9483,5.9483,5.9483,5.9483,5.9483,5.9483,5.9483,5.9483,5.9483,5.9483,5.9483,5.9483,5.9483,0.0,0.0,0.0,0.0,0.0,5.6306,5.6959,5.6414,5.5916,5.5976,5.6527,5.6828,5.6579,5.6332,5.6065,5.5819,5.5713,0.0,0.0,0.0,0.0,5.4828,5.4889,5.4942,5.4942,5.5046,5.5099,0.0,0.0,0.0,0.0,0.0,0.0,0.0,0.0,0.0,5.651,5.6597,0.0,5.685,5.7338,5.7538,5.759,5.8026,5.8287,5.8366,5.8366,5.8296,5.8191,5.8191,5.827,5.8366,5.8366,5.8427,5.8505,5.8505,5.8505,5.8505,5.8505,5.8505,5.8505,5.8505,5.8505,5.8505,5.8505,5.8505,5.8505,5.8505,5.8505,5.8505,5.8505,0.0,0.0,0.0,0.0,0.0,0.0,0.0,0.0,0.0,0.0,5.8505,5.8505,5.8773,5.8945,5.8945,5.9076,5.8765,5.7816,5.7671,5.7367,5.6878,5.6935,5.7437,5.8409,5.861,5.8911,5.9357,5.9458,5.9483,5.9483,5.9483,5.9483,5.9483,5.9483,5.9483,5.9483,5.9483,5.9483,5.9483,5.9483,5.9483,5.9483,5.9483,5.9483,5.9483,0.0,0.0,0.0,0.0,0.0,0.0,0.0,5.9248,5.8958,5.7793,5.808,5.8318,5.8107,5.7939,5.7726,5.7365,5.7149,5.6803,5.6273,5.6184,5.6,5.5621,5.5621,0.0,5.6086,5.6086,5.6245,5.6552,0.0,0.0,0.0,0.0,0.0,5.6379,0.0,5.7273,0.0,0.0,0.0,5.8252,5.8385,5.8421,5.8412,5.8489,5.8505,5.8505,5.8505,5.8505,5.8505,5.8505,5.8505,5.8505,5.8505,5.8505,5.8505,5.8505,5.8505,5.8505,5.8505,5.8505,5.8505,5.8505,5.8505,5.8505,5.8505,5.8505,5.8505,5.8505,5.8505,5.8505,5.8505,5.8505,0.0,0.0,0.0,0.0,0.0,0.0,0.0,0.0,0.0,0.0,0.0,0.0,5.8785,5.9089,5.8968,5.861,5.7943,5.7705,5.7436,5.7004,5.7562,5.8158,5.8685,5.8961,5.9257,5.9483,5.9483,5.9483,5.9483,5.9483,5.9483,5.9483,5.9483,5.9483,5.9483,5.9483,5.9483,5.9483,5.9483,5.9483,5.9483,5.9483,5.9483,5.9483,0.0,5.7271,0.0,0.0,5.9306,0.0,6.0782,6.1813,6.1774,5.9772,5.9845,6.0019,5.9846,5.974,5.9518,5.9055,5.8704,5.8253,5.7654,5.7347,5.706,5.6725,5.6735,5.6956,5.751,5.7537,5.7768,0.0,0.0,0.0,0.0,0.0,0.0,0.0,0.0,0.0,0.0,0.0,5.9464,5.9822,5.9606,5.9519,5.951,5.9227,5.9138,5.9138,5.9138,5.9041,5.8996,5.8996,5.8864,5.8706,5.8706,5.8766,5.8845,5.8845,5.8766,5.8706,5.8706,5.8583,5.8505,5.8505,5.8505,5.8505,5.8505,5.8505,5.8505,5.8505,5.8505,5.8505,5.8505,5.8505,0.0,0.0,0.0,0.0,0.0,0.0,0.0,0.0,0.0,0.0,5.8505,5.8505,5.8706,5.9168,5.8835,5.8507,5.821,5.7815,5.7537,5.738,5.8234,5.8761,5.8861,5.9282,5.9483,5.9483,5.9483,5.9483,5.9483,5.9483,5.9483,5.9483,5.9483,5.9483,5.9483,5.9483,5.9483,5.9483,5.9483,5.9483,5.9483,5.9483,5.9483,5.9483,0.0,0.0,0.0,0.0,0.0,0.0,6.3022,6.3542,6.3333,6.196,6.2279,6.245,6.188,6.157,6.1003,6.0135,5.9691,5.9295,5.8939,5.8898,5.881,5.8714,5.8725,5.8901,5.9248,5.9276,5.9276,0.0,0.0,0.0,0.0,0.0,0.0,0.0,0.0,0.0,0.0,6.0389,6.0554,6.0628,6.0838,6.0914,6.0932,6.106,6.113,6.113,6.113,6.0897,6.0599,6.0599,6.0014,5.9317,5.9317,5.9647,6.0047,6.0047,5.9699,5.9317,5.9317,5.8915,5.8505,5.8505,5.8505,5.8505,5.8505,5.8505,5.8505,5.8505,5.8505,5.8505,5.8505,5.8505,5.8505,0.0,0.0,0.0,0.0,0.0,0.0,0.0,0.0,0.0,0.0,5.8505,5.8505,5.8583,5.8201,5.804,5.8199,5.7822,5.7891,5.8529,5.8635,5.8936,5.9408,5.9458,5.9483,5.9483,5.9483,5.9483,5.9483,5.9483,5.9483,5.9483,5.9483,5.9483,5.9483,5.9483,5.9483,5.9483,5.9483,5.9483,5.9483,5.9483,5.9483,5.9483,0.0,0.0,0.0,0.0,0.0,0.0,0.0,6.526,6.5557,6.5055,6.4546,6.4023,6.3588,6.3771,6.3639,6.2905,6.2344,6.1785,6.1229,6.0813,6.0494,6.0271,6.0466,6.0784,6.1294,6.1505,6.1673,0.0,0.0,0.0,0.0,0.0,0.0,0.0,0.0,6.2188,6.2409,6.3143,6.348,6.3446,6.3355,6.3173,6.2952,6.2822,6.2633,6.2421,6.2421,6.2014,6.1523,6.1523,6.0789,5.9882,5.9882,6.0039,6.0203,6.0203,6.0065,5.9882,5.9882,5.9699,5.9524,5.9524,5.9524,5.9524,5.9524,5.9524,5.9524,5.9524,5.9524,5.9419,5.9116,5.9037,5.8915,5.8557,0.0,0.0,0.0,0.0,0.0,0.0,0.0,0.0,0.0,5.8836,5.9037,5.9037,5.8679,5.8386,5.8225,5.8477,5.8624,5.8704,5.9012,5.9282,5.9483,5.9483,5.9483,5.9483,5.9483,5.9483,5.9483,5.9483,5.9483,5.9483,5.9483,5.9483,5.9483,5.9483,5.9483,5.9483,5.9483,5.9483,5.9483,5.9483,5.9483,5.9483,6.2914,0.0,6.3754,0.0,6.4948,6.5527,6.5782,6.6438,6.6905,6.6905,6.6302,6.5654,6.5108,6.5473,6.5511,6.4934,6.4426,6.397,6.3485,6.3003,6.2665,6.2517,6.2628,0.0,6.3527,6.3654,6.3923,6.4324,6.3866,0.0,0.0,0.0,0.0,0.0,6.3723,6.4341,6.4637,6.5431,6.5781,6.5748,6.5611,6.5346,6.5096,6.4921,6.4666,6.4406,6.4329,6.3874,6.3282,6.3079,6.2274,6.1314,6.081,6.0753,6.0891,6.0763,6.0595,6.0465,6.0465,6.0334,6.0203,6.0203,6.0203,6.0203,6.0203,6.0203,6.0203,6.0203,6.0203,6.0073,5.9717,5.9638,5.9508,5.9054,0.0,0.0,0.0,0.0,0.0,0.0,0.0,5.9001,5.9001,5.9403,5.9638,5.9638,0.0,0.0,0.0,0.0,0.0,5.9128,0.0,0.0,5.9483,5.9483,5.9483,5.9483,5.9483,5.9483,5.9483,5.9483,5.9483,5.9483,5.9483,5.9483,5.9483,5.9483,5.9483,5.9483,5.9483,5.9483,5.9483,5.9483,5.9483,5.9483,6.4813,6.4964,6.5278,6.6189,6.6369,6.65,6.6817,6.6905,6.6905,6.6905,6.7445,6.7483,6.6489,6.6399,6.6154,6.5556,6.5467,6.5487,6.5482,6.5466,6.5565,0.0,0.0,6.5543,6.5948,6.5619,6.5797,6.6454,0.0,0.0,6.5843,0.0,6.5423,6.5774,6.6181,6.6347,6.6409,6.6726,6.6874,6.6899,6.7156,6.7264,6.7272,6.7496,6.757,6.7518,6.7155,6.6808,6.6314,6.5583,6.487,6.3938,6.2226,6.2096,6.2497,6.2078,6.1573,6.1092,6.1092,6.0648,6.0203,6.0203,6.0203,6.0203,6.0203,6.0203,6.0203,6.0203,6.0203,6.0203,6.0203,6.0203,6.0203,6.0177,0.0,0.0,0.0,0.0,0.0,0.0,6.0177,6.0177,6.0177,6.0177,6.0203,0.0,0.0,0.0,0.0,0.0,0.0,6.008,5.9695,0.0,5.9483,5.9483,5.9483,5.9483,5.9483,5.9483,5.9483,5.9483,5.9483,5.9483,5.9483,5.9483,5.9483,5.9483,5.9483,5.9483,5.9483,5.9483,5.9483,5.9483,5.9483,5.9483,6.6251,6.6282,6.6386,6.6686,6.7131,6.7467,6.7568,6.7951,6.8243,6.8243,6.8458,6.846,6.8157,6.8112,6.8039,0.0,6.7597,6.7377,0.0,6.738,6.7479,6.7348,6.7875,6.8129,6.8049,6.8159,6.8121,6.7853,0.0,0.0,0.0,6.6689,6.6776,6.6936,6.7746,6.823,6.8488,6.906,6.9286,6.93,6.9391,6.9297,6.9094,6.9136,6.8993,6.8741,6.8639,6.8198,6.7604,6.7409,6.6819,6.5983,6.4651,6.3474,6.2579,6.2467,6.2067,6.1704,6.1704,6.1573,6.1443,6.1443,6.1443,6.1443,6.1443,6.1443,6.1443,6.1443,6.1443,6.1293,6.0883,6.0804,6.0674,6.0256,6.0203,0.0,0.0,0.0,0.0,0.0,6.0203,6.0203,6.0203,6.0569,0.0,0.0,0.0,0.0,0.0,0.0,0.0,0.0,5.972,0.0,5.9483,5.9483,5.9483,5.9483,5.9483,5.9483,5.9483,5.9483,5.9483,5.9483,5.9483,5.9483,5.9483,5.9483,5.9483,5.9483,5.9483,5.9483,5.9483,5.9483,5.9483,5.9483,6.7243,6.7274,6.7367,6.7627,6.7997,6.8274,6.8274,6.8612,6.8904,6.8904,6.9119,6.9273,6.9273,6.952,0.0,6.9304,6.9081,6.8965,6.9015,6.9245,6.9305,6.9091,6.9607,6.9773,6.9555,6.9508,0.0,6.9238,6.8966,6.8631,6.821,6.8436,6.8582,6.8758,6.9384,6.9757,6.9981,7.0414,7.061,7.061,7.061,7.0462,7.0282,7.0282,7.0104,6.989,6.9757,6.9424,6.8977,6.8707,6.8215,6.7575,6.6574,6.505,6.3506,6.2794,6.243,6.2179,6.2048,6.201,6.201,6.201,6.201,6.201,6.201,6.201,6.201,6.201,6.201,6.1887,6.1502,6.145,6.1319,6.0927,6.0875,6.0875,6.0875,0.0,0.0,0.0,0.0,0.0,0.0,6.1215,6.145,0.0,0.0,0.0,0.0,0.0,6.0851,6.0603,6.0048,5.974,5.974,5.9585,5.9483,5.9483,5.9483,5.9483,5.9483,5.9483,5.9483,5.9483,5.9483,5.9483,5.9483,5.9483,5.9483,5.9483,5.9483,5.9483,5.9483,5.9483,5.9483,5.9483,6.7859,6.7968,6.8167,6.8781,6.8904,6.8904,6.8965,6.8965,6.8996,6.9027,6.9566,6.9967,6.9967,7.0521,7.0675,7.0105,0.0,0.0,7.0859,7.0952,7.0982,7.0982,7.0771,7.0633,7.0618,6.9986,6.9945,7.053,7.0458,7.0446,7.0446,7.0446,7.061,7.0889,7.0889,7.0889,7.0889,7.0889,7.0889,7.0889,7.0889,7.0889,7.0889,7.0889,7.0889,7.087,7.0561,7.0446,7.0318,6.9658,6.919,6.877,6.8039,6.6784,6.5229,6.3304,6.2709,6.2534,6.2179,6.2085,6.2067,6.2048,6.2048,6.2048,6.2048,6.2067,6.2067,6.2048,6.2048,6.2029,6.201,6.201,6.201,6.201,6.201,6.201,6.201,0.0,0.0,0.0,0.0,0.0,6.2067,6.2085,6.2085,0.0,0.0,0.0,0.0,0.0,6.1457,6.1401,6.0565,6.0105,6.0105,5.9695,5.9483,5.9483,5.9483,5.9483,5.9483,5.9483,5.9483,5.9483,5.9483,5.9483,5.9483,5.9483,5.9483,5.9483,5.9483,5.9483,5.9483,5.9483,5.9483,5.9483,0.0,0.0,6.8705,6.8873,6.8904,6.9058,6.9581,6.9659,6.9843,7.0367,7.0551,7.0675,7.0675,7.0798,7.1044,7.1459,7.0982,7.0736,7.089,7.1429,7.1736,7.1736,7.2167,7.215,7.1663,7.149,7.1217,7.0809,7.078,7.0759,7.0759,7.0759,7.0808,7.0889,7.0889,7.0889,7.0889,7.0889,7.0889,7.0889,7.0889,7.0889,7.0889,7.0889,7.0889,7.0873,7.0821,7.0759,7.0743,7.058,7.0301,6.989,6.9157,6.8283,6.7132,6.4987,6.3708,6.2972,6.2879,6.286,6.2786,6.2515,6.2467,6.2467,6.2467,6.2664,6.2768,6.2497,6.2467,6.2347,6.2067,6.201,6.201,6.201,6.201,6.201,6.201,6.201,6.2104,0.0,6.2467,6.2552,6.2823,6.286,6.286,0.0,0.0,6.286,6.286,6.2515,6.2029,6.142,6.0565,6.0105,6.0105,5.9695,5.9483,5.9483,5.9483,5.9483,5.9483,5.9483,5.9483,5.9483,5.9483,5.9483,5.9483,5.9483,5.9483,5.9483,5.9483,5.9483,5.9483,5.9483,5.9483,5.9483,6.8904,6.915,6.9366,6.9366,6.9612,6.9936,7.0305,7.0367,7.049,7.0859,7.1198,7.1383,7.1383,7.1675,7.2013,7.2414,7.1829,7.1536,7.1844,7.2229,7.2445,7.2445,7.2814,7.2765,7.2231,7.2103,7.1642,7.0889,7.0889,7.0889,7.0889,7.0889,7.0889,7.0889,7.0889,7.0889,7.0889,7.0889,7.0889,7.0889,7.0889,7.0889,7.0889,7.0889,7.0889,7.0889,7.0889,7.0889,7.0889,7.0889,7.0789,7.0514,6.9972,6.9308,6.8436,6.708,6.5479,6.4074,6.3736,6.3516,6.3277,6.2916,6.2831,6.2887,6.3064,6.3222,6.3314,6.3138,6.3101,6.2972,6.2582,6.2507,6.2507,6.2507,6.2507,6.2507,6.2507,6.2507,6.2656,6.3064,6.3101,6.3322,6.3846,6.3874,6.3874,6.3874,6.3736,0.0,6.3388,6.3027,6.2571,6.1973,6.1136,6.0584,6.0393,5.9798,5.9483,5.9483,5.9483,5.9483,5.9483,5.9483,5.9483,5.9483,5.9483,5.9483,5.9483,5.9483,5.9483,5.9483,5.9483,5.9483,5.9483,5.9483,5.9483,5.9483,6.9181,6.9659,7.0059,7.0059,7.0521,7.0952,7.1044,7.1075,7.1105,7.1198,7.1767,7.2152,7.2152,7.266,7.2999,7.2999,7.2475,7.2383,7.2968,7.2999,7.2999,7.2999,7.2952,7.2781,7.2436,7.204,7.153,7.0889,7.0889,7.0889,7.0889,7.0889,7.0889,7.0889,7.0889,7.0889,7.0889,7.0889,7.0889,7.0889,7.0889,7.0889,7.0889,7.0889,7.0889,7.0889,7.0889,7.0889,7.0889,7.0889,7.0889,7.087,7.0577,7.0005,6.9408,6.9056,6.7564,6.5806,6.5023,6.4446,6.3947,6.3553,6.3461,6.3553,6.3874,6.4038,6.411,6.4056,6.4038,6.391,6.3535,6.3406,6.3369,6.3369,6.3314,6.3296,6.3351,0.0,6.3535,6.3983,6.4092,6.4401,6.5085,6.5211,6.5201,6.5201,6.4915,6.4555,6.4129,6.37,6.3304,6.2961,6.1984,6.1193,6.0622,5.9932,5.9566,5.9483,5.9483,5.9483,5.9483,5.9483,5.9483,5.9483,5.9483,5.9483,5.9483,5.9483,5.9483,5.9483,5.9483,5.9483,5.9483,5.9483,5.9483,5.9483,7.049,7.0675,7.0736,7.0736,7.0828,7.1105,7.1736,7.1829,7.2013,7.2598,7.2783,7.2845,7.2845,7.2937,7.2999,7.2999,7.2906,7.2876,7.2999,7.2999,7.2999,7.2999,7.2734,7.242,7.2072,7.1403,7.1032,7.0889,7.0889,7.0889,7.0889,7.0889,7.0889,7.0889,7.0889,7.0889,7.0889,7.0889,7.0889,7.0889,7.0889,7.0889,7.0889,7.0889,7.0889,7.0889,7.0889,7.0889,7.0889,7.0889,7.0889,7.0873,7.0824,7.0531,7.0154,6.9836,6.9241,6.847,6.738,6.637,6.555,6.5139,6.505,6.5067,6.5121,6.5639,6.6056,6.571,6.5639,6.5532,6.5121,6.478,6.4545,6.4545,6.4301,6.421,6.4491,0.0,6.4816,6.555,6.5895,6.6247,6.6696,6.701,6.7173,6.7173,6.6853,6.6486,6.6099,6.5425,6.4888,6.4564,6.276,6.1299,6.022,6.0086,5.9855,5.9483,5.9483,5.9483,5.9483,5.9483,5.9483,5.9483,5.9483,5.9483,5.9483,5.9483,5.9483,5.9483,5.9483,5.9483,5.9483,5.9483,5.9483,5.9483,7.0828,7.1229,7.149,7.149,7.1798,7.2167,7.2475,7.2537,7.266,7.2968,7.2999,7.2999,7.2999,7.2999,7.2999,7.2999,7.2999,7.2999,7.2999,7.2999,7.2999,7.2999,7.2859,7.253,7.2023,7.1275,7.0889,7.0889,7.0889,7.0889,7.0889,7.0889,7.0889,7.0889,7.0889,7.0889,7.0889,7.0889,7.0889,7.0889,7.0889,7.0889,7.0889,7.0889,7.0889,7.0889,7.0889,7.0889,7.0889,7.0889,7.0889,7.0889,7.0889,7.0775,7.0658,7.0495,6.9774,6.8888,6.813,6.7426,6.6819,6.6416,6.6328,6.6363,6.6591,6.7091,6.742,6.7218,6.7201,6.7051,6.6651,6.6423,6.63,6.63,6.6177,6.6134,6.6283,6.63,6.6528,6.7132,6.7311,6.7639,6.8232,6.8419,6.8521,6.8521,6.801,6.753,6.7177,6.6462,6.5986,6.5836,6.37,6.2276,6.1733,6.1072,6.0539,6.0144,5.9932,5.972,5.9483,5.9483,5.9483,5.9483,5.9483,5.9483,5.9483,5.9483,5.9483,5.9483,5.9483,5.9483,5.9483,5.9483,5.9483,5.9483,7.1352,7.1829,7.2229,7.2229,7.266,7.2999,7.2999,7.2999,7.2999,7.2999,7.2999,7.2999,7.2999,7.2999,7.2999,7.2999,7.2999,7.2999,7.2999,7.2999,7.2999,7.2999,7.2843,7.2483,7.1866,7.1226,7.0889,7.0889,7.0889,7.0889,7.0889,7.0889,7.0889,7.0889,7.0889,7.0889,7.0889,7.0889,7.0889,7.0889,7.0889,7.0889,7.0889,7.0889,7.0889,7.0889,7.0889,7.0889,7.0889,7.0889,7.0889,7.0889,7.0889,7.0889,7.0889,7.0889,7.0137,6.9207,6.8808,6.8482,6.8107,6.7702,6.7598,6.7684,6.8005,6.8346,6.8618,6.8618,6.8618,6.8487,6.8198,6.8079,6.801,6.801,0.0,6.7925,6.7964,6.801,6.8147,6.8538,6.8656,6.8926,6.9508,6.9641,6.9691,6.9691,6.9061,6.8584,6.8227,6.7575,6.7177,6.7091,6.4942,6.3636,6.3369,6.2362,6.1563,6.0984,6.0488,6.0048,5.9643,5.9521,5.9483,5.9483,5.9483,5.9483,5.9483,5.9483,5.9483,5.9483,5.9483,5.9483,5.9483,5.9483,5.9483,5.9483,7.2722,7.2876,7.2937,7.2937,7.2968,7.2999,7.2999,7.2999,7.2999,7.2999,7.2999,7.2999,7.2999,7.2999,7.2999,7.2999,7.2999,7.2999,7.2999,7.2999,7.2999,7.2999,7.2404,7.1881,7.1451,7.1097,7.0889,7.0889,7.0889,7.0889,7.0889,7.0889,7.0889,7.0889,7.0889,7.0889,7.0889,7.0889,7.0889,7.0889,7.0889,7.0889,7.0889,7.0889,7.0889,7.0889,7.0889,7.0889,7.0889,7.0889,7.0889,7.0889,7.0889,7.0889,7.0889,7.0889,7.0824,7.0661,7.0318,7.0002,6.9624,6.9241,6.9157,6.9157,6.919,6.9491,6.9787,6.9787,6.9787,6.977,6.9753,6.9424,6.9161,6.9161,0.0,0.0,6.914,6.9161,6.9324,6.9737,7.0068,7.0252,7.0301,7.058,7.0775,7.0775,7.0433,7.0071,6.9753,6.9324,6.8972,6.8635,6.6784,6.5237,6.4138,6.3728,6.2964,6.1789,6.1041,6.045,6.0048,5.9682,5.9483,5.9483,5.9483,5.9483,5.9483,5.9483,5.9483,5.9483,5.9483,5.9483,5.9483,5.9483,5.9483,5.9483,7.2937,7.2999,7.2999,7.2999,7.2999,7.2999,7.2999,7.2999,7.2999,7.2999,7.2999,7.2999,7.2999,7.2999,7.2999,7.2999,7.2999,7.2999,7.2999,7.2999,7.2905,7.2718,7.2246,7.1818,7.1419,7.1051,7.0889,7.0889,7.0889,7.0889,7.0889,7.0889,7.0889,7.0889,7.0889,7.0889,7.0889,7.0889,7.0889,7.0889,7.0889,7.0889,7.0889,7.0889,7.0889,7.0889,7.0889,7.0889,7.0889,7.0889,7.0889,7.0889,7.0889,7.0889,7.0889,7.0889,7.0889,7.0856,7.0726,7.0479,7.0183,7.0005,6.9972,6.9972,6.9972,7.0252,7.0528,7.0528,7.0528,7.0528,7.0528,7.0383,7.0301,7.0301,0.0,7.0154,7.0269,7.0301,7.0351,7.0482,7.0612,7.0724,7.0724,7.0838,7.0889,7.0889,7.061,7.0348,7.0233,6.9886,6.9591,6.9504,6.8804,6.777,6.637,6.5318,6.4165,6.3019,6.1939,6.1091,6.0469,6.0316,6.0125,5.9875,5.9875,5.974,5.9502,5.9778,5.9875,5.9913,6.0163,6.0105,5.9875,5.9875,5.9695,5.9483,7.2999,7.2999,7.2999,7.2999,7.2999,7.2999,7.2999,7.2999,7.2999,7.2999,7.2999,7.2999,7.2999,7.2999,7.2999,7.2999,7.2999,7.2999,7.2999,7.2905,7.2749,7.2499,7.2167,7.1818,7.1419,7.1051,7.0889,7.0889,7.0889,7.0889,7.0889,7.0889,7.0889,7.0889,7.0889,7.0889,7.0889,7.0889,7.0889,7.0889,7.0889,7.0889,7.0889,7.0889,7.0889,7.0889,7.0889,7.0889,7.0889,7.0889,7.0889,7.0889,7.0889,7.0889,7.0889,7.0889,7.0889,7.0889,7.0889,7.071,7.0577,7.0577,7.0577,7.0577,7.0577,7.071,7.0889,7.0889,7.0889,7.0889,7.0889,7.0889,7.0889,7.0889,7.0889,7.0889,7.0889,7.0889,7.0889,7.0889,7.0889,7.0889,7.0889,7.0889,7.0889,7.0889,7.0707,7.0577,7.0577,7.0348,7.0216,7.0216,7.0216,6.9674,6.8567,6.694,6.5496,6.4219,6.3029,6.2052,6.1261,6.1136,6.0946,6.0654,6.0654,6.0425,6.008,6.0348,6.0387,6.0316,6.0584,6.0527,6.0297,6.0297,6.0125,5.9894,7.2999,7.2999,7.2999,7.2999,7.2999,7.2999,7.2999,7.2999,7.2999,7.2999,7.2999,7.2999,7.2999,7.2999,7.2999,7.2999,7.2999,7.2999,7.2999,7.2702,7.2484,7.2514,7.2167,7.1818,7.1419,7.1081,7.0889,7.0889,7.0889,7.0889,7.0889,7.0889,7.0889,7.0889,7.0889,7.0889,7.0889,7.0889,7.0889,7.0889,7.0889,7.0889,7.0889,7.0889,7.0889,7.0889,7.0889,7.0889,7.0889,7.0889,7.0889,7.0889,7.0889,7.0889,7.0889,7.0889,7.0889,7.0889,7.0889,7.0889,7.0889,7.0889,7.0889,7.0889,7.0889,7.0889,7.0889,7.0889,7.0889,7.0889,7.0889,7.0889,7.0889,7.0889,7.0889,7.0889,7.0889,7.0889,7.0889,7.0889,7.0889,7.0889,7.0889,7.0889,7.0889,7.0889,7.0889,7.0889,7.0889,7.0889,7.0889,7.0889,7.0889,7.0726,7.0413,6.8618,6.6923,6.5407,6.4256,6.3287,6.2492,6.2108,6.1921,6.1921,6.1902,6.1695,6.1318,6.1318,6.1072,6.0718,6.0718,6.0718,6.0698,6.0698,6.0698,6.0698,7.2999,7.2999,7.2999,7.2999,7.2999,7.2999,7.2999,7.2999,7.2999,7.2999,7.2999,7.2999,7.2999,7.2999,7.2999,7.2999,7.2999,7.2999,7.2999,7.2702,7.2404,7.2151,7.1786,7.1419,7.1081,7.0938,7.0889,7.0889,7.0889,7.0889,7.0889,7.0889,7.0889,7.0889,7.0889,7.0889,7.0889,7.0889,7.0889,7.0889,7.0889,7.0889,7.0889,7.0889,7.0889,7.0889,7.0889,7.0889,7.0889,7.0889,7.0889,7.0889,7.0889,7.0889,7.0889,7.0889,7.0889,7.0889,7.0889,7.0889,7.0889,7.0889,7.0889,7.0889,7.0889,7.0889,7.0889,7.0889,7.0889,7.0889,7.0889,7.0889,7.0889,7.0889,7.0889,7.0889,7.0889,7.0889,7.0889,7.0889,7.0889,7.0889,7.0889,7.0889,7.0889,7.0889,7.0889,7.0889,7.0889,7.0889,7.0889,7.0889,7.0889,7.0726,7.0413,6.9106,6.785,6.6574,6.5443,6.4491,6.3754,6.3626,6.3544,6.3499,6.3269,6.2918,6.2458,6.225,6.1902,6.1571,6.1589,6.1438,6.1193,6.1193,6.0984,6.0698,7.2999,7.2999,7.2999,7.2999,7.2999,7.2999,7.2999,7.2999,7.2999,7.2999,7.2999,7.2999,7.2999,7.2999,7.2999,7.2999,7.2999,7.2936,7.2812,7.2499,7.2151,7.1786,7.1403,7.1129,7.0889,7.0889,7.0889,7.0889,7.0889,7.0889,7.0889,7.0889,7.0889,7.0889,7.0889,7.0889,7.0889,7.0889,7.0889,7.0889,7.0889,7.0889,7.0889,7.0889,7.0889,7.0889,7.0889,7.0889,7.0889,7.0889,7.0889,7.0889,7.0889,7.0889,7.0889,7.0889,7.0889,7.0889,7.0889,7.0889,7.0889,7.0889,7.0889,7.0889,7.0889,7.0889,7.0889,7.0889,7.0889,7.0889,7.0889,7.0889,7.0889,7.0889,7.0889,7.0889,7.0889,7.0889,7.0889,7.0889,7.0889,7.0889,7.0889,7.0889,7.0889,7.0889,7.0889,7.0889,7.0889,7.0889,7.0889,7.0889,7.0889,7.0821,7.061,6.9823,6.8888,6.7765,6.6784,6.5993,6.5417,6.5417,6.5389,6.5344,6.5112,6.4626,6.3911,6.3416,6.2797,6.2153,6.2048,6.186,6.1627,6.1627,6.1438,6.1212,7.2999,7.2999,7.2999,7.2999,7.2999,7.2999,7.2999,7.2999,7.2999,7.2999,7.2999,7.2999,7.2999,7.2999,7.2999,7.2999,7.2999,7.2859,7.2515,7.2183,7.1818,7.1435,7.1097,7.0889,7.0889,7.0889,7.0889,7.0889,7.0889,7.0889,7.0889,7.0889,7.0889,7.0889,7.0889,7.0889,7.0889,7.0889,7.0889,7.0889,7.0889,7.0889,7.0889,7.0889,7.0889,7.0889,7.0889,7.0889,7.0889,7.0889,7.0889,7.0889,7.0889,7.0889,7.0889,7.0889,7.0889,7.0889,7.0889,7.0889,7.0889,7.0889,7.0889,7.0889,7.0889,7.0889,7.0889,7.0889,7.0889,7.0889,7.0889,7.0889,7.0889,7.0889,7.0889,7.0889,7.0889,7.0889,7.0889,7.0889,7.0889,7.0889,7.0889,7.0889,7.0889,7.0889,7.0889,7.0889,7.0889,7.0889,7.0889,7.0889,7.0889,7.0889,7.0889,7.061,6.9923,6.8888,6.8176,6.7644,6.7264,6.7264,6.7281,6.7288,6.7218,6.6574,6.5496,6.4681,6.3671,6.259,6.216,6.201,6.201,6.201,6.201,6.201,7.2999,7.2999,7.2999,7.2999,7.2999,7.2999,7.2999,7.2999,7.2999,7.2999,7.2999,7.2999,7.2999,7.2999,7.2999,7.2999,7.2999,7.2859,7.2515,7.2183,7.1818,7.1435,7.1097,7.0889,7.0889,7.0889,7.0889,7.0889,7.0889,7.0889,7.0889,7.0889,7.0889,7.0889,7.0889,7.0889,7.0889,7.0889,7.0889,7.0889,7.0889,7.0889,7.0889,7.0889,7.0889,7.0889,7.0889,7.0889,7.0889,7.0889,7.0889,7.0889,7.0889,7.0889,7.0889,7.0889,7.0889,7.0889,7.0889,7.0889,7.0889,7.0889,7.0889,7.0889,7.0889,7.0889,7.0889,7.0889,7.0889,7.0889,7.0889,7.0889,7.0889,7.0889,7.0889,7.0889,7.0889,7.0889,7.0889,7.0889,7.0889,7.0889,7.0889,7.0889,7.0889,7.0889,7.0889,7.0889,7.0889,7.0889,7.0889,7.0889,7.0889,7.0889,7.0889,7.0838,7.043,6.967,6.9174,6.8787,6.8431,6.8431,6.8584,6.8774,6.8198,6.7495,6.6626,6.5264,6.4028,6.2935,6.2273,6.201,6.201,6.201,6.201,6.201,7.2999,7.2999,7.2999,7.2999,7.2999,7.2999,7.2999,7.2999,7.2999,7.2999,7.2999,7.2999,7.2999,7.2999,7.2999,7.2999,7.2999,7.2859,7.2515,7.2183,7.1818,7.1435,7.1097,7.0889,7.0889,7.0889,7.0889,7.0889,7.0889,7.0889,7.0889,7.0889,7.0889,7.0889,7.0889,7.0889,7.0889,7.0889,7.0889,7.0889,7.0889,7.0889,7.0889,7.0889,7.0889,7.0889,7.0889,7.0889,7.0889,7.0889,7.0889,7.0889,7.0889,7.0889,7.0889,7.0889,7.0889,7.0889,7.0889,7.0889,7.0889,7.0889,7.0889,7.0889,7.0889,7.0889,7.0889,7.0889,7.0889,7.0889,7.0889,7.0889,7.0889,7.0889,7.0889,7.0889,7.0889,7.0889,7.0889,7.0889,7.0889,7.0889,7.0889,7.0889,7.0889,7.0889,7.0889,7.0889,7.0889,7.0889,7.0889,7.0889,7.0889,7.0889,7.0889,7.0889,7.071,7.038,6.9989,6.9724,6.9558,6.9558,6.9558,6.9541,6.8989,6.8096,6.6975,6.5443,6.4129,6.3019,6.2284,6.201,6.201,6.201,6.201,6.201,7.2999,7.2999,7.2999,7.2999,7.2999,7.2999,7.2999,7.2999,7.2999,7.2999,7.2999,7.2999,7.2999,7.2999,7.2999,7.2999,7.2999,7.2859,7.2515,7.2183,7.1818,7.1435,7.1097,7.0889,7.0889,7.0889,7.0889,7.0889,7.0889,7.0889,7.0889,7.0889,7.0889,7.0889,7.0889,7.0889,7.0889,7.0889,7.0889,7.0889,7.0889,7.0889,7.0889,7.0889,7.0889,7.0889,7.0889,7.0889,7.0889,7.0889,7.0889,7.0889,7.0889,7.0889,7.0889,7.0889,7.0889,7.0889,7.0889,7.0889,7.0889,7.0889,7.0889,7.0889,7.0889,7.0889,7.0889,7.0889,7.0889,7.0889,7.0889,7.0889,7.0889,7.0889,7.0889,7.0889,7.0889,7.0889,7.0889,7.0889,7.0889,7.0889,7.0889,7.0889,7.0889,7.0889,7.0889,7.0889,7.0889,7.0889,7.0889,7.0889,7.0889,7.0889,7.0889,7.0889,7.0889,7.0889,7.0626,7.0495,7.0495,7.043,7.0233,6.9869,6.9341,6.83,6.6871,6.5425,6.4192,6.3138,6.2403,6.2104,6.2085,6.2029,6.201,6.201,7.2999,7.2999,7.2999,7.2999,7.2999,7.2999,7.2999,7.2999,7.2999,7.2999,7.2999,7.2999,7.2999,7.2999,7.2999,7.2999,7.2999,7.2859,7.2515,7.2183,7.1818,7.1435,7.1097,7.0889,7.0889,7.0889,7.0889,7.0889,7.0889,7.0889,7.0889,7.0889,7.0889,7.0889,7.0889,7.0889,7.0889,7.0889,7.0889,7.0889,7.0889,7.0889,7.0889,7.0889,7.0889,7.0889,7.0889,7.0889,7.0889,7.0889,7.0889,7.0889,7.0889,7.0889,7.0889,7.0889,7.0889,7.0889,7.0889,7.0889,7.0889,7.0889,7.0889,7.0889,7.0889,7.0889,7.0889,7.0889,7.0889,7.0889,7.0889,7.0889,7.0889,7.0889,7.0889,7.0889,7.0889,7.0889,7.0889,7.0889,7.0889,7.0889,7.0889,7.0889,7.0889,7.0889,7.0889,7.0889,7.0889,7.0889,7.0889,7.0889,7.0889,7.0889,7.0889,7.0889,7.0889,7.0889,7.087,7.0824,7.0808,7.0544,7.0233,6.9853,6.882,6.7684,6.6486,6.5363,6.4401,6.3543,6.2794,6.2523,6.2486,6.2123,6.201,6.201,7.2999,7.2999,7.2999,7.2999,7.2999,7.2999,7.2999,7.2999,7.2999,7.2999,7.2999,7.2999,7.2999,7.2999,7.2999,7.2999,7.2999,7.2936,7.2796,7.2278,7.1913,7.1754,7.1194,7.0889,7.0889,7.0889,7.0889,7.0889,7.0889,7.0889,7.0889,7.0889,7.0889,7.0889,7.0889,7.0889,7.0889,7.0889,7.0889,7.0889,7.0889,7.0889,7.0889,7.0889,7.0889,7.0889,7.0889,7.0889,7.0889,7.0889,7.0889,7.0889,7.0889,7.0889,7.0889,7.0889,7.0889,7.0889,7.0889,7.0889,7.0889,7.0889,7.0889,7.0889,7.0889,7.0889,7.0889,7.0889,7.0889,7.0889,7.0889,7.0889,7.0889,7.0889,7.0889,7.0889,7.0889,7.0889,7.0889,7.0889,7.0889,7.0889,7.0889,7.0889,7.0889,7.0889,7.0889,7.0889,7.0889,7.0889,7.0889,7.0889,7.0889,7.0889,7.0889,7.0889,7.0889,7.0889,7.0889,7.0889,7.0873,7.0561,7.0088,6.9508,6.8589,6.7564,6.6479,6.5577,6.4717,6.3982,6.3433,6.298,6.256,6.2142,6.201,6.201]}]]